﻿<?xml version="1.0" encoding="utf-8"?><gpx creator="Garmin Desktop App" version="1.1" xsi:schemaLocation="http://www.topografix.com/GPX/1/1 http://www.topografix.com/GPX/1/1/gpx.xsd http://www.garmin.com/xmlschemas/WaypointExtension/v1 http://www8.garmin.com/xmlschemas/WaypointExtensionv1.xsd http://www.garmin.com/xmlschemas/TrackPointExtension/v1 http://www.garmin.com/xmlschemas/TrackPointExtensionv1.xsd http://www.garmin.com/xmlschemas/GpxExtensions/v3 http://www8.garmin.com/xmlschemas/GpxExtensionsv3.xsd http://www.garmin.com/xmlschemas/ActivityExtension/v1 http://www8.garmin.com/xmlschemas/ActivityExtensionv1.xsd http://www.garmin.com/xmlschemas/AdventuresExtensions/v1 http://www8.garmin.com/xmlschemas/AdventuresExtensionv1.xsd http://www.garmin.com/xmlschemas/PressureExtension/v1 http://www.garmin.com/xmlschemas/PressureExtensionv1.xsd http://www.garmin.com/xmlschemas/TripExtensions/v1 http://www.garmin.com/xmlschemas/TripExtensionsv1.xsd http://www.garmin.com/xmlschemas/TripMetaDataExtensions/v1 http://www.garmin.com/xmlschemas/TripMetaDataExtensionsv1.xsd http://www.garmin.com/xmlschemas/ViaPointTransportationModeExtensions/v1 http://www.garmin.com/xmlschemas/ViaPointTransportationModeExtensionsv1.xsd http://www.garmin.com/xmlschemas/CreationTimeExtension/v1 http://www.garmin.com/xmlschemas/CreationTimeExtensionsv1.xsd http://www.garmin.com/xmlschemas/AccelerationExtension/v1 http://www.garmin.com/xmlschemas/AccelerationExtensionv1.xsd http://www.garmin.com/xmlschemas/PowerExtension/v1 http://www.garmin.com/xmlschemas/PowerExtensionv1.xsd http://www.garmin.com/xmlschemas/VideoExtension/v1 http://www.garmin.com/xmlschemas/VideoExtensionv1.xsd" xmlns="http://www.topografix.com/GPX/1/1" xmlns:xsi="http://www.w3.org/2001/XMLSchema-instance" xmlns:wptx1="http://www.garmin.com/xmlschemas/WaypointExtension/v1" xmlns:gpxtrx="http://www.garmin.com/xmlschemas/GpxExtensions/v3" xmlns:gpxtpx="http://www.garmin.com/xmlschemas/TrackPointExtension/v1" xmlns:gpxx="http://www.garmin.com/xmlschemas/GpxExtensions/v3" xmlns:trp="http://www.garmin.com/xmlschemas/TripExtensions/v1" xmlns:adv="http://www.garmin.com/xmlschemas/AdventuresExtensions/v1" xmlns:prs="http://www.garmin.com/xmlschemas/PressureExtension/v1" xmlns:tmd="http://www.garmin.com/xmlschemas/TripMetaDataExtensions/v1" xmlns:vptm="http://www.garmin.com/xmlschemas/ViaPointTransportationModeExtensions/v1" xmlns:ctx="http://www.garmin.com/xmlschemas/CreationTimeExtension/v1" xmlns:gpxacc="http://www.garmin.com/xmlschemas/AccelerationExtension/v1" xmlns:gpxpx="http://www.garmin.com/xmlschemas/PowerExtension/v1" xmlns:vidx1="http://www.garmin.com/xmlschemas/VideoExtension/v1">

  <metadata>
    <link href="http://www.garmin.com">
      <text>Garmin International</text>
    </link>
    <time>2015-08-18T07:16:02Z</time>
    <bounds maxlat="45.913729034364223" maxlon="7.759563541039825" minlat="45.863775322213769" minlon="7.728649489581585" />
  </metadata>

  <trk>
    <name>rifugio-mezzalama2015-08-16</name>
    <extensions>
      <gpxx:TrackExtension>
        <gpxx:DisplayColor>Yellow</gpxx:DisplayColor>
      </gpxx:TrackExtension>
    </extensions>
    <trkseg>
      <trkpt lat="45.863775322213769" lon="7.730486048385501">
        <ele>1705.04</ele>
        <time>2015-08-16T08:10:18Z</time>
      </trkpt>
      <trkpt lat="45.863795606419444" lon="7.730471631512046">
        <ele>1720.4200000000001</ele>
        <time>2015-08-16T08:10:19Z</time>
      </trkpt>
      <trkpt lat="45.863817064091563" lon="7.730457382276654">
        <ele>1734.3599999999999</ele>
        <time>2015-08-16T08:10:20Z</time>
      </trkpt>
      <trkpt lat="45.863838018849492" lon="7.73044103756547">
        <ele>1747.8099999999999</ele>
        <time>2015-08-16T08:10:21Z</time>
      </trkpt>
      <trkpt lat="45.86385989561677" lon="7.730427123606205">
        <ele>1760.79</ele>
        <time>2015-08-16T08:10:22Z</time>
      </trkpt>
      <trkpt lat="45.863880096003413" lon="7.730415305122733">
        <ele>1773.29</ele>
        <time>2015-08-16T08:10:23Z</time>
      </trkpt>
      <trkpt lat="45.863887807354331" lon="7.73040440864861">
        <ele>1784.8199999999999</ele>
        <time>2015-08-16T08:10:24Z</time>
      </trkpt>
      <trkpt lat="45.863957041874528" lon="7.730358727276325">
        <ele>1796.3599999999999</ele>
        <time>2015-08-16T08:10:28Z</time>
      </trkpt>
      <trkpt lat="45.863976068794727" lon="7.730344561859965">
        <ele>1806.9400000000001</ele>
        <time>2015-08-16T08:10:29Z</time>
      </trkpt>
      <trkpt lat="45.863993503153324" lon="7.730329306796193">
        <ele>1816.55</ele>
        <time>2015-08-16T08:10:30Z</time>
      </trkpt>
      <trkpt lat="45.864013619720936" lon="7.730314889922738">
        <ele>1826.1600000000001</ele>
        <time>2015-08-16T08:10:31Z</time>
      </trkpt>
      <trkpt lat="45.864035077393055" lon="7.730300640687347">
        <ele>1834.8099999999999</ele>
        <time>2015-08-16T08:10:32Z</time>
      </trkpt>
      <trkpt lat="45.864053014665842" lon="7.730283793061972">
        <ele>1842.98</ele>
        <time>2015-08-16T08:10:33Z</time>
      </trkpt>
      <trkpt lat="45.864061983302236" lon="7.73027147166431">
        <ele>1851.1600000000001</ele>
        <time>2015-08-16T08:10:34Z</time>
      </trkpt>
      <trkpt lat="45.864109173417091" lon="7.730246325954795">
        <ele>1858.8499999999999</ele>
        <time>2015-08-16T08:10:37Z</time>
      </trkpt>
      <trkpt lat="45.864124931395054" lon="7.730232998728752">
        <ele>1866.54</ele>
        <time>2015-08-16T08:10:38Z</time>
      </trkpt>
      <trkpt lat="45.864141779020429" lon="7.73021774366498">
        <ele>1873.27</ele>
        <time>2015-08-16T08:10:39Z</time>
      </trkpt>
      <trkpt lat="45.86415896192193" lon="7.730201315134764">
        <ele>1879.51</ele>
        <time>2015-08-16T08:10:40Z</time>
      </trkpt>
      <trkpt lat="45.864174636080861" lon="7.730185305699706">
        <ele>1885.28</ele>
        <time>2015-08-16T08:10:41Z</time>
      </trkpt>
      <trkpt lat="45.864191735163331" lon="7.730170218273997">
        <ele>1890.5699999999999</ele>
        <time>2015-08-16T08:10:42Z</time>
      </trkpt>
      <trkpt lat="45.864208750426769" lon="7.730155466124415">
        <ele>1895.8599999999999</ele>
        <time>2015-08-16T08:10:43Z</time>
      </trkpt>
      <trkpt lat="45.864221574738622" lon="7.730138367041946">
        <ele>1900.6600000000001</ele>
        <time>2015-08-16T08:10:44Z</time>
      </trkpt>
      <trkpt lat="45.864237584173679" lon="7.730124117806554">
        <ele>1906.4300000000001</ele>
        <time>2015-08-16T08:10:45Z</time>
      </trkpt>
      <trkpt lat="45.864254347980022" lon="7.730109449476004">
        <ele>1911.24</ele>
        <time>2015-08-16T08:10:46Z</time>
      </trkpt>
      <trkpt lat="45.86426398716867" lon="7.73010048083961">
        <ele>1915.0799999999999</ele>
        <time>2015-08-16T08:10:47Z</time>
      </trkpt>
      <trkpt lat="45.864273374900222" lon="7.730091512203217">
        <ele>1918.9300000000001</ele>
        <time>2015-08-16T08:10:48Z</time>
      </trkpt>
      <trkpt lat="45.864280583336949" lon="7.730084722861648">
        <ele>1923.25</ele>
        <time>2015-08-16T08:10:49Z</time>
      </trkpt>
      <trkpt lat="45.864288965240121" lon="7.730081202462316">
        <ele>1926.6199999999999</ele>
        <time>2015-08-16T08:10:50Z</time>
      </trkpt>
      <trkpt lat="45.864297682419419" lon="7.730076843872666">
        <ele>1930.46</ele>
        <time>2015-08-16T08:10:51Z</time>
      </trkpt>
      <trkpt lat="45.864304471760988" lon="7.730066115036607">
        <ele>1934.3099999999999</ele>
        <time>2015-08-16T08:10:52Z</time>
      </trkpt>
      <trkpt lat="45.864353170618415" lon="7.730008698999882">
        <ele>1937.6700000000001</ele>
        <time>2015-08-16T08:10:56Z</time>
      </trkpt>
      <trkpt lat="45.864363731816411" lon="7.730000065639615">
        <ele>1940.5599999999999</ele>
        <time>2015-08-16T08:10:57Z</time>
      </trkpt>
      <trkpt lat="45.864438749849796" lon="7.729916581884027">
        <ele>1942.48</ele>
        <time>2015-08-16T08:11:07Z</time>
      </trkpt>
      <trkpt lat="45.864523323252797" lon="7.729829242452979">
        <ele>1943.9200000000001</ele>
        <time>2015-08-16T08:11:16Z</time>
      </trkpt>
      <trkpt lat="45.864628097042441" lon="7.729770820587874">
        <ele>1945.3599999999999</ele>
        <time>2015-08-16T08:11:27Z</time>
      </trkpt>
      <trkpt lat="45.86470621638" lon="7.729685911908746">
        <ele>1948.73</ele>
        <time>2015-08-16T08:11:33Z</time>
      </trkpt>
      <trkpt lat="45.864742426201701" lon="7.72965925745666">
        <ele>1953.0599999999999</ele>
        <time>2015-08-16T08:11:35Z</time>
      </trkpt>
      <trkpt lat="45.864759776741266" lon="7.729648696258664">
        <ele>1954.98</ele>
        <time>2015-08-16T08:11:37Z</time>
      </trkpt>
      <trkpt lat="45.864878799766302" lon="7.729525147005916">
        <ele>1959.3</ele>
        <time>2015-08-16T08:11:47Z</time>
      </trkpt>
      <trkpt lat="45.864909226074815" lon="7.72950385697186">
        <ele>1962.1900000000001</ele>
        <time>2015-08-16T08:11:49Z</time>
      </trkpt>
      <trkpt lat="45.864918110892177" lon="7.729497235268354">
        <ele>1963.6300000000001</ele>
        <time>2015-08-16T08:11:50Z</time>
      </trkpt>
      <trkpt lat="45.865003271028399" lon="7.729457002133131">
        <ele>1965.0699999999999</ele>
        <time>2015-08-16T08:11:58Z</time>
      </trkpt>
      <trkpt lat="45.865025399252772" lon="7.729460522532463">
        <ele>1969.4000000000001</ele>
        <time>2015-08-16T08:12:00Z</time>
      </trkpt>
      <trkpt lat="45.865038223564625" lon="7.729460271075368">
        <ele>1968.9200000000001</ele>
        <time>2015-08-16T08:12:01Z</time>
      </trkpt>
      <trkpt lat="45.865105111151934" lon="7.729446524754167">
        <ele>1972.28</ele>
        <time>2015-08-16T08:12:06Z</time>
      </trkpt>
      <trkpt lat="45.865117264911532" lon="7.729443004354835">
        <ele>1972.76</ele>
        <time>2015-08-16T08:12:07Z</time>
      </trkpt>
      <trkpt lat="45.865235114470124" lon="7.729462953284383">
        <ele>1975.1700000000001</ele>
        <time>2015-08-16T08:12:17Z</time>
      </trkpt>
      <trkpt lat="45.865383893251419" lon="7.72943495772779">
        <ele>1975.1700000000001</ele>
        <time>2015-08-16T08:12:28Z</time>
      </trkpt>
      <trkpt lat="45.865509873256087" lon="7.729381732642651">
        <ele>1975.6500000000001</ele>
        <time>2015-08-16T08:12:36Z</time>
      </trkpt>
      <trkpt lat="45.865559158846736" lon="7.729352312162519">
        <ele>1976.1300000000001</ele>
        <time>2015-08-16T08:12:40Z</time>
      </trkpt>
      <trkpt lat="45.865670219063759" lon="7.729314677417278">
        <ele>1976.6099999999999</ele>
        <time>2015-08-16T08:12:50Z</time>
      </trkpt>
      <trkpt lat="45.865736352279782" lon="7.729233205318451">
        <ele>1977.0899999999999</ele>
        <time>2015-08-16T08:12:57Z</time>
      </trkpt>
      <trkpt lat="45.86576602421701" lon="7.729161037132144">
        <ele>1975.1700000000001</ele>
        <time>2015-08-16T08:13:02Z</time>
      </trkpt>
      <trkpt lat="45.865773987025023" lon="7.729151984676719">
        <ele>1977.5699999999999</ele>
        <time>2015-08-16T08:13:03Z</time>
      </trkpt>
      <trkpt lat="45.865782788023353" lon="7.729135891422629">
        <ele>1977.5699999999999</ele>
        <time>2015-08-16T08:13:04Z</time>
      </trkpt>
      <trkpt lat="45.865800306200981" lon="7.729120971634984">
        <ele>1977.5699999999999</ele>
        <time>2015-08-16T08:13:06Z</time>
      </trkpt>
      <trkpt lat="45.86583006195724" lon="7.729114852845669">
        <ele>1977.0899999999999</ele>
        <time>2015-08-16T08:13:09Z</time>
      </trkpt>
      <trkpt lat="45.865909270942211" lon="7.729125581681728">
        <ele>1979.97</ele>
        <time>2015-08-16T08:13:19Z</time>
      </trkpt>
      <trkpt lat="45.86597909219563" lon="7.729109656065702">
        <ele>1982.3800000000001</ele>
        <time>2015-08-16T08:13:29Z</time>
      </trkpt>
      <trkpt lat="45.866039525717497" lon="7.729161623865366">
        <ele>1982.8599999999999</ele>
        <time>2015-08-16T08:13:36Z</time>
      </trkpt>
      <trkpt lat="45.866131307557225" lon="7.729223566129804">
        <ele>1984.3</ele>
        <time>2015-08-16T08:13:46Z</time>
      </trkpt>
      <trkpt lat="45.866166176274419" lon="7.729227924719453">
        <ele>1985.74</ele>
        <time>2015-08-16T08:13:55Z</time>
      </trkpt>
      <trkpt lat="45.866196099668741" lon="7.729250304400921">
        <ele>1987.6600000000001</ele>
        <time>2015-08-16T08:14:01Z</time>
      </trkpt>
      <trkpt lat="45.866267094388604" lon="7.729269834235311">
        <ele>1988.1400000000001</ele>
        <time>2015-08-16T08:14:13Z</time>
      </trkpt>
      <trkpt lat="45.866333898156881" lon="7.729240749031305">
        <ele>1990.0699999999999</ele>
        <time>2015-08-16T08:14:24Z</time>
      </trkpt>
      <trkpt lat="45.866862712427974" lon="7.728796005249023">
        <ele>1991.99</ele>
        <time>2015-08-16T08:14:34Z</time>
      </trkpt>
      <trkpt lat="45.867033284157515" lon="7.728750323876739">
        <ele>1993.4300000000001</ele>
        <time>2015-08-16T08:14:46Z</time>
      </trkpt>
      <trkpt lat="45.867095980793238" lon="7.728713443502784">
        <ele>1993.9100000000001</ele>
        <time>2015-08-16T08:14:56Z</time>
      </trkpt>
      <trkpt lat="45.867160856723785" lon="7.728702882304788">
        <ele>1994.3900000000001</ele>
        <time>2015-08-16T08:15:06Z</time>
      </trkpt>
      <trkpt lat="45.867207543924451" lon="7.728721993044019">
        <ele>1994.8699999999999</ele>
        <time>2015-08-16T08:15:15Z</time>
      </trkpt>
      <trkpt lat="45.867260517552495" lon="7.728699781000614">
        <ele>1995.8299999999999</ele>
        <time>2015-08-16T08:15:26Z</time>
      </trkpt>
      <trkpt lat="45.867317095398903" lon="7.728708665817976">
        <ele>1996.3199999999999</ele>
        <time>2015-08-16T08:15:38Z</time>
      </trkpt>
      <trkpt lat="45.867362441495061" lon="7.728649489581585">
        <ele>1997.28</ele>
        <time>2015-08-16T08:15:51Z</time>
      </trkpt>
      <trkpt lat="45.867390604689717" lon="7.728688297793269">
        <ele>1997.28</ele>
        <time>2015-08-16T08:16:00Z</time>
      </trkpt>
      <trkpt lat="45.867429412901402" lon="7.728739259764552">
        <ele>1996.8</ele>
        <time>2015-08-16T08:16:09Z</time>
      </trkpt>
      <trkpt lat="45.867447098717093" lon="7.728752084076405">
        <ele>1996.3199999999999</ele>
        <time>2015-08-16T08:16:11Z</time>
      </trkpt>
      <trkpt lat="45.867506442591548" lon="7.728829281404614">
        <ele>1997.28</ele>
        <time>2015-08-16T08:16:21Z</time>
      </trkpt>
      <trkpt lat="45.867535779252648" lon="7.728940173983574">
        <ele>1997.28</ele>
        <time>2015-08-16T08:16:33Z</time>
      </trkpt>
      <trkpt lat="45.86757936514914" lon="7.729025334119797">
        <ele>1998.24</ele>
        <time>2015-08-16T08:16:44Z</time>
      </trkpt>
      <trkpt lat="45.867611551657319" lon="7.729136310517788">
        <ele>1998.72</ele>
        <time>2015-08-16T08:16:55Z</time>
      </trkpt>
      <trkpt lat="45.867616077885032" lon="7.72923219949007">
        <ele>1999.2</ele>
        <time>2015-08-16T08:17:06Z</time>
      </trkpt>
      <trkpt lat="45.867636362090707" lon="7.729354994371533">
        <ele>1999.6800000000001</ele>
        <time>2015-08-16T08:17:20Z</time>
      </trkpt>
      <trkpt lat="45.867684809491038" lon="7.729367734864354">
        <ele>2001.1199999999999</ele>
        <time>2015-08-16T08:17:31Z</time>
      </trkpt>
      <trkpt lat="45.867769801989198" lon="7.729394976049662">
        <ele>2002.0799999999999</ele>
        <time>2015-08-16T08:17:44Z</time>
      </trkpt>
      <trkpt lat="45.867823110893369" lon="7.72942028939724">
        <ele>2003.04</ele>
        <time>2015-08-16T08:17:55Z</time>
      </trkpt>
      <trkpt lat="45.867870301008224" lon="7.729404699057341">
        <ele>2005.45</ele>
        <time>2015-08-16T08:18:04Z</time>
      </trkpt>
      <trkpt lat="45.86794339120388" lon="7.729384666308761">
        <ele>2004.97</ele>
        <time>2015-08-16T08:18:15Z</time>
      </trkpt>
      <trkpt lat="45.867987144738436" lon="7.729407381266356">
        <ele>2006.4100000000001</ele>
        <time>2015-08-16T08:18:29Z</time>
      </trkpt>
      <trkpt lat="45.868049925193191" lon="7.729381565004587">
        <ele>2006.8900000000001</ele>
        <time>2015-08-16T08:18:40Z</time>
      </trkpt>
      <trkpt lat="45.868089403957129" lon="7.729334961622953">
        <ele>2007.8499999999999</ele>
        <time>2015-08-16T08:18:52Z</time>
      </trkpt>
      <trkpt lat="45.868135085329413" lon="7.729334877803922">
        <ele>2008.3299999999999</ele>
        <time>2015-08-16T08:19:03Z</time>
      </trkpt>
      <trkpt lat="45.868150759488344" lon="7.729458091780543">
        <ele>2008.3299999999999</ele>
        <time>2015-08-16T08:19:15Z</time>
      </trkpt>
      <trkpt lat="45.868189316242933" lon="7.729522967711091">
        <ele>2008.8099999999999</ele>
        <time>2015-08-16T08:19:26Z</time>
      </trkpt>
      <trkpt lat="45.86820431984961" lon="7.729579713195562">
        <ele>2009.29</ele>
        <time>2015-08-16T08:19:35Z</time>
      </trkpt>
      <trkpt lat="45.868246397003531" lon="7.729692785069346">
        <ele>2010.73</ele>
        <time>2015-08-16T08:19:47Z</time>
      </trkpt>
      <trkpt lat="45.86825754493475" lon="7.729749530553818">
        <ele>2011.7</ele>
        <time>2015-08-16T08:19:57Z</time>
      </trkpt>
      <trkpt lat="45.868288222700357" lon="7.729711309075356">
        <ele>2013.6199999999999</ele>
        <time>2015-08-16T08:20:05Z</time>
      </trkpt>
      <trkpt lat="45.868294760584831" lon="7.729801582172513">
        <ele>2013.1400000000001</ele>
        <time>2015-08-16T08:20:16Z</time>
      </trkpt>
      <trkpt lat="45.868326695635915" lon="7.729745758697391">
        <ele>2014.0999999999999</ele>
        <time>2015-08-16T08:20:27Z</time>
      </trkpt>
      <trkpt lat="45.868403557687998" lon="7.729727569967508">
        <ele>2013.6199999999999</ele>
        <time>2015-08-16T08:20:39Z</time>
      </trkpt>
      <trkpt lat="45.868444377556443" lon="7.729688761755824">
        <ele>2014.5799999999999</ele>
        <time>2015-08-16T08:20:50Z</time>
      </trkpt>
      <trkpt lat="45.868485616520047" lon="7.729642828926444">
        <ele>2015.0599999999999</ele>
        <time>2015-08-16T08:21:01Z</time>
      </trkpt>
      <trkpt lat="45.868495674803853" lon="7.729575354605913">
        <ele>2016.02</ele>
        <time>2015-08-16T08:21:12Z</time>
      </trkpt>
      <trkpt lat="45.868525514379144" lon="7.729612989351153">
        <ele>2016.5</ele>
        <time>2015-08-16T08:21:20Z</time>
      </trkpt>
      <trkpt lat="45.86855853907764" lon="7.72969538345933">
        <ele>2016.98</ele>
        <time>2015-08-16T08:21:31Z</time>
      </trkpt>
      <trkpt lat="45.868611764162779" lon="7.729780795052648">
        <ele>2018.4300000000001</ele>
        <time>2015-08-16T08:21:44Z</time>
      </trkpt>
      <trkpt lat="45.868663983419538" lon="7.729884060099721">
        <ele>2019.3900000000001</ele>
        <time>2015-08-16T08:21:55Z</time>
      </trkpt>
      <trkpt lat="45.868682758882642" lon="7.729978356510401">
        <ele>2021.3099999999999</ele>
        <time>2015-08-16T08:22:07Z</time>
      </trkpt>
      <trkpt lat="45.868680495768785" lon="7.730045663192868">
        <ele>2021.79</ele>
        <time>2015-08-16T08:22:20Z</time>
      </trkpt>
      <trkpt lat="45.868728775531054" lon="7.729980535805225">
        <ele>2021.79</ele>
        <time>2015-08-16T08:22:31Z</time>
      </trkpt>
      <trkpt lat="45.868779737502337" lon="7.729989923536778">
        <ele>2022.27</ele>
        <time>2015-08-16T08:22:43Z</time>
      </trkpt>
      <trkpt lat="45.868846122175455" lon="7.729943320155144">
        <ele>2022.75</ele>
        <time>2015-08-16T08:22:54Z</time>
      </trkpt>
      <trkpt lat="45.868890546262264" lon="7.729930831119418">
        <ele>2022.75</ele>
        <time>2015-08-16T08:23:02Z</time>
      </trkpt>
      <trkpt lat="45.868910076096654" lon="7.729850029572845">
        <ele>2022.27</ele>
        <time>2015-08-16T08:23:13Z</time>
      </trkpt>
      <trkpt lat="45.86893723346293" lon="7.729774173349142">
        <ele>2022.27</ele>
        <time>2015-08-16T08:23:25Z</time>
      </trkpt>
      <trkpt lat="45.868956847116351" lon="7.729671327397227">
        <ele>2022.27</ele>
        <time>2015-08-16T08:23:36Z</time>
      </trkpt>
      <trkpt lat="45.869010994210839" lon="7.729622963815928">
        <ele>2022.27</ele>
        <time>2015-08-16T08:23:47Z</time>
      </trkpt>
      <trkpt lat="45.869093220680952" lon="7.729573510587215">
        <ele>2023.23</ele>
        <time>2015-08-16T08:23:59Z</time>
      </trkpt>
      <trkpt lat="45.869107134640217" lon="7.729534870013595">
        <ele>2024.6700000000001</ele>
        <time>2015-08-16T08:24:11Z</time>
      </trkpt>
      <trkpt lat="45.869142170995474" lon="7.729624137282372">
        <ele>2025.6400000000001</ele>
        <time>2015-08-16T08:24:24Z</time>
      </trkpt>
      <trkpt lat="45.869191624224186" lon="7.729670321568847">
        <ele>2026.1199999999999</ele>
        <time>2015-08-16T08:24:37Z</time>
      </trkpt>
      <trkpt lat="45.869277538731694" lon="7.7296191919595">
        <ele>2028.04</ele>
        <time>2015-08-16T08:24:50Z</time>
      </trkpt>
      <trkpt lat="45.869327327236533" lon="7.729640146717429">
        <ele>2028.52</ele>
        <time>2015-08-16T08:25:00Z</time>
      </trkpt>
      <trkpt lat="45.869357082992792" lon="7.72962355054915">
        <ele>2029</ele>
        <time>2015-08-16T08:25:12Z</time>
      </trkpt>
      <trkpt lat="45.869363034144044" lon="7.729558171704412">
        <ele>2029.96</ele>
        <time>2015-08-16T08:25:24Z</time>
      </trkpt>
      <trkpt lat="45.869427155703306" lon="7.729538641870022">
        <ele>2031.4000000000001</ele>
        <time>2015-08-16T08:25:34Z</time>
      </trkpt>
      <trkpt lat="45.869462694972754" lon="7.729490529745817">
        <ele>2031.8800000000001</ele>
        <time>2015-08-16T08:25:44Z</time>
      </trkpt>
      <trkpt lat="45.869492869824171" lon="7.729469742625952">
        <ele>2032.8399999999999</ele>
        <time>2015-08-16T08:25:57Z</time>
      </trkpt>
      <trkpt lat="45.869549447670579" lon="7.729425067082048">
        <ele>2034.77</ele>
        <time>2015-08-16T08:26:09Z</time>
      </trkpt>
      <trkpt lat="45.869603008031845" lon="7.729301769286394">
        <ele>2033.3299999999999</ele>
        <time>2015-08-16T08:26:20Z</time>
      </trkpt>
      <trkpt lat="45.869619520381093" lon="7.729306379333139">
        <ele>2032.8399999999999</ele>
        <time>2015-08-16T08:26:28Z</time>
      </trkpt>
      <trkpt lat="45.869606863707304" lon="7.729316605255008">
        <ele>2033.3299999999999</ele>
        <time>2015-08-16T08:26:46Z</time>
      </trkpt>
      <trkpt lat="45.869621112942696" lon="7.72931476123631">
        <ele>2032.8399999999999</ele>
        <time>2015-08-16T08:27:03Z</time>
      </trkpt>
      <trkpt lat="45.869606947526336" lon="7.729338314384222">
        <ele>2032.8399999999999</ele>
        <time>2015-08-16T08:27:24Z</time>
      </trkpt>
      <trkpt lat="45.869593787938356" lon="7.729366226121783">
        <ele>2032.8399999999999</ele>
        <time>2015-08-16T08:27:41Z</time>
      </trkpt>
      <trkpt lat="45.869592782109976" lon="7.729302020743489">
        <ele>2032.3599999999999</ele>
        <time>2015-08-16T08:27:57Z</time>
      </trkpt>
      <trkpt lat="45.869593033567071" lon="7.72929715923965">
        <ele>2030.4400000000001</ele>
        <time>2015-08-16T08:28:17Z</time>
      </trkpt>
      <trkpt lat="45.869594793766737" lon="7.729324484243989">
        <ele>2029.96</ele>
        <time>2015-08-16T08:28:35Z</time>
      </trkpt>
      <trkpt lat="45.869596302509308" lon="7.729294057935476">
        <ele>2029.48</ele>
        <time>2015-08-16T08:28:53Z</time>
      </trkpt>
      <trkpt lat="45.869565792381763" lon="7.72922926582396">
        <ele>2028.52</ele>
        <time>2015-08-16T08:29:10Z</time>
      </trkpt>
      <trkpt lat="45.869581466540694" lon="7.729207640513778">
        <ele>2027.5599999999999</ele>
        <time>2015-08-16T08:29:19Z</time>
      </trkpt>
      <trkpt lat="45.869609629735351" lon="7.729117032140493">
        <ele>2027.0799999999999</ele>
        <time>2015-08-16T08:29:30Z</time>
      </trkpt>
      <trkpt lat="45.869636284187436" lon="7.729024244472385">
        <ele>2027.0799999999999</ele>
        <time>2015-08-16T08:29:39Z</time>
      </trkpt>
      <trkpt lat="45.869687162339687" lon="7.728970935568214">
        <ele>2028.04</ele>
        <time>2015-08-16T08:29:50Z</time>
      </trkpt>
      <trkpt lat="45.8697469253093" lon="7.72898836992681">
        <ele>2028.04</ele>
        <time>2015-08-16T08:30:04Z</time>
      </trkpt>
      <trkpt lat="45.869778944179416" lon="7.728943359106779">
        <ele>2029</ele>
        <time>2015-08-16T08:30:16Z</time>
      </trkpt>
      <trkpt lat="45.869779782369733" lon="7.728898013010621">
        <ele>2029.48</ele>
        <time>2015-08-16T08:30:27Z</time>
      </trkpt>
      <trkpt lat="45.869855554774404" lon="7.728966660797596">
        <ele>2030.9200000000001</ele>
        <time>2015-08-16T08:30:37Z</time>
      </trkpt>
      <trkpt lat="45.869923867285252" lon="7.729029189795256">
        <ele>2031.4000000000001</ele>
        <time>2015-08-16T08:30:49Z</time>
      </trkpt>
      <trkpt lat="45.86998337879777" lon="7.729048049077392">
        <ele>2032.3599999999999</ele>
        <time>2015-08-16T08:30:59Z</time>
      </trkpt>
      <trkpt lat="45.870048422366381" lon="7.729063639417291">
        <ele>2032.8399999999999</ele>
        <time>2015-08-16T08:31:10Z</time>
      </trkpt>
      <trkpt lat="45.870096199214458" lon="7.729071769863367">
        <ele>2033.3299999999999</ele>
        <time>2015-08-16T08:31:22Z</time>
      </trkpt>
      <trkpt lat="45.870131235569715" lon="7.729066405445337">
        <ele>2033.8099999999999</ele>
        <time>2015-08-16T08:31:28Z</time>
      </trkpt>
      <trkpt lat="45.870194602757692" lon="7.729055928066373">
        <ele>2034.77</ele>
        <time>2015-08-16T08:31:38Z</time>
      </trkpt>
      <trkpt lat="45.870269536972046" lon="7.729043941944838">
        <ele>2035.73</ele>
        <time>2015-08-16T08:31:51Z</time>
      </trkpt>
      <trkpt lat="45.870322594419122" lon="7.729095993563533">
        <ele>2036.21</ele>
        <time>2015-08-16T08:32:03Z</time>
      </trkpt>
      <trkpt lat="45.870374226942658" lon="7.729128263890743">
        <ele>2037.1700000000001</ele>
        <time>2015-08-16T08:32:14Z</time>
      </trkpt>
      <trkpt lat="45.870410688221455" lon="7.729173274710774">
        <ele>2037.6500000000001</ele>
        <time>2015-08-16T08:32:24Z</time>
      </trkpt>
      <trkpt lat="45.870446478947997" lon="7.729172520339489">
        <ele>2038.6099999999999</ele>
        <time>2015-08-16T08:32:34Z</time>
      </trkpt>
      <trkpt lat="45.870468774810433" lon="7.72923655807972">
        <ele>2038.6099999999999</ele>
        <time>2015-08-16T08:32:42Z</time>
      </trkpt>
      <trkpt lat="45.870510349050164" lon="7.72921116091311">
        <ele>2037.6500000000001</ele>
        <time>2015-08-16T08:32:55Z</time>
      </trkpt>
      <trkpt lat="45.870538093149662" lon="7.72922876290977">
        <ele>2037.1700000000001</ele>
        <time>2015-08-16T08:33:06Z</time>
      </trkpt>
      <trkpt lat="45.870555527508259" lon="7.729250807315111">
        <ele>2037.1700000000001</ele>
        <time>2015-08-16T08:33:09Z</time>
      </trkpt>
      <trkpt lat="45.870676729828119" lon="7.729364801198244">
        <ele>2036.21</ele>
        <time>2015-08-16T08:33:23Z</time>
      </trkpt>
      <trkpt lat="45.870760967954993" lon="7.729432610794902">
        <ele>2036.6900000000001</ele>
        <time>2015-08-16T08:33:33Z</time>
      </trkpt>
      <trkpt lat="45.870767505839467" lon="7.729445183649659">
        <ele>2036.6900000000001</ele>
        <time>2015-08-16T08:33:34Z</time>
      </trkpt>
      <trkpt lat="45.870781168341637" lon="7.729517854750156">
        <ele>2036.21</ele>
        <time>2015-08-16T08:33:39Z</time>
      </trkpt>
      <trkpt lat="45.870791980996728" lon="7.729560853913426">
        <ele>2036.6900000000001</ele>
        <time>2015-08-16T08:33:42Z</time>
      </trkpt>
      <trkpt lat="45.870799440890551" lon="7.729584407061338">
        <ele>2036.6900000000001</ele>
        <time>2015-08-16T08:33:44Z</time>
      </trkpt>
      <trkpt lat="45.87083799764514" lon="7.729649199172854">
        <ele>2036.21</ele>
        <time>2015-08-16T08:33:51Z</time>
      </trkpt>
      <trkpt lat="45.870909495279193" lon="7.729738214984536">
        <ele>2036.21</ele>
        <time>2015-08-16T08:34:00Z</time>
      </trkpt>
      <trkpt lat="45.870952578261495" lon="7.729834774509072">
        <ele>2035.73</ele>
        <time>2015-08-16T08:34:07Z</time>
      </trkpt>
      <trkpt lat="45.870960038155317" lon="7.730006016790867">
        <ele>2035.73</ele>
        <time>2015-08-16T08:34:19Z</time>
      </trkpt>
      <trkpt lat="45.87097579613328" lon="7.730199219658971">
        <ele>2034.29</ele>
        <time>2015-08-16T08:34:31Z</time>
      </trkpt>
      <trkpt lat="45.870997337624431" lon="7.730283625423908">
        <ele>2035.73</ele>
        <time>2015-08-16T08:34:42Z</time>
      </trkpt>
      <trkpt lat="45.871030781418085" lon="7.730378592386842">
        <ele>2036.21</ele>
        <time>2015-08-16T08:34:52Z</time>
      </trkpt>
      <trkpt lat="45.871033798903227" lon="7.730495687574148">
        <ele>2036.6900000000001</ele>
        <time>2015-08-16T08:35:02Z</time>
      </trkpt>
      <trkpt lat="45.871029272675514" lon="7.730534914880991">
        <ele>2036.21</ele>
        <time>2015-08-16T08:35:11Z</time>
      </trkpt>
      <trkpt lat="45.871022818610072" lon="7.730529299005866">
        <ele>2035.25</ele>
        <time>2015-08-16T08:35:27Z</time>
      </trkpt>
      <trkpt lat="45.87107302621007" lon="7.730469033122063">
        <ele>2034.29</ele>
        <time>2015-08-16T08:35:37Z</time>
      </trkpt>
      <trkpt lat="45.871084593236446" lon="7.73044346831739">
        <ele>2034.29</ele>
        <time>2015-08-16T08:35:39Z</time>
      </trkpt>
      <trkpt lat="45.871092807501554" lon="7.730419747531414">
        <ele>2034.29</ele>
        <time>2015-08-16T08:35:41Z</time>
      </trkpt>
      <trkpt lat="45.871165059506893" lon="7.730322433635593">
        <ele>2034.29</ele>
        <time>2015-08-16T08:35:51Z</time>
      </trkpt>
      <trkpt lat="45.871262289583683" lon="7.730275159701705">
        <ele>2033.8099999999999</ele>
        <time>2015-08-16T08:36:01Z</time>
      </trkpt>
      <trkpt lat="45.871321046724916" lon="7.730135601013899">
        <ele>2033.3299999999999</ele>
        <time>2015-08-16T08:36:13Z</time>
      </trkpt>
      <trkpt lat="45.871381899341941" lon="7.730026887729764">
        <ele>2034.29</ele>
        <time>2015-08-16T08:36:25Z</time>
      </trkpt>
      <trkpt lat="45.871387179940939" lon="7.730019427835941">
        <ele>2034.29</ele>
        <time>2015-08-16T08:36:26Z</time>
      </trkpt>
      <trkpt lat="45.871471585705876" lon="7.730026803910732">
        <ele>2035.73</ele>
        <time>2015-08-16T08:36:38Z</time>
      </trkpt>
      <trkpt lat="45.871527241542935" lon="7.730050692334771">
        <ele>2036.21</ele>
        <time>2015-08-16T08:36:48Z</time>
      </trkpt>
      <trkpt lat="45.871619861572981" lon="7.730144821107388">
        <ele>2037.1700000000001</ele>
        <time>2015-08-16T08:36:59Z</time>
      </trkpt>
      <trkpt lat="45.871710553765297" lon="7.73016250692308">
        <ele>2037.6500000000001</ele>
        <time>2015-08-16T08:37:11Z</time>
      </trkpt>
      <trkpt lat="45.871776938438416" lon="7.730159154161811">
        <ele>2038.1300000000001</ele>
        <time>2015-08-16T08:37:21Z</time>
      </trkpt>
      <trkpt lat="45.871834773570299" lon="7.730165105313063">
        <ele>2039.0899999999999</ele>
        <time>2015-08-16T08:37:30Z</time>
      </trkpt>
      <trkpt lat="45.871868301182985" lon="7.730235848575831">
        <ele>2039.5699999999999</ele>
        <time>2015-08-16T08:37:40Z</time>
      </trkpt>
      <trkpt lat="45.871915323659778" lon="7.730249091982842">
        <ele>2040.05</ele>
        <time>2015-08-16T08:37:49Z</time>
      </trkpt>
      <trkpt lat="45.871951533481479" lon="7.730291923508048">
        <ele>2040.05</ele>
        <time>2015-08-16T08:37:58Z</time>
      </trkpt>
      <trkpt lat="45.872005764394999" lon="7.730354284867644">
        <ele>2041.02</ele>
        <time>2015-08-16T08:38:08Z</time>
      </trkpt>
      <trkpt lat="45.8720488473773" lon="7.730428380891681">
        <ele>2041.5</ele>
        <time>2015-08-16T08:38:21Z</time>
      </trkpt>
      <trkpt lat="45.872122859582305" lon="7.730457047000527">
        <ele>2042.46</ele>
        <time>2015-08-16T08:38:35Z</time>
      </trkpt>
      <trkpt lat="45.872186226770282" lon="7.730500884354115">
        <ele>2043.4200000000001</ele>
        <time>2015-08-16T08:38:46Z</time>
      </trkpt>
      <trkpt lat="45.872215731069446" lon="7.730563413351774">
        <ele>2043.9000000000001</ele>
        <time>2015-08-16T08:38:57Z</time>
      </trkpt>
      <trkpt lat="45.872262502089143" lon="7.730588726699352">
        <ele>2044.8599999999999</ele>
        <time>2015-08-16T08:39:07Z</time>
      </trkpt>
      <trkpt lat="45.872330898419023" lon="7.730672210454941">
        <ele>2046.3</ele>
        <time>2015-08-16T08:39:19Z</time>
      </trkpt>
      <trkpt lat="45.872360989451408" lon="7.73075670003891">
        <ele>2046.78</ele>
        <time>2015-08-16T08:39:30Z</time>
      </trkpt>
      <trkpt lat="45.872391751036048" lon="7.73077480494976">
        <ele>2048.23</ele>
        <time>2015-08-16T08:39:41Z</time>
      </trkpt>
      <trkpt lat="45.872452603653073" lon="7.730821827426553">
        <ele>2048.71</ele>
        <time>2015-08-16T08:39:53Z</time>
      </trkpt>
      <trkpt lat="45.87250180542469" lon="7.730883182957768">
        <ele>2049.1900000000001</ele>
        <time>2015-08-16T08:40:10Z</time>
      </trkpt>
      <trkpt lat="45.87253893725574" lon="7.730915118008852">
        <ele>2050.6300000000001</ele>
        <time>2015-08-16T08:40:23Z</time>
      </trkpt>
      <trkpt lat="45.872588139027357" lon="7.730918554589152">
        <ele>2051.1100000000001</ele>
        <time>2015-08-16T08:40:33Z</time>
      </trkpt>
      <trkpt lat="45.872649494558573" lon="7.73093800060451">
        <ele>2052.5500000000002</ele>
        <time>2015-08-16T08:40:44Z</time>
      </trkpt>
      <trkpt lat="45.872720656916499" lon="7.730969432741404">
        <ele>2053.5100000000002</ele>
        <time>2015-08-16T08:40:56Z</time>
      </trkpt>
      <trkpt lat="45.872760554775596" lon="7.730984017252922">
        <ele>2054.4699999999998</ele>
        <time>2015-08-16T08:41:06Z</time>
      </trkpt>
      <trkpt lat="45.872753262519836" lon="7.731094490736723">
        <ele>2054.96</ele>
        <time>2015-08-16T08:41:16Z</time>
      </trkpt>
      <trkpt lat="45.872749574482441" lon="7.731056772172451">
        <ele>2054.4699999999998</ele>
        <time>2015-08-16T08:41:26Z</time>
      </trkpt>
      <trkpt lat="45.87275879457593" lon="7.731073116883636">
        <ele>2053.5100000000002</ele>
        <time>2015-08-16T08:41:43Z</time>
      </trkpt>
      <trkpt lat="45.87276516482234" lon="7.731078984215856">
        <ele>2052.5500000000002</ele>
        <time>2015-08-16T08:41:56Z</time>
      </trkpt>
      <trkpt lat="45.87277002632618" lon="7.731100777164102">
        <ele>2051.5900000000001</ele>
        <time>2015-08-16T08:42:11Z</time>
      </trkpt>
      <trkpt lat="45.872781844809651" lon="7.73111586458981">
        <ele>2051.1100000000001</ele>
        <time>2015-08-16T08:42:21Z</time>
      </trkpt>
      <trkpt lat="45.87282576598227" lon="7.731142267584801">
        <ele>2052.0700000000002</ele>
        <time>2015-08-16T08:42:32Z</time>
      </trkpt>
      <trkpt lat="45.872865747660398" lon="7.731093484908342">
        <ele>2052.5500000000002</ele>
        <time>2015-08-16T08:42:41Z</time>
      </trkpt>
      <trkpt lat="45.872941436246037" lon="7.731095496565104">
        <ele>2053.5100000000002</ele>
        <time>2015-08-16T08:42:55Z</time>
      </trkpt>
      <trkpt lat="45.872977478429675" lon="7.731081498786807">
        <ele>2053.9899999999998</ele>
        <time>2015-08-16T08:43:05Z</time>
      </trkpt>
      <trkpt lat="45.873006228357553" lon="7.731074709445238">
        <ele>2055.4400000000001</ele>
        <time>2015-08-16T08:43:15Z</time>
      </trkpt>
      <trkpt lat="45.873051322996616" lon="7.731066411361098">
        <ele>2056.4000000000001</ele>
        <time>2015-08-16T08:43:27Z</time>
      </trkpt>
      <trkpt lat="45.873097172006965" lon="7.73114318959415">
        <ele>2056.8800000000001</ele>
        <time>2015-08-16T08:43:38Z</time>
      </trkpt>
      <trkpt lat="45.873138327151537" lon="7.731124749407172">
        <ele>2058.8000000000002</ele>
        <time>2015-08-16T08:43:51Z</time>
      </trkpt>
      <trkpt lat="45.873172944411635" lon="7.7312130946666">
        <ele>2059.7600000000002</ele>
        <time>2015-08-16T08:44:00Z</time>
      </trkpt>
      <trkpt lat="45.87321225553751" lon="7.731199599802494">
        <ele>2060.7199999999998</ele>
        <time>2015-08-16T08:44:13Z</time>
      </trkpt>
      <trkpt lat="45.873259864747524" lon="7.731255171820521">
        <ele>2061.6799999999998</ele>
        <time>2015-08-16T08:44:25Z</time>
      </trkpt>
      <trkpt lat="45.873325159773231" lon="7.73121896199882">
        <ele>2063.1300000000001</ele>
        <time>2015-08-16T08:44:37Z</time>
      </trkpt>
      <trkpt lat="45.873366063460708" lon="7.731264140456915">
        <ele>2064.5700000000002</ele>
        <time>2015-08-16T08:44:50Z</time>
      </trkpt>
      <trkpt lat="45.873383162543178" lon="7.731330944225192">
        <ele>2066.0100000000002</ele>
        <time>2015-08-16T08:45:02Z</time>
      </trkpt>
      <trkpt lat="45.873451391234994" lon="7.731313426047564">
        <ele>2066.9699999999998</ele>
        <time>2015-08-16T08:45:14Z</time>
      </trkpt>
      <trkpt lat="45.873499838635325" lon="7.731371596455574">
        <ele>2067.9299999999998</ele>
        <time>2015-08-16T08:45:24Z</time>
      </trkpt>
      <trkpt lat="45.873537138104439" lon="7.731432029977441">
        <ele>2068.8899999999999</ele>
        <time>2015-08-16T08:45:35Z</time>
      </trkpt>
      <trkpt lat="45.873588602989912" lon="7.731451727449894">
        <ele>2070.3400000000001</ele>
        <time>2015-08-16T08:45:47Z</time>
      </trkpt>
      <trkpt lat="45.873648868873715" lon="7.731413170695305">
        <ele>2071.3000000000002</ele>
        <time>2015-08-16T08:45:59Z</time>
      </trkpt>
      <trkpt lat="45.873730257153511" lon="7.731439238414168">
        <ele>2072.2600000000002</ele>
        <time>2015-08-16T08:46:12Z</time>
      </trkpt>
      <trkpt lat="45.873790858313441" lon="7.731503359973431">
        <ele>2073.6999999999998</ele>
        <time>2015-08-16T08:46:24Z</time>
      </trkpt>
      <trkpt lat="45.87387677282095" lon="7.73147008381784">
        <ele>2074.6599999999999</ele>
        <time>2015-08-16T08:46:38Z</time>
      </trkpt>
      <trkpt lat="45.873939301818609" lon="7.731457678601146">
        <ele>2076.0999999999999</ele>
        <time>2015-08-16T08:46:52Z</time>
      </trkpt>
      <trkpt lat="45.874028652906418" lon="7.731471927836537">
        <ele>2076.5900000000001</ele>
        <time>2015-08-16T08:47:05Z</time>
      </trkpt>
      <trkpt lat="45.874089002609253" lon="7.731410069391131">
        <ele>2077.5500000000002</ele>
        <time>2015-08-16T08:47:15Z</time>
      </trkpt>
      <trkpt lat="45.874112220481038" lon="7.731394981965423">
        <ele>2078.5100000000002</ele>
        <time>2015-08-16T08:47:25Z</time>
      </trkpt>
      <trkpt lat="45.87412060238421" lon="7.731412248685956">
        <ele>2077.5500000000002</ele>
        <time>2015-08-16T08:47:45Z</time>
      </trkpt>
      <trkpt lat="45.87410450913012" lon="7.731524985283613">
        <ele>2076.0999999999999</ele>
        <time>2015-08-16T08:48:10Z</time>
      </trkpt>
      <trkpt lat="45.874189166352153" lon="7.731416439637542">
        <ele>2075.1399999999999</ele>
        <time>2015-08-16T08:48:33Z</time>
      </trkpt>
      <trkpt lat="45.874233590438962" lon="7.731410153210163">
        <ele>2076.5900000000001</ele>
        <time>2015-08-16T08:48:44Z</time>
      </trkpt>
      <trkpt lat="45.874251862987876" lon="7.7313909586519">
        <ele>2077.0700000000002</ele>
        <time>2015-08-16T08:48:53Z</time>
      </trkpt>
      <trkpt lat="45.874257646501064" lon="7.731478381901979">
        <ele>2077.5500000000002</ele>
        <time>2015-08-16T08:49:03Z</time>
      </trkpt>
      <trkpt lat="45.874315900728106" lon="7.731518615037203">
        <ele>2079.4699999999998</ele>
        <time>2015-08-16T08:49:16Z</time>
      </trkpt>
      <trkpt lat="45.874299975112081" lon="7.731646271422505">
        <ele>2080.9099999999999</ele>
        <time>2015-08-16T08:49:29Z</time>
      </trkpt>
      <trkpt lat="45.874284217134118" lon="7.731609810143709">
        <ele>2080.4299999999998</ele>
        <time>2015-08-16T08:49:38Z</time>
      </trkpt>
      <trkpt lat="45.874277930706739" lon="7.731616850942373">
        <ele>2079.9499999999998</ele>
        <time>2015-08-16T08:49:51Z</time>
      </trkpt>
      <trkpt lat="45.874299975112081" lon="7.731738053262234">
        <ele>2081.3899999999999</ele>
        <time>2015-08-16T08:50:04Z</time>
      </trkpt>
      <trkpt lat="45.874289833009243" lon="7.731804018840194">
        <ele>2082.8299999999999</ele>
        <time>2015-08-16T08:50:18Z</time>
      </trkpt>
      <trkpt lat="45.874289497733116" lon="7.731884485110641">
        <ele>2084.2800000000002</ele>
        <time>2015-08-16T08:50:28Z</time>
      </trkpt>
      <trkpt lat="45.874325120821595" lon="7.731942152604461">
        <ele>2085.2399999999998</ele>
        <time>2015-08-16T08:50:41Z</time>
      </trkpt>
      <trkpt lat="45.874324282631278" lon="7.732021361589432">
        <ele>2086.6799999999998</ele>
        <time>2015-08-16T08:50:54Z</time>
      </trkpt>
      <trkpt lat="45.874322103336453" lon="7.732123117893934">
        <ele>2087.6399999999999</ele>
        <time>2015-08-16T08:51:06Z</time>
      </trkpt>
      <trkpt lat="45.874374825507402" lon="7.732134265825152">
        <ele>2088.5999999999999</ele>
        <time>2015-08-16T08:51:17Z</time>
      </trkpt>
      <trkpt lat="45.874371640384197" lon="7.732184808701277">
        <ele>2090.04</ele>
        <time>2015-08-16T08:51:30Z</time>
      </trkpt>
      <trkpt lat="45.874329563230276" lon="7.732274914160371">
        <ele>2091</ele>
        <time>2015-08-16T08:51:40Z</time>
      </trkpt>
      <trkpt lat="45.874329982325435" lon="7.732364851981401">
        <ele>2090.52</ele>
        <time>2015-08-16T08:51:49Z</time>
      </trkpt>
      <trkpt lat="45.874362420290709" lon="7.732439115643501">
        <ele>2091</ele>
        <time>2015-08-16T08:52:00Z</time>
      </trkpt>
      <trkpt lat="45.874365270137787" lon="7.73256316781044">
        <ele>2090.04</ele>
        <time>2015-08-16T08:52:09Z</time>
      </trkpt>
      <trkpt lat="45.874400557950139" lon="7.732662493363023">
        <ele>2090.52</ele>
        <time>2015-08-16T08:52:21Z</time>
      </trkpt>
      <trkpt lat="45.874439449980855" lon="7.732772212475538">
        <ele>2091.4899999999998</ele>
        <time>2015-08-16T08:52:32Z</time>
      </trkpt>
      <trkpt lat="45.874479096382856" lon="7.732875058427453">
        <ele>2091.9699999999998</ele>
        <time>2015-08-16T08:52:45Z</time>
      </trkpt>
      <trkpt lat="45.874498877674341" lon="7.732997769489884">
        <ele>2091.9699999999998</ele>
        <time>2015-08-16T08:52:56Z</time>
      </trkpt>
      <trkpt lat="45.874523604288697" lon="7.733100447803736">
        <ele>2092.4499999999998</ele>
        <time>2015-08-16T08:53:06Z</time>
      </trkpt>
      <trkpt lat="45.874543972313404" lon="7.733212932944298">
        <ele>2092.9299999999998</ele>
        <time>2015-08-16T08:53:15Z</time>
      </trkpt>
      <trkpt lat="45.874547995626926" lon="7.733274959027767">
        <ele>2093.4099999999999</ele>
        <time>2015-08-16T08:53:26Z</time>
      </trkpt>
      <trkpt lat="45.874572973698378" lon="7.733361376449466">
        <ele>2093.8899999999999</ele>
        <time>2015-08-16T08:53:37Z</time>
      </trkpt>
      <trkpt lat="45.874581942334771" lon="7.733453745022416">
        <ele>2094.8499999999999</ele>
        <time>2015-08-16T08:53:48Z</time>
      </trkpt>
      <trkpt lat="45.874592419713736" lon="7.733536725863814">
        <ele>2095.8099999999999</ele>
        <time>2015-08-16T08:53:58Z</time>
      </trkpt>
      <trkpt lat="45.874619157984853" lon="7.733659520745277">
        <ele>2096.29</ele>
        <time>2015-08-16T08:54:09Z</time>
      </trkpt>
      <trkpt lat="45.8746253605932" lon="7.733773598447442">
        <ele>2097.25</ele>
        <time>2015-08-16T08:54:20Z</time>
      </trkpt>
      <trkpt lat="45.874616978690028" lon="7.733823973685503">
        <ele>2099.1799999999998</ele>
        <time>2015-08-16T08:54:25Z</time>
      </trkpt>
      <trkpt lat="45.874612368643284" lon="7.73391667753458">
        <ele>2098.21</ele>
        <time>2015-08-16T08:54:37Z</time>
      </trkpt>
      <trkpt lat="45.874610776081681" lon="7.733974847942591">
        <ele>2099.1799999999998</ele>
        <time>2015-08-16T08:54:47Z</time>
      </trkpt>
      <trkpt lat="45.874593509361148" lon="7.734061433002353">
        <ele>2098.6999999999998</ele>
        <time>2015-08-16T08:54:58Z</time>
      </trkpt>
      <trkpt lat="45.874575991183519" lon="7.734193364158273">
        <ele>2099.1799999999998</ele>
        <time>2015-08-16T08:55:10Z</time>
      </trkpt>
      <trkpt lat="45.874604405835271" lon="7.734313225373626">
        <ele>2099.1799999999998</ele>
        <time>2015-08-16T08:55:21Z</time>
      </trkpt>
      <trkpt lat="45.874637765809894" lon="7.734452364966273">
        <ele>2098.6999999999998</ele>
        <time>2015-08-16T08:55:32Z</time>
      </trkpt>
      <trkpt lat="45.874695600941777" lon="7.734554875642061">
        <ele>2098.6999999999998</ele>
        <time>2015-08-16T08:55:44Z</time>
      </trkpt>
      <trkpt lat="45.874743545427918" lon="7.734647747129202">
        <ele>2099.1799999999998</ele>
        <time>2015-08-16T08:55:54Z</time>
      </trkpt>
      <trkpt lat="45.874772043898702" lon="7.734747910872102">
        <ele>2099.6599999999999</ele>
        <time>2015-08-16T08:56:03Z</time>
      </trkpt>
      <trkpt lat="45.874837758019567" lon="7.734746234491468">
        <ele>2100.6199999999999</ele>
        <time>2015-08-16T08:56:14Z</time>
      </trkpt>
      <trkpt lat="45.87488729506731" lon="7.734837513417006">
        <ele>2102.54</ele>
        <time>2015-08-16T08:56:26Z</time>
      </trkpt>
      <trkpt lat="45.874912608414888" lon="7.734877746552229">
        <ele>2101.5799999999999</ele>
        <time>2015-08-16T08:56:32Z</time>
      </trkpt>
      <trkpt lat="45.874946052208543" lon="7.734913788735867">
        <ele>2101.5799999999999</ele>
        <time>2015-08-16T08:56:42Z</time>
      </trkpt>
      <trkpt lat="45.874999025836587" lon="7.734942706301808">
        <ele>2101.5799999999999</ele>
        <time>2015-08-16T08:56:50Z</time>
      </trkpt>
      <trkpt lat="45.875087035819888" lon="7.735062399879098">
        <ele>2101.5799999999999</ele>
        <time>2015-08-16T08:57:02Z</time>
      </trkpt>
      <trkpt lat="45.875133890658617" lon="7.735111685469747">
        <ele>2101.5799999999999</ele>
        <time>2015-08-16T08:57:09Z</time>
      </trkpt>
      <trkpt lat="45.875218799337745" lon="7.735193073749542">
        <ele>2102.0599999999999</ele>
        <time>2015-08-16T08:57:21Z</time>
      </trkpt>
      <trkpt lat="45.87524738162756" lon="7.735219895839691">
        <ele>2102.0599999999999</ele>
        <time>2015-08-16T08:57:24Z</time>
      </trkpt>
      <trkpt lat="45.875334888696671" lon="7.73531511425972">
        <ele>2102.0599999999999</ele>
        <time>2015-08-16T08:57:35Z</time>
      </trkpt>
      <trkpt lat="45.875396076589823" lon="7.735362974926829">
        <ele>2102.0599999999999</ele>
        <time>2015-08-16T08:57:42Z</time>
      </trkpt>
      <trkpt lat="45.875420803204179" lon="7.735368004068732">
        <ele>2102.54</ele>
        <time>2015-08-16T08:57:45Z</time>
      </trkpt>
      <trkpt lat="45.875506717711687" lon="7.735397089272738">
        <ele>2102.54</ele>
        <time>2015-08-16T08:57:56Z</time>
      </trkpt>
      <trkpt lat="45.875621801242232" lon="7.735431874170899">
        <ele>2103.02</ele>
        <time>2015-08-16T08:58:08Z</time>
      </trkpt>
      <trkpt lat="45.875734034925699" lon="7.735471772029996">
        <ele>2102.54</ele>
        <time>2015-08-16T08:58:20Z</time>
      </trkpt>
      <trkpt lat="45.87580737657845" lon="7.735527595505118">
        <ele>2103.02</ele>
        <time>2015-08-16T08:58:30Z</time>
      </trkpt>
      <trkpt lat="45.8758479449898" lon="7.735537905246019">
        <ele>2102.0599999999999</ele>
        <time>2015-08-16T08:58:36Z</time>
      </trkpt>
      <trkpt lat="45.875979708507657" lon="7.735593058168888">
        <ele>2102.0599999999999</ele>
        <time>2015-08-16T08:58:50Z</time>
      </trkpt>
      <trkpt lat="45.876079117879272" lon="7.735613593831658">
        <ele>2102.54</ele>
        <time>2015-08-16T08:59:04Z</time>
      </trkpt>
      <trkpt lat="45.876178108155727" lon="7.735612168908119">
        <ele>2103.5</ele>
        <time>2015-08-16T08:59:15Z</time>
      </trkpt>
      <trkpt lat="45.876249354332685" lon="7.735654748976231">
        <ele>2104.9400000000001</ele>
        <time>2015-08-16T08:59:25Z</time>
      </trkpt>
      <trkpt lat="45.876328144222498" lon="7.735670674592257">
        <ele>2104.9400000000001</ele>
        <time>2015-08-16T08:59:34Z</time>
      </trkpt>
      <trkpt lat="45.876380782574415" lon="7.7356874383986">
        <ele>2104.46</ele>
        <time>2015-08-16T08:59:39Z</time>
      </trkpt>
      <trkpt lat="45.876416070386767" lon="7.735731359571219">
        <ele>2104.46</ele>
        <time>2015-08-16T08:59:44Z</time>
      </trkpt>
      <trkpt lat="45.876546492800117" lon="7.735753823071718">
        <ele>2103.98</ele>
        <time>2015-08-16T08:59:56Z</time>
      </trkpt>
      <trkpt lat="45.87663215585053" lon="7.735793888568878">
        <ele>2103.5</ele>
        <time>2015-08-16T09:00:07Z</time>
      </trkpt>
      <trkpt lat="45.876714717596769" lon="7.735848119482398">
        <ele>2103.02</ele>
        <time>2015-08-16T09:00:15Z</time>
      </trkpt>
      <trkpt lat="45.876829801127315" lon="7.735906708985567">
        <ele>2102.54</ele>
        <time>2015-08-16T09:00:26Z</time>
      </trkpt>
      <trkpt lat="45.876844050362706" lon="7.735917521640658">
        <ele>2102.54</ele>
        <time>2015-08-16T09:00:28Z</time>
      </trkpt>
      <trkpt lat="45.876876739785075" lon="7.735990863293409">
        <ele>2102.54</ele>
        <time>2015-08-16T09:00:33Z</time>
      </trkpt>
      <trkpt lat="45.876888139173388" lon="7.736078705638647">
        <ele>2102.0599999999999</ele>
        <time>2015-08-16T09:00:38Z</time>
      </trkpt>
      <trkpt lat="45.876973299309611" lon="7.736196722835302">
        <ele>2100.1399999999999</ele>
        <time>2015-08-16T09:00:49Z</time>
      </trkpt>
      <trkpt lat="45.877090310677886" lon="7.736261012032628">
        <ele>2098.6999999999998</ele>
        <time>2015-08-16T09:01:00Z</time>
      </trkpt>
      <trkpt lat="45.877240179106593" lon="7.736296718940139">
        <ele>2097.73</ele>
        <time>2015-08-16T09:01:14Z</time>
      </trkpt>
      <trkpt lat="45.877388790249825" lon="7.736313650384545">
        <ele>2097.73</ele>
        <time>2015-08-16T09:01:26Z</time>
      </trkpt>
      <trkpt lat="45.877482919022441" lon="7.736347513273358">
        <ele>2097.25</ele>
        <time>2015-08-16T09:01:37Z</time>
      </trkpt>
      <trkpt lat="45.87748970836401" lon="7.73637542501092">
        <ele>2097.25</ele>
        <time>2015-08-16T09:01:39Z</time>
      </trkpt>
      <trkpt lat="45.877517703920603" lon="7.736403252929449">
        <ele>2097.25</ele>
        <time>2015-08-16T09:01:48Z</time>
      </trkpt>
      <trkpt lat="45.877591045573354" lon="7.736438708379865">
        <ele>2097.25</ele>
        <time>2015-08-16T09:01:57Z</time>
      </trkpt>
      <trkpt lat="45.877609737217426" lon="7.736428985372186">
        <ele>2097.25</ele>
        <time>2015-08-16T09:01:59Z</time>
      </trkpt>
      <trkpt lat="45.877685341984034" lon="7.736459327861667">
        <ele>2097.25</ele>
        <time>2015-08-16T09:02:11Z</time>
      </trkpt>
      <trkpt lat="45.877734879031777" lon="7.736494950950146">
        <ele>2097.25</ele>
        <time>2015-08-16T09:02:21Z</time>
      </trkpt>
      <trkpt lat="45.877743512392044" lon="7.736534429714084">
        <ele>2097.25</ele>
        <time>2015-08-16T09:02:25Z</time>
      </trkpt>
      <trkpt lat="45.877826660871506" lon="7.73654792457819">
        <ele>2097.25</ele>
        <time>2015-08-16T09:02:36Z</time>
      </trkpt>
      <trkpt lat="45.877868067473173" lon="7.736597461625934">
        <ele>2097.73</ele>
        <time>2015-08-16T09:02:45Z</time>
      </trkpt>
      <trkpt lat="45.877955239266157" lon="7.736638030037284">
        <ele>2097.73</ele>
        <time>2015-08-16T09:02:55Z</time>
      </trkpt>
      <trkpt lat="45.878010140731931" lon="7.736659068614245">
        <ele>2098.21</ele>
        <time>2015-08-16T09:03:05Z</time>
      </trkpt>
      <trkpt lat="45.878021875396371" lon="7.736692596226931">
        <ele>2097.73</ele>
        <time>2015-08-16T09:03:10Z</time>
      </trkpt>
      <trkpt lat="45.878038136288524" lon="7.736712712794542">
        <ele>2097.73</ele>
        <time>2015-08-16T09:03:12Z</time>
      </trkpt>
      <trkpt lat="45.878136875107884" lon="7.73671992123127">
        <ele>2097.73</ele>
        <time>2015-08-16T09:03:23Z</time>
      </trkpt>
      <trkpt lat="45.878145340830088" lon="7.736710533499718">
        <ele>2097.73</ele>
        <time>2015-08-16T09:03:24Z</time>
      </trkpt>
      <trkpt lat="45.878174174576998" lon="7.736693602055311">
        <ele>2097.73</ele>
        <time>2015-08-16T09:03:27Z</time>
      </trkpt>
      <trkpt lat="45.878207366913557" lon="7.736658649519086">
        <ele>2097.73</ele>
        <time>2015-08-16T09:03:36Z</time>
      </trkpt>
      <trkpt lat="45.878235194832087" lon="7.736698212102056">
        <ele>2097.73</ele>
        <time>2015-08-16T09:03:40Z</time>
      </trkpt>
      <trkpt lat="45.878296801820397" lon="7.736742971464992">
        <ele>2097.73</ele>
        <time>2015-08-16T09:03:52Z</time>
      </trkpt>
      <trkpt lat="45.878338543698192" lon="7.736767278984189">
        <ele>2097.73</ele>
        <time>2015-08-16T09:04:02Z</time>
      </trkpt>
      <trkpt lat="45.878346003592014" lon="7.736757807433605">
        <ele>2097.73</ele>
        <time>2015-08-16T09:04:06Z</time>
      </trkpt>
      <trkpt lat="45.878404090180993" lon="7.736737690865994">
        <ele>2097.25</ele>
        <time>2015-08-16T09:04:14Z</time>
      </trkpt>
      <trkpt lat="45.878412555903196" lon="7.736704749986529">
        <ele>2097.25</ele>
        <time>2015-08-16T09:04:26Z</time>
      </trkpt>
      <trkpt lat="45.87841616012156" lon="7.736692177131772">
        <ele>2097.25</ele>
        <time>2015-08-16T09:04:27Z</time>
      </trkpt>
      <trkpt lat="45.878429152071476" lon="7.736652866005898">
        <ele>2097.25</ele>
        <time>2015-08-16T09:04:30Z</time>
      </trkpt>
      <trkpt lat="45.878482796251774" lon="7.73650299757719">
        <ele>2097.25</ele>
        <time>2015-08-16T09:04:40Z</time>
      </trkpt>
      <trkpt lat="45.878590000793338" lon="7.736484976485372">
        <ele>2097.73</ele>
        <time>2015-08-16T09:04:52Z</time>
      </trkpt>
      <trkpt lat="45.87871472351253" lon="7.736465195193887">
        <ele>2097.73</ele>
        <time>2015-08-16T09:05:05Z</time>
      </trkpt>
      <trkpt lat="45.878732409328222" lon="7.736462010070682">
        <ele>2097.73</ele>
        <time>2015-08-16T09:05:07Z</time>
      </trkpt>
      <trkpt lat="45.878811283037066" lon="7.736582877114415">
        <ele>2098.21</ele>
        <time>2015-08-16T09:05:17Z</time>
      </trkpt>
      <trkpt lat="45.878817485645413" lon="7.736590169370174">
        <ele>2098.21</ele>
        <time>2015-08-16T09:05:18Z</time>
      </trkpt>
      <trkpt lat="45.878863418474793" lon="7.736621517688036">
        <ele>2098.6999999999998</ele>
        <time>2015-08-16T09:05:23Z</time>
      </trkpt>
      <trkpt lat="45.878880769014359" lon="7.736622523516417">
        <ele>2098.6999999999998</ele>
        <time>2015-08-16T09:05:25Z</time>
      </trkpt>
      <trkpt lat="45.87897858582437" lon="7.736511044204235">
        <ele>2098.6999999999998</ele>
        <time>2015-08-16T09:05:36Z</time>
      </trkpt>
      <trkpt lat="45.87900591082871" lon="7.736507104709745">
        <ele>2099.1799999999998</ele>
        <time>2015-08-16T09:05:39Z</time>
      </trkpt>
      <trkpt lat="45.879031056538224" lon="7.73649075999856">
        <ele>2099.1799999999998</ele>
        <time>2015-08-16T09:05:42Z</time>
      </trkpt>
      <trkpt lat="45.879139602184296" lon="7.736504254862666">
        <ele>2099.6599999999999</ele>
        <time>2015-08-16T09:05:53Z</time>
      </trkpt>
      <trkpt lat="45.879225516691804" lon="7.736540297046304">
        <ele>2100.1399999999999</ele>
        <time>2015-08-16T09:06:04Z</time>
      </trkpt>
      <trkpt lat="45.879281172528863" lon="7.736546499654651">
        <ele>2100.6199999999999</ele>
        <time>2015-08-16T09:06:10Z</time>
      </trkpt>
      <trkpt lat="45.879407403990626" lon="7.736552031710744">
        <ele>2101.0999999999999</ele>
        <time>2015-08-16T09:06:23Z</time>
      </trkpt>
      <trkpt lat="45.87952877394855" lon="7.736552199348807">
        <ele>2101.0999999999999</ele>
        <time>2015-08-16T09:06:35Z</time>
      </trkpt>
      <trkpt lat="45.879620052874088" lon="7.736548846587539">
        <ele>2101.0999999999999</ele>
        <time>2015-08-16T09:06:45Z</time>
      </trkpt>
      <trkpt lat="45.879662213847041" lon="7.73655672557652">
        <ele>2101.0999999999999</ele>
        <time>2015-08-16T09:06:50Z</time>
      </trkpt>
      <trkpt lat="45.879777632653713" lon="7.736570639535785">
        <ele>2101.5799999999999</ele>
        <time>2015-08-16T09:07:00Z</time>
      </trkpt>
      <trkpt lat="45.879823565483093" lon="7.73657382465899">
        <ele>2101.5799999999999</ele>
        <time>2015-08-16T09:07:05Z</time>
      </trkpt>
      <trkpt lat="45.879857176914811" lon="7.736565442755818">
        <ele>2101.5799999999999</ele>
        <time>2015-08-16T09:07:08Z</time>
      </trkpt>
      <trkpt lat="45.879936721175909" lon="7.736580865457654">
        <ele>2101.5799999999999</ele>
        <time>2015-08-16T09:07:19Z</time>
      </trkpt>
      <trkpt lat="45.879975948482752" lon="7.73656309582293">
        <ele>2101.5799999999999</ele>
        <time>2015-08-16T09:07:31Z</time>
      </trkpt>
      <trkpt lat="45.880016349256039" lon="7.736617662012577">
        <ele>2101.5799999999999</ele>
        <time>2015-08-16T09:07:37Z</time>
      </trkpt>
      <trkpt lat="45.880151214078069" lon="7.736658817157149">
        <ele>2102.0599999999999</ele>
        <time>2015-08-16T09:07:50Z</time>
      </trkpt>
      <trkpt lat="45.880203265696764" lon="7.736681448295713">
        <ele>2102.0599999999999</ele>
        <time>2015-08-16T09:07:56Z</time>
      </trkpt>
      <trkpt lat="45.880300914868712" lon="7.736703827977181">
        <ele>2102.54</ele>
        <time>2015-08-16T09:08:07Z</time>
      </trkpt>
      <trkpt lat="45.880406862124801" lon="7.736709443852305">
        <ele>2102.54</ele>
        <time>2015-08-16T09:08:17Z</time>
      </trkpt>
      <trkpt lat="45.880476180464029" lon="7.73672235198319">
        <ele>2103.02</ele>
        <time>2015-08-16T09:08:24Z</time>
      </trkpt>
      <trkpt lat="45.880572656169534" lon="7.736748419702053">
        <ele>2104.9400000000001</ele>
        <time>2015-08-16T09:08:34Z</time>
      </trkpt>
      <trkpt lat="45.880693690851331" lon="7.736789407208562">
        <ele>2103.5</ele>
        <time>2015-08-16T09:08:45Z</time>
      </trkpt>
      <trkpt lat="45.88073174469173" lon="7.736804746091366">
        <ele>2103.98</ele>
        <time>2015-08-16T09:08:49Z</time>
      </trkpt>
      <trkpt lat="45.880848504602909" lon="7.736840285360813">
        <ele>2103.98</ele>
        <time>2015-08-16T09:09:00Z</time>
      </trkpt>
      <trkpt lat="45.880945818498731" lon="7.73689141497016">
        <ele>2104.46</ele>
        <time>2015-08-16T09:09:10Z</time>
      </trkpt>
      <trkpt lat="45.881058136001229" lon="7.736933324486017">
        <ele>2104.46</ele>
        <time>2015-08-16T09:09:22Z</time>
      </trkpt>
      <trkpt lat="45.881132818758488" lon="7.736979257315397">
        <ele>2104.9400000000001</ele>
        <time>2015-08-16T09:09:29Z</time>
      </trkpt>
      <trkpt lat="45.881159557029605" lon="7.73700138553977">
        <ele>2104.9400000000001</ele>
        <time>2015-08-16T09:09:33Z</time>
      </trkpt>
      <trkpt lat="45.881277322769165" lon="7.737067267298698">
        <ele>2104.9400000000001</ele>
        <time>2015-08-16T09:09:44Z</time>
      </trkpt>
      <trkpt lat="45.881362315267324" lon="7.737133735790849">
        <ele>2105.4200000000001</ele>
        <time>2015-08-16T09:09:53Z</time>
      </trkpt>
      <trkpt lat="45.881382348015904" lon="7.737134238705039">
        <ele>2105.9099999999999</ele>
        <time>2015-08-16T09:09:55Z</time>
      </trkpt>
      <trkpt lat="45.881454348564148" lon="7.737170616164804">
        <ele>2105.9099999999999</ele>
        <time>2015-08-16T09:10:03Z</time>
      </trkpt>
      <trkpt lat="45.881505142897367" lon="7.737184530124068">
        <ele>2106.3899999999999</ele>
        <time>2015-08-16T09:10:08Z</time>
      </trkpt>
      <trkpt lat="45.881548142060637" lon="7.73724127560854">
        <ele>2106.3899999999999</ele>
        <time>2015-08-16T09:10:14Z</time>
      </trkpt>
      <trkpt lat="45.881638079881668" lon="7.737341104075313">
        <ele>2106.8699999999999</ele>
        <time>2015-08-16T09:10:25Z</time>
      </trkpt>
      <trkpt lat="45.881648305803537" lon="7.737353341653943">
        <ele>2106.8699999999999</ele>
        <time>2015-08-16T09:10:27Z</time>
      </trkpt>
      <trkpt lat="45.881720306351781" lon="7.737412685528398">
        <ele>2107.3499999999999</ele>
        <time>2015-08-16T09:10:36Z</time>
      </trkpt>
      <trkpt lat="45.881785517558455" lon="7.737504467368126">
        <ele>2107.3499999999999</ele>
        <time>2015-08-16T09:10:45Z</time>
      </trkpt>
      <trkpt lat="45.88186539709568" lon="7.737580239772797">
        <ele>2107.8299999999999</ele>
        <time>2015-08-16T09:10:54Z</time>
      </trkpt>
      <trkpt lat="45.88188442401588" lon="7.737601613625884">
        <ele>2107.8299999999999</ele>
        <time>2015-08-16T09:10:56Z</time>
      </trkpt>
      <trkpt lat="45.881908312439919" lon="7.737633297219873">
        <ele>2108.3099999999999</ele>
        <time>2015-08-16T09:10:59Z</time>
      </trkpt>
      <trkpt lat="45.881969584152102" lon="7.737702364102006">
        <ele>2108.3099999999999</ele>
        <time>2015-08-16T09:11:08Z</time>
      </trkpt>
      <trkpt lat="45.882008392363787" lon="7.737740585580468">
        <ele>2108.79</ele>
        <time>2015-08-16T09:11:13Z</time>
      </trkpt>
      <trkpt lat="45.882037058472633" lon="7.737769167870283">
        <ele>2108.79</ele>
        <time>2015-08-16T09:11:16Z</time>
      </trkpt>
      <trkpt lat="45.882106963545084" lon="7.737804371863604">
        <ele>2108.79</ele>
        <time>2015-08-16T09:11:24Z</time>
      </trkpt>
      <trkpt lat="45.88221131823957" lon="7.737832702696323">
        <ele>2109.27</ele>
        <time>2015-08-16T09:11:34Z</time>
      </trkpt>
      <trkpt lat="45.882294550538063" lon="7.737837983295322">
        <ele>2109.27</ele>
        <time>2015-08-16T09:11:42Z</time>
      </trkpt>
      <trkpt lat="45.882362779229879" lon="7.737876120954752">
        <ele>2109.75</ele>
        <time>2015-08-16T09:11:50Z</time>
      </trkpt>
      <trkpt lat="45.882413322106004" lon="7.737909816205502">
        <ele>2110.23</ele>
        <time>2015-08-16T09:11:56Z</time>
      </trkpt>
      <trkpt lat="45.882505690678954" lon="7.737957593053579">
        <ele>2110.71</ele>
        <time>2015-08-16T09:12:07Z</time>
      </trkpt>
      <trkpt lat="45.882524130865932" lon="7.737982235848904">
        <ele>2110.71</ele>
        <time>2015-08-16T09:12:10Z</time>
      </trkpt>
      <trkpt lat="45.882601076737046" lon="7.73803386837244">
        <ele>2111.1900000000001</ele>
        <time>2015-08-16T09:12:19Z</time>
      </trkpt>
      <trkpt lat="45.882620271295309" lon="7.738047279417515">
        <ele>2110.71</ele>
        <time>2015-08-16T09:12:21Z</time>
      </trkpt>
      <trkpt lat="45.882717585191131" lon="7.738082567229867">
        <ele>2111.1900000000001</ele>
        <time>2015-08-16T09:12:31Z</time>
      </trkpt>
      <trkpt lat="45.882798051461577" lon="7.738138306885958">
        <ele>2111.6700000000001</ele>
        <time>2015-08-16T09:12:40Z</time>
      </trkpt>
      <trkpt lat="45.882816659286618" lon="7.738151215016842">
        <ele>2112.1500000000001</ele>
        <time>2015-08-16T09:12:42Z</time>
      </trkpt>
      <trkpt lat="45.882877008989453" lon="7.738178623840213">
        <ele>2112.1500000000001</ele>
        <time>2015-08-16T09:12:47Z</time>
      </trkpt>
      <trkpt lat="45.882920091971755" lon="7.738218270242214">
        <ele>2112.1500000000001</ele>
        <time>2015-08-16T09:12:52Z</time>
      </trkpt>
      <trkpt lat="45.882951272651553" lon="7.738275351002812">
        <ele>2113.1199999999999</ele>
        <time>2015-08-16T09:12:57Z</time>
      </trkpt>
      <trkpt lat="45.883041210472584" lon="7.738347938284278">
        <ele>2114.0799999999999</ele>
        <time>2015-08-16T09:13:07Z</time>
      </trkpt>
      <trkpt lat="45.883070630952716" lon="7.738376352936029">
        <ele>2114.0799999999999</ele>
        <time>2015-08-16T09:13:11Z</time>
      </trkpt>
      <trkpt lat="45.883155707269907" lon="7.738456819206476">
        <ele>2114.5599999999999</ele>
        <time>2015-08-16T09:13:21Z</time>
      </trkpt>
      <trkpt lat="45.88321203365922" lon="7.738496633246541">
        <ele>2115.04</ele>
        <time>2015-08-16T09:13:27Z</time>
      </trkpt>
      <trkpt lat="45.883256709203124" lon="7.738532675430179">
        <ele>2115.04</ele>
        <time>2015-08-16T09:13:32Z</time>
      </trkpt>
      <trkpt lat="45.883265761658549" lon="7.73853862658143">
        <ele>2115.04</ele>
        <time>2015-08-16T09:13:33Z</time>
      </trkpt>
      <trkpt lat="45.883368775248528" lon="7.738560000434518">
        <ele>2115.52</ele>
        <time>2015-08-16T09:13:42Z</time>
      </trkpt>
      <trkpt lat="45.883379252627492" lon="7.738564275205135">
        <ele>2115.52</ele>
        <time>2015-08-16T09:13:43Z</time>
      </trkpt>
      <trkpt lat="45.883488636463881" lon="7.738624289631844">
        <ele>2115.52</ele>
        <time>2015-08-16T09:13:54Z</time>
      </trkpt>
      <trkpt lat="45.88357706554234" lon="7.738704588264227">
        <ele>2116</ele>
        <time>2015-08-16T09:14:04Z</time>
      </trkpt>
      <trkpt lat="45.883590644225478" lon="7.738718083128333">
        <ele>2116</ele>
        <time>2015-08-16T09:14:07Z</time>
      </trkpt>
      <trkpt lat="45.883646132424474" lon="7.738774241879582">
        <ele>2116.48</ele>
        <time>2015-08-16T09:14:13Z</time>
      </trkpt>
      <trkpt lat="45.883664740249515" lon="7.738790670409799">
        <ele>2116.48</ele>
        <time>2015-08-16T09:14:16Z</time>
      </trkpt>
      <trkpt lat="45.883687371388078" lon="7.738801147788763">
        <ele>2116.48</ele>
        <time>2015-08-16T09:14:18Z</time>
      </trkpt>
      <trkpt lat="45.883737998083234" lon="7.738841380923986">
        <ele>2116.96</ele>
        <time>2015-08-16T09:14:23Z</time>
      </trkpt>
      <trkpt lat="45.883801281452179" lon="7.73886401206255">
        <ele>2117.4400000000001</ele>
        <time>2015-08-16T09:14:29Z</time>
      </trkpt>
      <trkpt lat="45.883907899260521" lon="7.738902317360044">
        <ele>2117.9200000000001</ele>
        <time>2015-08-16T09:14:40Z</time>
      </trkpt>
      <trkpt lat="45.883938828483224" lon="7.738906927406788">
        <ele>2117.9200000000001</ele>
        <time>2015-08-16T09:14:43Z</time>
      </trkpt>
      <trkpt lat="45.884010158479214" lon="7.738942131400108">
        <ele>2118.8800000000001</ele>
        <time>2015-08-16T09:14:51Z</time>
      </trkpt>
      <trkpt lat="45.884098000824451" lon="7.739008264616132">
        <ele>2119.3600000000001</ele>
        <time>2015-08-16T09:15:00Z</time>
      </trkpt>
      <trkpt lat="45.884136389940977" lon="7.7390340808779">
        <ele>2119.3600000000001</ele>
        <time>2015-08-16T09:15:04Z</time>
      </trkpt>
      <trkpt lat="45.884218448773026" lon="7.739087389782071">
        <ele>2119.8400000000001</ele>
        <time>2015-08-16T09:15:13Z</time>
      </trkpt>
      <trkpt lat="45.884256670251489" lon="7.739113792777062">
        <ele>2119.8400000000001</ele>
        <time>2015-08-16T09:15:17Z</time>
      </trkpt>
      <trkpt lat="45.884298328310251" lon="7.739143213257194">
        <ele>2120.3200000000002</ele>
        <time>2015-08-16T09:15:21Z</time>
      </trkpt>
      <trkpt lat="45.884395055472851" lon="7.73919434286654">
        <ele>2120.8099999999999</ele>
        <time>2015-08-16T09:15:30Z</time>
      </trkpt>
      <trkpt lat="45.884475270286202" lon="7.739203060045838">
        <ele>2121.29</ele>
        <time>2015-08-16T09:15:39Z</time>
      </trkpt>
      <trkpt lat="45.884492872282863" lon="7.739211190491915">
        <ele>2121.77</ele>
        <time>2015-08-16T09:15:41Z</time>
      </trkpt>
      <trkpt lat="45.884576523676515" lon="7.739242203533649">
        <ele>2122.25</ele>
        <time>2015-08-16T09:15:50Z</time>
      </trkpt>
      <trkpt lat="45.884586414322257" lon="7.739242035895586">
        <ele>2122.25</ele>
        <time>2015-08-16T09:15:51Z</time>
      </trkpt>
      <trkpt lat="45.884651876986027" lon="7.739321999251843">
        <ele>2122.73</ele>
        <time>2015-08-16T09:15:59Z</time>
      </trkpt>
      <trkpt lat="45.884688924998045" lon="7.739389557391405">
        <ele>2123.21</ele>
        <time>2015-08-16T09:16:05Z</time>
      </trkpt>
      <trkpt lat="45.884750364348292" lon="7.739463988691568">
        <ele>2123.6900000000001</ele>
        <time>2015-08-16T09:16:13Z</time>
      </trkpt>
      <trkpt lat="45.884807109832764" lon="7.739548813551664">
        <ele>2124.6500000000001</ele>
        <time>2015-08-16T09:16:22Z</time>
      </trkpt>
      <trkpt lat="45.884847426787019" lon="7.739614611491561">
        <ele>2125.6100000000001</ele>
        <time>2015-08-16T09:16:29Z</time>
      </trkpt>
      <trkpt lat="45.884873913601041" lon="7.739634728059173">
        <ele>2125.6100000000001</ele>
        <time>2015-08-16T09:16:32Z</time>
      </trkpt>
      <trkpt lat="45.884945662692189" lon="7.739700106903911">
        <ele>2126.5700000000002</ele>
        <time>2015-08-16T09:16:41Z</time>
      </trkpt>
      <trkpt lat="45.885047921910882" lon="7.739757187664509">
        <ele>2127.5300000000002</ele>
        <time>2015-08-16T09:16:51Z</time>
      </trkpt>
      <trkpt lat="45.885082958266139" lon="7.739792307838798">
        <ele>2127.5300000000002</ele>
        <time>2015-08-16T09:16:55Z</time>
      </trkpt>
      <trkpt lat="45.885175410658121" lon="7.739842599257827">
        <ele>2128.5</ele>
        <time>2015-08-16T09:17:04Z</time>
      </trkpt>
      <trkpt lat="45.885252691805363" lon="7.739880904555321">
        <ele>2128.98</ele>
        <time>2015-08-16T09:17:13Z</time>
      </trkpt>
      <trkpt lat="45.885302061215043" lon="7.739879731088877">
        <ele>2128.98</ele>
        <time>2015-08-16T09:17:23Z</time>
      </trkpt>
      <trkpt lat="45.885342126712203" lon="7.739905631169677">
        <ele>2130.4200000000001</ele>
        <time>2015-08-16T09:17:30Z</time>
      </trkpt>
      <trkpt lat="45.885369619354606" lon="7.73992239497602">
        <ele>2129.9400000000001</ele>
        <time>2015-08-16T09:17:33Z</time>
      </trkpt>
      <trkpt lat="45.885443715378642" lon="7.7399389911443">
        <ele>2130.9000000000001</ele>
        <time>2015-08-16T09:17:43Z</time>
      </trkpt>
      <trkpt lat="45.885519320145249" lon="7.739959107711911">
        <ele>2130.9000000000001</ele>
        <time>2015-08-16T09:17:52Z</time>
      </trkpt>
      <trkpt lat="45.885527869686484" lon="7.739959191530943">
        <ele>2130.9000000000001</ele>
        <time>2015-08-16T09:17:53Z</time>
      </trkpt>
      <trkpt lat="45.885608503594995" lon="7.740042842924595">
        <ele>2133.3000000000002</ele>
        <time>2015-08-16T09:18:05Z</time>
      </trkpt>
      <trkpt lat="45.885624513030052" lon="7.740049548447132">
        <ele>2133.3000000000002</ele>
        <time>2015-08-16T09:18:07Z</time>
      </trkpt>
      <trkpt lat="45.885677402839065" lon="7.740033706650138">
        <ele>2133.7800000000002</ele>
        <time>2015-08-16T09:18:14Z</time>
      </trkpt>
      <trkpt lat="45.885734986513853" lon="7.740042172372341">
        <ele>2134.2600000000002</ele>
        <time>2015-08-16T09:18:23Z</time>
      </trkpt>
      <trkpt lat="45.885760970413685" lon="7.740016607567668">
        <ele>2135.23</ele>
        <time>2015-08-16T09:18:32Z</time>
      </trkpt>
      <trkpt lat="45.885792402550578" lon="7.740019708871841">
        <ele>2136.6700000000001</ele>
        <time>2015-08-16T09:18:42Z</time>
      </trkpt>
      <trkpt lat="45.885841185227036" lon="7.740033539012075">
        <ele>2138.1100000000001</ele>
        <time>2015-08-16T09:18:52Z</time>
      </trkpt>
      <trkpt lat="45.885898265987635" lon="7.740064635872841">
        <ele>2139.5500000000002</ele>
        <time>2015-08-16T09:19:04Z</time>
      </trkpt>
      <trkpt lat="45.885934811085463" lon="7.740066815167666">
        <ele>2140.9899999999998</ele>
        <time>2015-08-16T09:19:14Z</time>
      </trkpt>
      <trkpt lat="45.885983258485794" lon="7.740076621994376">
        <ele>2141.9499999999998</ele>
        <time>2015-08-16T09:19:25Z</time>
      </trkpt>
      <trkpt lat="45.886055929586291" lon="7.740103946998715">
        <ele>2143.8800000000001</ele>
        <time>2015-08-16T09:19:37Z</time>
      </trkpt>
      <trkpt lat="45.886113429442048" lon="7.740096235647798">
        <ele>2145.3200000000002</ele>
        <time>2015-08-16T09:19:49Z</time>
      </trkpt>
      <trkpt lat="45.886156177148223" lon="7.740082908421755">
        <ele>2146.7600000000002</ele>
        <time>2015-08-16T09:19:59Z</time>
      </trkpt>
      <trkpt lat="45.886175539344549" lon="7.740138815715909">
        <ele>2148.1999999999998</ele>
        <time>2015-08-16T09:20:09Z</time>
      </trkpt>
      <trkpt lat="45.886206133291125" lon="7.74013102054596">
        <ele>2149.1599999999999</ele>
        <time>2015-08-16T09:20:18Z</time>
      </trkpt>
      <trkpt lat="45.886258687824011" lon="7.740183155983686">
        <ele>2150.1300000000001</ele>
        <time>2015-08-16T09:20:30Z</time>
      </trkpt>
      <trkpt lat="45.886311326175928" lon="7.740167314186692">
        <ele>2151.5700000000002</ele>
        <time>2015-08-16T09:20:38Z</time>
      </trkpt>
      <trkpt lat="45.886330856010318" lon="7.740177875384688">
        <ele>2153.0100000000002</ele>
        <time>2015-08-16T09:20:46Z</time>
      </trkpt>
      <trkpt lat="45.886344686150551" lon="7.740212576463819">
        <ele>2153.0100000000002</ele>
        <time>2015-08-16T09:20:55Z</time>
      </trkpt>
      <trkpt lat="45.886396653950214" lon="7.740218359977007">
        <ele>2153.4899999999998</ele>
        <time>2015-08-16T09:21:05Z</time>
      </trkpt>
      <trkpt lat="45.886460691690445" lon="7.74025272578001">
        <ele>2155.4099999999999</ele>
        <time>2015-08-16T09:21:16Z</time>
      </trkpt>
      <trkpt lat="45.886517940089107" lon="7.740271082147956">
        <ele>2156.8600000000001</ele>
        <time>2015-08-16T09:21:28Z</time>
      </trkpt>
      <trkpt lat="45.886582313105464" lon="7.740316512063146">
        <ele>2158.3000000000002</ele>
        <time>2015-08-16T09:21:38Z</time>
      </trkpt>
      <trkpt lat="45.886634616181254" lon="7.740330593660474">
        <ele>2159.2600000000002</ele>
        <time>2015-08-16T09:21:48Z</time>
      </trkpt>
      <trkpt lat="45.886668562889099" lon="7.740358086302877">
        <ele>2160.6999999999998</ele>
        <time>2015-08-16T09:21:57Z</time>
      </trkpt>
      <trkpt lat="45.886718854308128" lon="7.740368228405714">
        <ele>2161.6599999999999</ele>
        <time>2015-08-16T09:22:09Z</time>
      </trkpt>
      <trkpt lat="45.886787585914135" lon="7.74039002135396">
        <ele>2163.0999999999999</ele>
        <time>2015-08-16T09:22:21Z</time>
      </trkpt>
      <trkpt lat="45.88683863170445" lon="7.74033478461206">
        <ele>2164.5500000000002</ele>
        <time>2015-08-16T09:22:33Z</time>
      </trkpt>
      <trkpt lat="45.88687282986939" lon="7.740389099344611">
        <ele>2166.4699999999998</ele>
        <time>2015-08-16T09:22:44Z</time>
      </trkpt>
      <trkpt lat="45.88694466277957" lon="7.740463530644774">
        <ele>2166.9499999999998</ele>
        <time>2015-08-16T09:22:56Z</time>
      </trkpt>
      <trkpt lat="45.886995540931821" lon="7.74048138409853">
        <ele>2168.3899999999999</ele>
        <time>2015-08-16T09:23:07Z</time>
      </trkpt>
      <trkpt lat="45.887028397992253" lon="7.740496722981334">
        <ele>2169.8299999999999</ele>
        <time>2015-08-16T09:23:18Z</time>
      </trkpt>
      <trkpt lat="45.887060668319464" lon="7.740509212017059">
        <ele>2171.7600000000002</ele>
        <time>2015-08-16T09:23:29Z</time>
      </trkpt>
      <trkpt lat="45.887101236730814" lon="7.74048532359302">
        <ele>2173.6799999999998</ele>
        <time>2015-08-16T09:23:40Z</time>
      </trkpt>
      <trkpt lat="45.887153623625636" lon="7.740497728809714">
        <ele>2174.6399999999999</ele>
        <time>2015-08-16T09:23:51Z</time>
      </trkpt>
      <trkpt lat="45.887200646102428" lon="7.740478282794356">
        <ele>2176.0799999999999</ele>
        <time>2015-08-16T09:24:01Z</time>
      </trkpt>
      <trkpt lat="45.88721145875752" lon="7.740500243380666">
        <ele>2177.52</ele>
        <time>2015-08-16T09:24:10Z</time>
      </trkpt>
      <trkpt lat="45.88724859058857" lon="7.740523461252451">
        <ele>2178.9699999999998</ele>
        <time>2015-08-16T09:24:21Z</time>
      </trkpt>
      <trkpt lat="45.887296283617616" lon="7.740539386868477">
        <ele>2179.9299999999998</ele>
        <time>2015-08-16T09:24:29Z</time>
      </trkpt>
      <trkpt lat="45.887364344671369" lon="7.740584565326572">
        <ele>2180.8899999999999</ele>
        <time>2015-08-16T09:24:40Z</time>
      </trkpt>
      <trkpt lat="45.887392675504088" lon="7.740632761269808">
        <ele>2182.3299999999999</ele>
        <time>2015-08-16T09:24:49Z</time>
      </trkpt>
      <trkpt lat="45.887438943609595" lon="7.74065438657999">
        <ele>2183.77</ele>
        <time>2015-08-16T09:25:00Z</time>
      </trkpt>
      <trkpt lat="45.887502310797572" lon="7.74065287783742">
        <ele>2185.21</ele>
        <time>2015-08-16T09:25:12Z</time>
      </trkpt>
      <trkpt lat="45.887569366022944" lon="7.740653799846768">
        <ele>2186.6599999999999</ele>
        <time>2015-08-16T09:25:22Z</time>
      </trkpt>
      <trkpt lat="45.887622926384211" lon="7.740707276389003">
        <ele>2186.6599999999999</ele>
        <time>2015-08-16T09:25:30Z</time>
      </trkpt>
      <trkpt lat="45.887655196711421" lon="7.740711467340589">
        <ele>2186.6599999999999</ele>
        <time>2015-08-16T09:25:33Z</time>
      </trkpt>
      <trkpt lat="45.887708505615592" lon="7.74074818007648">
        <ele>2187.1399999999999</ele>
        <time>2015-08-16T09:25:44Z</time>
      </trkpt>
      <trkpt lat="45.887719737365842" lon="7.740784389898181">
        <ele>2187.1399999999999</ele>
        <time>2015-08-16T09:25:55Z</time>
      </trkpt>
      <trkpt lat="45.887726945802569" lon="7.740801824256778">
        <ele>2187.1399999999999</ele>
        <time>2015-08-16T09:26:17Z</time>
      </trkpt>
      <trkpt lat="45.887724598869681" lon="7.740831160917878">
        <ele>2186.6599999999999</ele>
        <time>2015-08-16T09:26:36Z</time>
      </trkpt>
      <trkpt lat="45.88774505071342" lon="7.740841973572969">
        <ele>2186.6599999999999</ele>
        <time>2015-08-16T09:26:54Z</time>
      </trkpt>
      <trkpt lat="45.887740021571517" lon="7.740857983008027">
        <ele>2186.6599999999999</ele>
        <time>2015-08-16T09:27:20Z</time>
      </trkpt>
      <trkpt lat="45.887727364897728" lon="7.740857480093837">
        <ele>2186.6599999999999</ele>
        <time>2015-08-16T09:27:41Z</time>
      </trkpt>
      <trkpt lat="45.887762485072017" lon="7.740801321342588">
        <ele>2187.1399999999999</ele>
        <time>2015-08-16T09:27:50Z</time>
      </trkpt>
      <trkpt lat="45.88782761245966" lon="7.740790005773306">
        <ele>2189.0599999999999</ele>
        <time>2015-08-16T09:28:04Z</time>
      </trkpt>
      <trkpt lat="45.887892236933112" lon="7.740800902247429">
        <ele>2190.5</ele>
        <time>2015-08-16T09:28:15Z</time>
      </trkpt>
      <trkpt lat="45.887935822829604" lon="7.74077894166112">
        <ele>2192.4200000000001</ele>
        <time>2015-08-16T09:28:24Z</time>
      </trkpt>
      <trkpt lat="45.887983767315745" lon="7.740812385454774">
        <ele>2193.8699999999999</ele>
        <time>2015-08-16T09:28:35Z</time>
      </trkpt>
      <trkpt lat="45.888033891096711" lon="7.74080635048449">
        <ele>2195.79</ele>
        <time>2015-08-16T09:28:47Z</time>
      </trkpt>
      <trkpt lat="45.88806658051908" lon="7.740807440131903">
        <ele>2197.71</ele>
        <time>2015-08-16T09:28:57Z</time>
      </trkpt>
      <trkpt lat="45.888119470328093" lon="7.740816827863455">
        <ele>2198.1900000000001</ele>
        <time>2015-08-16T09:29:06Z</time>
      </trkpt>
      <trkpt lat="45.888136569410563" lon="7.740830238908529">
        <ele>2198.1900000000001</ele>
        <time>2015-08-16T09:29:09Z</time>
      </trkpt>
      <trkpt lat="45.888175712898374" lon="7.740877429023385">
        <ele>2198.6700000000001</ele>
        <time>2015-08-16T09:29:20Z</time>
      </trkpt>
      <trkpt lat="45.888241846114397" lon="7.740927133709192">
        <ele>2200.1100000000001</ele>
        <time>2015-08-16T09:29:31Z</time>
      </trkpt>
      <trkpt lat="45.88831527158618" lon="7.740961918607354">
        <ele>2200.1100000000001</ele>
        <time>2015-08-16T09:29:42Z</time>
      </trkpt>
      <trkpt lat="45.888347122818232" lon="7.740995027124882">
        <ele>2200.5900000000001</ele>
        <time>2015-08-16T09:29:51Z</time>
      </trkpt>
      <trkpt lat="45.888393726199865" lon="7.740995613858104">
        <ele>2201.5599999999999</ele>
        <time>2015-08-16T09:30:00Z</time>
      </trkpt>
      <trkpt lat="45.888408645987511" lon="7.740997290238738">
        <ele>2201.5599999999999</ele>
        <time>2015-08-16T09:30:02Z</time>
      </trkpt>
      <trkpt lat="45.888500679284334" lon="7.741069793701172">
        <ele>2202.04</ele>
        <time>2015-08-16T09:30:14Z</time>
      </trkpt>
      <trkpt lat="45.888572763651609" lon="7.741126623004675">
        <ele>2203</ele>
        <time>2015-08-16T09:30:25Z</time>
      </trkpt>
      <trkpt lat="45.888599501922727" lon="7.741124359890819">
        <ele>2204.4400000000001</ele>
        <time>2015-08-16T09:30:33Z</time>
      </trkpt>
      <trkpt lat="45.888644512742758" lon="7.741141123697162">
        <ele>2205.8800000000001</ele>
        <time>2015-08-16T09:30:43Z</time>
      </trkpt>
      <trkpt lat="45.888679130002856" lon="7.741144392639399">
        <ele>2207.8099999999999</ele>
        <time>2015-08-16T09:30:52Z</time>
      </trkpt>
      <trkpt lat="45.888736546039581" lon="7.741117989644408">
        <ele>2208.77</ele>
        <time>2015-08-16T09:31:00Z</time>
      </trkpt>
      <trkpt lat="45.888804523274302" lon="7.741150092333555">
        <ele>2209.73</ele>
        <time>2015-08-16T09:31:09Z</time>
      </trkpt>
      <trkpt lat="45.888830842450261" lon="7.741155121475458">
        <ele>2209.73</ele>
        <time>2015-08-16T09:31:12Z</time>
      </trkpt>
      <trkpt lat="45.888860011473298" lon="7.741180351004005">
        <ele>2210.6900000000001</ele>
        <time>2015-08-16T09:31:16Z</time>
      </trkpt>
      <trkpt lat="45.888958079740405" lon="7.741242377087474">
        <ele>2211.1700000000001</ele>
        <time>2015-08-16T09:31:27Z</time>
      </trkpt>
      <trkpt lat="45.88899152353406" lon="7.741290656849742">
        <ele>2210.6900000000001</ele>
        <time>2015-08-16T09:31:32Z</time>
      </trkpt>
      <trkpt lat="45.889058411121368" lon="7.741397190839052">
        <ele>2209.73</ele>
        <time>2015-08-16T09:31:41Z</time>
      </trkpt>
      <trkpt lat="45.889070648699999" lon="7.741427952423692">
        <ele>2209.73</ele>
        <time>2015-08-16T09:31:44Z</time>
      </trkpt>
      <trkpt lat="45.889104679226875" lon="7.741492157801986">
        <ele>2209.73</ele>
        <time>2015-08-16T09:31:51Z</time>
      </trkpt>
      <trkpt lat="45.889125717803836" lon="7.741502886638045">
        <ele>2209.73</ele>
        <time>2015-08-16T09:31:53Z</time>
      </trkpt>
      <trkpt lat="45.889197885990143" lon="7.741530546918511">
        <ele>2211.1700000000001</ele>
        <time>2015-08-16T09:32:03Z</time>
      </trkpt>
      <trkpt lat="45.889255721122026" lon="7.741563403978944">
        <ele>2212.1300000000001</ele>
        <time>2015-08-16T09:32:12Z</time>
      </trkpt>
      <trkpt lat="45.88933601975441" lon="7.741606654599309">
        <ele>2213.5700000000002</ele>
        <time>2015-08-16T09:32:24Z</time>
      </trkpt>
      <trkpt lat="45.889391591772437" lon="7.741618892177939">
        <ele>2215.0100000000002</ele>
        <time>2015-08-16T09:32:33Z</time>
      </trkpt>
      <trkpt lat="45.889486810192466" lon="7.741619227454066">
        <ele>2215.0100000000002</ele>
        <time>2015-08-16T09:32:43Z</time>
      </trkpt>
      <trkpt lat="45.889505753293633" lon="7.741627441719174">
        <ele>2215.0100000000002</ele>
        <time>2015-08-16T09:32:45Z</time>
      </trkpt>
      <trkpt lat="45.889528719708323" lon="7.741642948240042">
        <ele>2216.46</ele>
        <time>2015-08-16T09:32:48Z</time>
      </trkpt>
      <trkpt lat="45.88957984931767" lon="7.741638757288456">
        <ele>2216.9400000000001</ele>
        <time>2015-08-16T09:32:59Z</time>
      </trkpt>
      <trkpt lat="45.889619998633862" lon="7.74164873175323">
        <ele>2219.3400000000001</ele>
        <time>2015-08-16T09:33:10Z</time>
      </trkpt>
      <trkpt lat="45.889639779925346" lon="7.74168343283236">
        <ele>2220.7800000000002</ele>
        <time>2015-08-16T09:33:19Z</time>
      </trkpt>
      <trkpt lat="45.889690825715661" lon="7.741731964051724">
        <ele>2222.71</ele>
        <time>2015-08-16T09:33:30Z</time>
      </trkpt>
      <trkpt lat="45.889736674726009" lon="7.741765407845378">
        <ele>2224.1500000000001</ele>
        <time>2015-08-16T09:33:40Z</time>
      </trkpt>
      <trkpt lat="45.889795096591115" lon="7.741779405623674">
        <ele>2225.5900000000001</ele>
        <time>2015-08-16T09:33:51Z</time>
      </trkpt>
      <trkpt lat="45.88982610963285" lon="7.741838414222002">
        <ele>2227.5100000000002</ele>
        <time>2015-08-16T09:34:02Z</time>
      </trkpt>
      <trkpt lat="45.8898701146245" lon="7.74189013056457">
        <ele>2229.4299999999998</ele>
        <time>2015-08-16T09:34:14Z</time>
      </trkpt>
      <trkpt lat="45.88993507437408" lon="7.741901110857725">
        <ele>2230.8800000000001</ele>
        <time>2015-08-16T09:34:27Z</time>
      </trkpt>
      <trkpt lat="45.889986539259553" lon="7.741937739774585">
        <ele>2232.8000000000002</ele>
        <time>2015-08-16T09:34:38Z</time>
      </trkpt>
      <trkpt lat="45.890057450160384" lon="7.742013093084097">
        <ele>2234.7199999999998</ele>
        <time>2015-08-16T09:34:52Z</time>
      </trkpt>
      <trkpt lat="45.890063233673573" lon="7.742037987336516">
        <ele>2233.7600000000002</ele>
        <time>2015-08-16T09:35:01Z</time>
      </trkpt>
      <trkpt lat="45.89005284011364" lon="7.742025582119823">
        <ele>2233.2800000000002</ele>
        <time>2015-08-16T09:35:15Z</time>
      </trkpt>
      <trkpt lat="45.890066837891936" lon="7.742049722000957">
        <ele>2232.8000000000002</ele>
        <time>2015-08-16T09:35:33Z</time>
      </trkpt>
      <trkpt lat="45.890061222016811" lon="7.742048548534513">
        <ele>2232.8000000000002</ele>
        <time>2015-08-16T09:35:41Z</time>
      </trkpt>
      <trkpt lat="45.890051918104291" lon="7.742022313177586">
        <ele>2233.7600000000002</ele>
        <time>2015-08-16T09:35:50Z</time>
      </trkpt>
      <trkpt lat="45.890081422403455" lon="7.74199758656323">
        <ele>2233.7600000000002</ele>
        <time>2015-08-16T09:36:11Z</time>
      </trkpt>
      <trkpt lat="45.890091145411134" lon="7.742026755586267">
        <ele>2233.2800000000002</ele>
        <time>2015-08-16T09:36:32Z</time>
      </trkpt>
      <trkpt lat="45.890151578933001" lon="7.742076208814979">
        <ele>2234.2399999999998</ele>
        <time>2015-08-16T09:36:42Z</time>
      </trkpt>
      <trkpt lat="45.89017353951931" lon="7.74211342446506">
        <ele>2236.6399999999999</ele>
        <time>2015-08-16T09:36:50Z</time>
      </trkpt>
      <trkpt lat="45.890243444591761" lon="7.74216522462666">
        <ele>2236.6399999999999</ele>
        <time>2015-08-16T09:37:01Z</time>
      </trkpt>
      <trkpt lat="45.890234895050526" lon="7.742175618186593">
        <ele>2236.6399999999999</ele>
        <time>2015-08-16T09:37:12Z</time>
      </trkpt>
      <trkpt lat="45.890238750725985" lon="7.742156507447362">
        <ele>2236.6399999999999</ele>
        <time>2015-08-16T09:37:27Z</time>
      </trkpt>
      <trkpt lat="45.890235733240843" lon="7.742167320102453">
        <ele>2236.6399999999999</ele>
        <time>2015-08-16T09:37:44Z</time>
      </trkpt>
      <trkpt lat="45.890225255861878" lon="7.742138989269733">
        <ele>2236.1599999999999</ele>
        <time>2015-08-16T09:38:00Z</time>
      </trkpt>
      <trkpt lat="45.89022483676672" lon="7.742159105837345">
        <ele>2236.6399999999999</ele>
        <time>2015-08-16T09:38:17Z</time>
      </trkpt>
      <trkpt lat="45.890208072960377" lon="7.742190957069397">
        <ele>2236.1599999999999</ele>
        <time>2015-08-16T09:38:28Z</time>
      </trkpt>
      <trkpt lat="45.890228189527988" lon="7.742213839665055">
        <ele>2235.6799999999998</ele>
        <time>2015-08-16T09:38:47Z</time>
      </trkpt>
      <trkpt lat="45.890269847586751" lon="7.742283325642347">
        <ele>2237.1300000000001</ele>
        <time>2015-08-16T09:38:59Z</time>
      </trkpt>
      <trkpt lat="45.890245623886585" lon="7.74232448078692">
        <ele>2237.1300000000001</ele>
        <time>2015-08-16T09:39:15Z</time>
      </trkpt>
      <trkpt lat="45.890248389914632" lon="7.742380555719137">
        <ele>2237.1300000000001</ele>
        <time>2015-08-16T09:39:20Z</time>
      </trkpt>
      <trkpt lat="45.890239924192429" lon="7.742489520460367">
        <ele>2238.0900000000001</ele>
        <time>2015-08-16T09:39:31Z</time>
      </trkpt>
      <trkpt lat="45.890229614451528" lon="7.742478623986244">
        <ele>2238.5700000000002</ele>
        <time>2015-08-16T09:39:43Z</time>
      </trkpt>
      <trkpt lat="45.890252580866218" lon="7.742494801059365">
        <ele>2238.5700000000002</ele>
        <time>2015-08-16T09:39:51Z</time>
      </trkpt>
      <trkpt lat="45.890312008559704" lon="7.742613656446338">
        <ele>2239.0500000000002</ele>
        <time>2015-08-16T09:40:03Z</time>
      </trkpt>
      <trkpt lat="45.890322318300605" lon="7.742622792720795">
        <ele>2239.0500000000002</ele>
        <time>2015-08-16T09:40:05Z</time>
      </trkpt>
      <trkpt lat="45.890375711023808" lon="7.742595970630646">
        <ele>2238.5700000000002</ele>
        <time>2015-08-16T09:40:16Z</time>
      </trkpt>
      <trkpt lat="45.890355175361037" lon="7.742630839347839">
        <ele>2238.5700000000002</ele>
        <time>2015-08-16T09:40:31Z</time>
      </trkpt>
      <trkpt lat="45.890356181189418" lon="7.742639975622296">
        <ele>2238.5700000000002</ele>
        <time>2015-08-16T09:40:41Z</time>
      </trkpt>
      <trkpt lat="45.890362216159701" lon="7.742662271484733">
        <ele>2239.0500000000002</ele>
        <time>2015-08-16T09:41:01Z</time>
      </trkpt>
      <trkpt lat="45.890360120683908" lon="7.742699990049005">
        <ele>2239.0500000000002</ele>
        <time>2015-08-16T09:41:04Z</time>
      </trkpt>
      <trkpt lat="45.890369089320302" lon="7.742763860151172">
        <ele>2239.0500000000002</ele>
        <time>2015-08-16T09:41:08Z</time>
      </trkpt>
      <trkpt lat="45.890421476215124" lon="7.742840303108096">
        <ele>2239.0500000000002</ele>
        <time>2015-08-16T09:41:18Z</time>
      </trkpt>
      <trkpt lat="45.890407646074891" lon="7.742840135470033">
        <ele>2239.0500000000002</ele>
        <time>2015-08-16T09:41:28Z</time>
      </trkpt>
      <trkpt lat="45.890413429588079" lon="7.742895036935806">
        <ele>2239.0500000000002</ele>
        <time>2015-08-16T09:41:43Z</time>
      </trkpt>
      <trkpt lat="45.890445616096258" lon="7.742940634489059">
        <ele>2238.5700000000002</ele>
        <time>2015-08-16T09:41:50Z</time>
      </trkpt>
      <trkpt lat="45.890474785119295" lon="7.743052113801241">
        <ele>2238.5700000000002</ele>
        <time>2015-08-16T09:41:58Z</time>
      </trkpt>
      <trkpt lat="45.890481574460864" lon="7.743110368028283">
        <ele>2238.5700000000002</ele>
        <time>2015-08-16T09:42:02Z</time>
      </trkpt>
      <trkpt lat="45.890472773462534" lon="7.743228636682034">
        <ele>2239.0500000000002</ele>
        <time>2015-08-16T09:42:12Z</time>
      </trkpt>
      <trkpt lat="45.890455171465874" lon="7.743341121822596">
        <ele>2240.9699999999998</ele>
        <time>2015-08-16T09:42:23Z</time>
      </trkpt>
      <trkpt lat="45.890429522842169" lon="7.743343887850642">
        <ele>2240.9699999999998</ele>
        <time>2015-08-16T09:42:30Z</time>
      </trkpt>
      <trkpt lat="45.890433378517628" lon="7.743295021355152">
        <ele>2240.4899999999998</ele>
        <time>2015-08-16T09:42:48Z</time>
      </trkpt>
      <trkpt lat="45.890450226143003" lon="7.74329099804163">
        <ele>2240.4899999999998</ele>
        <time>2015-08-16T09:43:00Z</time>
      </trkpt>
      <trkpt lat="45.890476126223803" lon="7.743329973891377">
        <ele>2240.4899999999998</ele>
        <time>2015-08-16T09:43:12Z</time>
      </trkpt>
      <trkpt lat="45.890478389337659" lon="7.743344642221928">
        <ele>2240.4899999999998</ele>
        <time>2015-08-16T09:43:27Z</time>
      </trkpt>
      <trkpt lat="45.890467660501599" lon="7.743366686627269">
        <ele>2240.0100000000002</ele>
        <time>2015-08-16T09:43:39Z</time>
      </trkpt>
      <trkpt lat="45.890461625531316" lon="7.743373895063996">
        <ele>2240.0100000000002</ele>
        <time>2015-08-16T09:43:58Z</time>
      </trkpt>
      <trkpt lat="45.890474785119295" lon="7.743410272523761">
        <ele>2239.5300000000002</ele>
        <time>2015-08-16T09:44:21Z</time>
      </trkpt>
      <trkpt lat="45.890466822311282" lon="7.743428964167833">
        <ele>2239.0500000000002</ele>
        <time>2015-08-16T09:44:24Z</time>
      </trkpt>
      <trkpt lat="45.890452237799764" lon="7.743491157889366">
        <ele>2239.0500000000002</ele>
        <time>2015-08-16T09:44:30Z</time>
      </trkpt>
      <trkpt lat="45.89046229608357" lon="7.743543460965157">
        <ele>2239.0500000000002</ele>
        <time>2015-08-16T09:44:35Z</time>
      </trkpt>
      <trkpt lat="45.890462715178728" lon="7.743622334674001">
        <ele>2238.5700000000002</ele>
        <time>2015-08-16T09:44:42Z</time>
      </trkpt>
      <trkpt lat="45.890435976907611" lon="7.743630046024919">
        <ele>2238.5700000000002</ele>
        <time>2015-08-16T09:44:45Z</time>
      </trkpt>
      <trkpt lat="45.890422984957695" lon="7.743670446798205">
        <ele>2239.0500000000002</ele>
        <time>2015-08-16T09:44:49Z</time>
      </trkpt>
      <trkpt lat="45.890405969694257" lon="7.743747811764479">
        <ele>2240.4899999999998</ele>
        <time>2015-08-16T09:44:55Z</time>
      </trkpt>
      <trkpt lat="45.890370346605778" lon="7.743915701285005">
        <ele>2237.6100000000001</ele>
        <time>2015-08-16T09:45:07Z</time>
      </trkpt>
      <trkpt lat="45.890380069613457" lon="7.743977392092347">
        <ele>2239.0500000000002</ele>
        <time>2015-08-16T09:45:13Z</time>
      </trkpt>
      <trkpt lat="45.890386188402772" lon="7.744096079841256">
        <ele>2241.4499999999998</ele>
        <time>2015-08-16T09:45:24Z</time>
      </trkpt>
      <trkpt lat="45.89036213234067" lon="7.7442267537117">
        <ele>2242.8899999999999</ele>
        <time>2015-08-16T09:45:35Z</time>
      </trkpt>
      <trkpt lat="45.890350230038166" lon="7.744323397055268">
        <ele>2244.3299999999999</ele>
        <time>2015-08-16T09:45:45Z</time>
      </trkpt>
      <trkpt lat="45.890321228653193" lon="7.744482066482306">
        <ele>2245.7800000000002</ele>
        <time>2015-08-16T09:45:57Z</time>
      </trkpt>
      <trkpt lat="45.890300692990422" lon="7.744534453377128">
        <ele>2245.7800000000002</ele>
        <time>2015-08-16T09:46:08Z</time>
      </trkpt>
      <trkpt lat="45.890249647200108" lon="7.744685914367437">
        <ele>2246.7399999999998</ele>
        <time>2015-08-16T09:46:21Z</time>
      </trkpt>
      <trkpt lat="45.890232883393764" lon="7.744757160544395">
        <ele>2248.1799999999998</ele>
        <time>2015-08-16T09:46:29Z</time>
      </trkpt>
      <trkpt lat="45.890162643045187" lon="7.744899149984121">
        <ele>2247.2199999999998</ele>
        <time>2015-08-16T09:46:41Z</time>
      </trkpt>
      <trkpt lat="45.890148226171732" lon="7.74502512998879">
        <ele>2248.6599999999999</ele>
        <time>2015-08-16T09:46:52Z</time>
      </trkpt>
      <trkpt lat="45.890131210908294" lon="7.74515219964087">
        <ele>2250.0999999999999</ele>
        <time>2015-08-16T09:47:04Z</time>
      </trkpt>
      <trkpt lat="45.890098856762052" lon="7.745215985924006">
        <ele>2251.54</ele>
        <time>2015-08-16T09:47:13Z</time>
      </trkpt>
      <trkpt lat="45.890042865648866" lon="7.745305923745036">
        <ele>2252.9899999999998</ele>
        <time>2015-08-16T09:47:24Z</time>
      </trkpt>
      <trkpt lat="45.890042446553707" lon="7.745369290933013">
        <ele>2253.9499999999998</ele>
        <time>2015-08-16T09:47:34Z</time>
      </trkpt>
      <trkpt lat="45.889994837343693" lon="7.745448751375079">
        <ele>2254.9099999999999</ele>
        <time>2015-08-16T09:47:45Z</time>
      </trkpt>
      <trkpt lat="45.889963237568736" lon="7.745522344484925">
        <ele>2254.9099999999999</ele>
        <time>2015-08-16T09:47:57Z</time>
      </trkpt>
      <trkpt lat="45.889957956969738" lon="7.745562577620149">
        <ele>2257.79</ele>
        <time>2015-08-16T09:48:04Z</time>
      </trkpt>
      <trkpt lat="45.889937169849873" lon="7.745645139366388">
        <ele>2259.7199999999998</ele>
        <time>2015-08-16T09:48:15Z</time>
      </trkpt>
      <trkpt lat="45.889901798218489" lon="7.745703728869557">
        <ele>2261.1599999999999</ele>
        <time>2015-08-16T09:48:26Z</time>
      </trkpt>
      <trkpt lat="45.889874389395118" lon="7.745788050815463">
        <ele>2261.1599999999999</ele>
        <time>2015-08-16T09:48:36Z</time>
      </trkpt>
      <trkpt lat="45.889871455729008" lon="7.745828535407782">
        <ele>2264.04</ele>
        <time>2015-08-16T09:48:43Z</time>
      </trkpt>
      <trkpt lat="45.889804987236857" lon="7.745897602289915">
        <ele>2265</ele>
        <time>2015-08-16T09:48:54Z</time>
      </trkpt>
      <trkpt lat="45.889797443524003" lon="7.745942864567041">
        <ele>2265.96</ele>
        <time>2015-08-16T09:49:04Z</time>
      </trkpt>
      <trkpt lat="45.889785792678595" lon="7.746024085208774">
        <ele>2267.8899999999999</ele>
        <time>2015-08-16T09:49:16Z</time>
      </trkpt>
      <trkpt lat="45.889742206782103" lon="7.746102372184396">
        <ele>2269.3299999999999</ele>
        <time>2015-08-16T09:49:27Z</time>
      </trkpt>
      <trkpt lat="45.889732735231519" lon="7.746149310842156">
        <ele>2270.29</ele>
        <time>2015-08-16T09:49:36Z</time>
      </trkpt>
      <trkpt lat="45.889675822108984" lon="7.746209912002087">
        <ele>2271.73</ele>
        <time>2015-08-16T09:49:46Z</time>
      </trkpt>
      <trkpt lat="45.889654951170087" lon="7.746255090460181">
        <ele>2273.1700000000001</ele>
        <time>2015-08-16T09:49:54Z</time>
      </trkpt>
      <trkpt lat="45.889564175158739" lon="7.746341759338975">
        <ele>2273.6599999999999</ele>
        <time>2015-08-16T09:50:05Z</time>
      </trkpt>
      <trkpt lat="45.889550093561411" lon="7.746363133192062">
        <ele>2273.6599999999999</ele>
        <time>2015-08-16T09:50:07Z</time>
      </trkpt>
      <trkpt lat="45.889508267864585" lon="7.746508978307247">
        <ele>2274.6199999999999</ele>
        <time>2015-08-16T09:50:18Z</time>
      </trkpt>
      <trkpt lat="45.889495108276606" lon="7.74658340960741">
        <ele>2274.6199999999999</ele>
        <time>2015-08-16T09:50:25Z</time>
      </trkpt>
      <trkpt lat="45.889369715005159" lon="7.746653482317925">
        <ele>2274.1399999999999</ele>
        <time>2015-08-16T09:50:38Z</time>
      </trkpt>
      <trkpt lat="45.889329481869936" lon="7.746667563915253">
        <ele>2273.6599999999999</ele>
        <time>2015-08-16T09:50:42Z</time>
      </trkpt>
      <trkpt lat="45.889197885990143" lon="7.746635880321264">
        <ele>2273.6599999999999</ele>
        <time>2015-08-16T09:50:53Z</time>
      </trkpt>
      <trkpt lat="45.889073247089982" lon="7.746646944433451">
        <ele>2274.1399999999999</ele>
        <time>2015-08-16T09:51:05Z</time>
      </trkpt>
      <trkpt lat="45.888973921537399" lon="7.74665717035532">
        <ele>2273.6599999999999</ele>
        <time>2015-08-16T09:51:14Z</time>
      </trkpt>
      <trkpt lat="45.888859508559108" lon="7.746785497292876">
        <ele>2273.1700000000001</ele>
        <time>2015-08-16T09:51:27Z</time>
      </trkpt>
      <trkpt lat="45.888823131099343" lon="7.746743923053145">
        <ele>2272.21</ele>
        <time>2015-08-16T09:51:32Z</time>
      </trkpt>
      <trkpt lat="45.888798153027892" lon="7.746720118448138">
        <ele>2272.21</ele>
        <time>2015-08-16T09:51:36Z</time>
      </trkpt>
      <trkpt lat="45.88863973505795" lon="7.746736044064164">
        <ele>2271.25</ele>
        <time>2015-08-16T09:51:50Z</time>
      </trkpt>
      <trkpt lat="45.888548456132412" lon="7.746804188936949">
        <ele>2271.73</ele>
        <time>2015-08-16T09:52:00Z</time>
      </trkpt>
      <trkpt lat="45.888542085886002" lon="7.746837381273508">
        <ele>2272.21</ele>
        <time>2015-08-16T09:52:03Z</time>
      </trkpt>
      <trkpt lat="45.888548623770475" lon="7.746867639943957">
        <ele>2272.21</ele>
        <time>2015-08-16T09:52:05Z</time>
      </trkpt>
      <trkpt lat="45.888581145554781" lon="7.746999152004719">
        <ele>2273.6599999999999</ele>
        <time>2015-08-16T09:52:17Z</time>
      </trkpt>
      <trkpt lat="45.888593383133411" lon="7.747044414281845">
        <ele>2273.6599999999999</ele>
        <time>2015-08-16T09:52:20Z</time>
      </trkpt>
      <trkpt lat="45.88860310614109" lon="7.747168801724911">
        <ele>2275.0999999999999</ele>
        <time>2015-08-16T09:52:31Z</time>
      </trkpt>
      <trkpt lat="45.888634957373142" lon="7.747264187783003">
        <ele>2277.5</ele>
        <time>2015-08-16T09:52:42Z</time>
      </trkpt>
      <trkpt lat="45.888722632080317" lon="7.747346917167306">
        <ele>2278.9400000000001</ele>
        <time>2015-08-16T09:52:54Z</time>
      </trkpt>
      <trkpt lat="45.888799158856273" lon="7.747443644329906">
        <ele>2278.46</ele>
        <time>2015-08-16T09:53:04Z</time>
      </trkpt>
      <trkpt lat="45.888819359242916" lon="7.747518494725227">
        <ele>2277.98</ele>
        <time>2015-08-16T09:53:13Z</time>
      </trkpt>
      <trkpt lat="45.888818688690662" lon="7.747538276016712">
        <ele>2277.98</ele>
        <time>2015-08-16T09:53:15Z</time>
      </trkpt>
      <trkpt lat="45.888753728941083" lon="7.747612958773971">
        <ele>2278.46</ele>
        <time>2015-08-16T09:53:27Z</time>
      </trkpt>
      <trkpt lat="45.888744927942753" lon="7.747681187465787">
        <ele>2279.4200000000001</ele>
        <time>2015-08-16T09:53:38Z</time>
      </trkpt>
      <trkpt lat="45.888746855780482" lon="7.747692922130227">
        <ele>2279.9000000000001</ele>
        <time>2015-08-16T09:53:39Z</time>
      </trkpt>
      <trkpt lat="45.888758841902018" lon="7.747812028974295">
        <ele>2280.3800000000001</ele>
        <time>2015-08-16T09:53:49Z</time>
      </trkpt>
      <trkpt lat="45.888739060610533" lon="7.747918646782637">
        <ele>2281.8299999999999</ele>
        <time>2015-08-16T09:54:01Z</time>
      </trkpt>
      <trkpt lat="45.888765044510365" lon="7.747965501621366">
        <ele>2282.3099999999999</ele>
        <time>2015-08-16T09:54:06Z</time>
      </trkpt>
      <trkpt lat="45.888760769739747" lon="7.748083602637053">
        <ele>2284.23</ele>
        <time>2015-08-16T09:54:19Z</time>
      </trkpt>
      <trkpt lat="45.888759596273303" lon="7.748167673125863">
        <ele>2286.1500000000001</ele>
        <time>2015-08-16T09:54:32Z</time>
      </trkpt>
      <trkpt lat="45.888787675648928" lon="7.74824570864439">
        <ele>2287.5900000000001</ele>
        <time>2015-08-16T09:54:43Z</time>
      </trkpt>
      <trkpt lat="45.8887545671314" lon="7.748295580968261">
        <ele>2289.52</ele>
        <time>2015-08-16T09:54:55Z</time>
      </trkpt>
      <trkpt lat="45.888721961528063" lon="7.748333886265755">
        <ele>2290.48</ele>
        <time>2015-08-16T09:55:04Z</time>
      </trkpt>
      <trkpt lat="45.888674352318048" lon="7.748346207663417">
        <ele>2292.4000000000001</ele>
        <time>2015-08-16T09:55:14Z</time>
      </trkpt>
      <trkpt lat="45.888601262122393" lon="7.748355008661747">
        <ele>2294.3200000000002</ele>
        <time>2015-08-16T09:55:27Z</time>
      </trkpt>
      <trkpt lat="45.888599837198853" lon="7.748424159362912">
        <ele>2295.77</ele>
        <time>2015-08-16T09:55:38Z</time>
      </trkpt>
      <trkpt lat="45.888673765584826" lon="7.748504625633359">
        <ele>2296.25</ele>
        <time>2015-08-16T09:55:51Z</time>
      </trkpt>
      <trkpt lat="45.888722129166126" lon="7.748548295348883">
        <ele>2297.6900000000001</ele>
        <time>2015-08-16T09:56:02Z</time>
      </trkpt>
      <trkpt lat="45.888747107237577" lon="7.748529352247715">
        <ele>2299.1300000000001</ele>
        <time>2015-08-16T09:56:12Z</time>
      </trkpt>
      <trkpt lat="45.888790274038911" lon="7.748554162681103">
        <ele>2301.5300000000002</ele>
        <time>2015-08-16T09:56:23Z</time>
      </trkpt>
      <trkpt lat="45.888827657327056" lon="7.748608309775591">
        <ele>2302.98</ele>
        <time>2015-08-16T09:56:33Z</time>
      </trkpt>
      <trkpt lat="45.888851294294" lon="7.748622726649046">
        <ele>2302.4899999999998</ele>
        <time>2015-08-16T09:56:46Z</time>
      </trkpt>
      <trkpt lat="45.888866800814867" lon="7.74863270111382">
        <ele>2303.9400000000001</ele>
        <time>2015-08-16T09:56:59Z</time>
      </trkpt>
      <trkpt lat="45.888929413631558" lon="7.748691625893116">
        <ele>2305.8600000000001</ele>
        <time>2015-08-16T09:57:10Z</time>
      </trkpt>
      <trkpt lat="45.888982219621539" lon="7.748730853199959">
        <ele>2306.3400000000001</ele>
        <time>2015-08-16T09:57:18Z</time>
      </trkpt>
      <trkpt lat="45.889019686728716" lon="7.74879053235054">
        <ele>2307.7800000000002</ele>
        <time>2015-08-16T09:57:30Z</time>
      </trkpt>
      <trkpt lat="45.889043910428882" lon="7.748783743008971">
        <ele>2308.2600000000002</ele>
        <time>2015-08-16T09:57:51Z</time>
      </trkpt>
      <trkpt lat="45.889050113037229" lon="7.748793382197619">
        <ele>2307.7800000000002</ele>
        <time>2015-08-16T09:57:56Z</time>
      </trkpt>
      <trkpt lat="45.889164274558425" lon="7.748892875388265">
        <ele>2310.6700000000001</ele>
        <time>2015-08-16T09:58:09Z</time>
      </trkpt>
      <trkpt lat="45.889173075556755" lon="7.748900167644024">
        <ele>2310.6700000000001</ele>
        <time>2015-08-16T09:58:10Z</time>
      </trkpt>
      <trkpt lat="45.889220936223865" lon="7.748958002775908">
        <ele>2312.1100000000001</ele>
        <time>2015-08-16T09:58:20Z</time>
      </trkpt>
      <trkpt lat="45.889231581240892" lon="7.748972671106458">
        <ele>2313.0700000000002</ele>
        <time>2015-08-16T09:58:34Z</time>
      </trkpt>
      <trkpt lat="45.889272401109338" lon="7.748977951705456">
        <ele>2314.0300000000002</ele>
        <time>2015-08-16T09:58:43Z</time>
      </trkpt>
      <trkpt lat="45.889356303960085" lon="7.749061267822981">
        <ele>2315.4699999999998</ele>
        <time>2015-08-16T09:58:54Z</time>
      </trkpt>
      <trkpt lat="45.889411792159081" lon="7.749115079641342">
        <ele>2316.9099999999999</ele>
        <time>2015-08-16T09:59:05Z</time>
      </trkpt>
      <trkpt lat="45.889473063871264" lon="7.749149026349187">
        <ele>2318.3600000000001</ele>
        <time>2015-08-16T09:59:15Z</time>
      </trkpt>
      <trkpt lat="45.88953198865056" lon="7.749183224514127">
        <ele>2320.2800000000002</ele>
        <time>2015-08-16T09:59:24Z</time>
      </trkpt>
      <trkpt lat="45.889632822945714" lon="7.749272575601935">
        <ele>2320.2800000000002</ele>
        <time>2015-08-16T09:59:36Z</time>
      </trkpt>
      <trkpt lat="45.889684455469251" lon="7.749288249760866">
        <ele>2321.2399999999998</ele>
        <time>2015-08-16T09:59:43Z</time>
      </trkpt>
      <trkpt lat="45.889748325571418" lon="7.749313395470381">
        <ele>2322.1999999999998</ele>
        <time>2015-08-16T09:59:53Z</time>
      </trkpt>
      <trkpt lat="45.889809597283602" lon="7.749375756829977">
        <ele>2323.1599999999999</ele>
        <time>2015-08-16T10:00:03Z</time>
      </trkpt>
      <trkpt lat="45.889880759641528" lon="7.749461084604263">
        <ele>2323.6399999999999</ele>
        <time>2015-08-16T10:00:14Z</time>
      </trkpt>
      <trkpt lat="45.889949575066566" lon="7.749525709077716">
        <ele>2323.6399999999999</ele>
        <time>2015-08-16T10:00:24Z</time>
      </trkpt>
      <trkpt lat="45.890021324157715" lon="7.749540880322456">
        <ele>2324.6100000000001</ele>
        <time>2015-08-16T10:00:34Z</time>
      </trkpt>
      <trkpt lat="45.890051918104291" lon="7.749617658555508">
        <ele>2323.1599999999999</ele>
        <time>2015-08-16T10:00:43Z</time>
      </trkpt>
      <trkpt lat="45.890114698559046" lon="7.749705333262682">
        <ele>2321.7199999999998</ele>
        <time>2015-08-16T10:00:52Z</time>
      </trkpt>
      <trkpt lat="45.890171360224485" lon="7.749780518934131">
        <ele>2321.2399999999998</ele>
        <time>2015-08-16T10:01:01Z</time>
      </trkpt>
      <trkpt lat="45.890211509540677" lon="7.749838018789887">
        <ele>2322.1999999999998</ele>
        <time>2015-08-16T10:01:10Z</time>
      </trkpt>
      <trkpt lat="45.890253083780408" lon="7.749912533909082">
        <ele>2321.7199999999998</ele>
        <time>2015-08-16T10:01:20Z</time>
      </trkpt>
      <trkpt lat="45.890272110700607" lon="7.749944468960166">
        <ele>2320.7600000000002</ele>
        <time>2015-08-16T10:01:25Z</time>
      </trkpt>
      <trkpt lat="45.890318881720304" lon="7.750043040141463">
        <ele>2320.2800000000002</ele>
        <time>2015-08-16T10:01:34Z</time>
      </trkpt>
      <trkpt lat="45.890348134562373" lon="7.750112693756819">
        <ele>2318.3600000000001</ele>
        <time>2015-08-16T10:01:41Z</time>
      </trkpt>
      <trkpt lat="45.890375291928649" lon="7.750174468383193">
        <ele>2316.4299999999998</ele>
        <time>2015-08-16T10:01:51Z</time>
      </trkpt>
      <trkpt lat="45.890394067391753" lon="7.750210510566831">
        <ele>2315.9499999999998</ele>
        <time>2015-08-16T10:01:55Z</time>
      </trkpt>
      <trkpt lat="45.890416782349348" lon="7.750254767015576">
        <ele>2314.9899999999998</ele>
        <time>2015-08-16T10:02:00Z</time>
      </trkpt>
      <trkpt lat="45.890473946928978" lon="7.750328192487359">
        <ele>2314.5100000000002</ele>
        <time>2015-08-16T10:02:08Z</time>
      </trkpt>
      <trkpt lat="45.890496829524636" lon="7.750370102003217">
        <ele>2314.5100000000002</ele>
        <time>2015-08-16T10:02:13Z</time>
      </trkpt>
      <trkpt lat="45.890498925000429" lon="7.750462470576167">
        <ele>2312.5900000000001</ele>
        <time>2015-08-16T10:02:22Z</time>
      </trkpt>
      <trkpt lat="45.890536643564701" lon="7.750532040372491">
        <ele>2313.0700000000002</ele>
        <time>2015-08-16T10:02:27Z</time>
      </trkpt>
      <trkpt lat="45.890562627464533" lon="7.750565987080336">
        <ele>2313.0700000000002</ele>
        <time>2015-08-16T10:02:30Z</time>
      </trkpt>
      <trkpt lat="45.890602692961693" lon="7.750617200508714">
        <ele>2313.5500000000002</ele>
        <time>2015-08-16T10:02:34Z</time>
      </trkpt>
      <trkpt lat="45.890625156462193" lon="7.750667743384838">
        <ele>2314.0300000000002</ele>
        <time>2015-08-16T10:02:38Z</time>
      </trkpt>
      <trkpt lat="45.890724901109934" lon="7.750778971239924">
        <ele>2314.5100000000002</ele>
        <time>2015-08-16T10:02:50Z</time>
      </trkpt>
      <trkpt lat="45.890834368765354" lon="7.750864550471306">
        <ele>2314.0300000000002</ele>
        <time>2015-08-16T10:03:03Z</time>
      </trkpt>
      <trkpt lat="45.89083906263113" lon="7.750870417803526">
        <ele>2314.0300000000002</ele>
        <time>2015-08-16T10:03:04Z</time>
      </trkpt>
      <trkpt lat="45.890932353213429" lon="7.750943256542087">
        <ele>2313.0700000000002</ele>
        <time>2015-08-16T10:03:15Z</time>
      </trkpt>
      <trkpt lat="45.891013070940971" lon="7.751023722812533">
        <ele>2314.0300000000002</ele>
        <time>2015-08-16T10:03:26Z</time>
      </trkpt>
      <trkpt lat="45.891079790890217" lon="7.751111062243581">
        <ele>2313.0700000000002</ele>
        <time>2015-08-16T10:03:37Z</time>
      </trkpt>
      <trkpt lat="45.891206273809075" lon="7.751175099983811">
        <ele>2313.5500000000002</ele>
        <time>2015-08-16T10:03:48Z</time>
      </trkpt>
      <trkpt lat="45.891260839998722" lon="7.751213321462274">
        <ele>2314.0300000000002</ele>
        <time>2015-08-16T10:03:56Z</time>
      </trkpt>
      <trkpt lat="45.891348095610738" lon="7.751245507970452">
        <ele>2313.5500000000002</ele>
        <time>2015-08-16T10:04:07Z</time>
      </trkpt>
      <trkpt lat="45.891400566324592" lon="7.751268390566111">
        <ele>2314.5100000000002</ele>
        <time>2015-08-16T10:04:16Z</time>
      </trkpt>
      <trkpt lat="45.891473069787025" lon="7.751241568475962">
        <ele>2315.9499999999998</ele>
        <time>2015-08-16T10:04:28Z</time>
      </trkpt>
      <trkpt lat="45.891534676775336" lon="7.751298313960433">
        <ele>2314.9899999999998</ele>
        <time>2015-08-16T10:04:38Z</time>
      </trkpt>
      <trkpt lat="45.891581531614065" lon="7.751346006989479">
        <ele>2314.5100000000002</ele>
        <time>2015-08-16T10:04:48Z</time>
      </trkpt>
      <trkpt lat="45.891615059226751" lon="7.751374170184135">
        <ele>2314.0300000000002</ele>
        <time>2015-08-16T10:04:53Z</time>
      </trkpt>
      <trkpt lat="45.891628805547953" lon="7.75139931589365">
        <ele>2314.0300000000002</ele>
        <time>2015-08-16T10:04:55Z</time>
      </trkpt>
      <trkpt lat="45.891641629859805" lon="7.751446003094316">
        <ele>2313.0700000000002</ele>
        <time>2015-08-16T10:04:58Z</time>
      </trkpt>
      <trkpt lat="45.891680186614394" lon="7.751467376947403">
        <ele>2313.5500000000002</ele>
        <time>2015-08-16T10:05:02Z</time>
      </trkpt>
      <trkpt lat="45.891705499961972" lon="7.751473998650909">
        <ele>2313.5500000000002</ele>
        <time>2015-08-16T10:05:05Z</time>
      </trkpt>
      <trkpt lat="45.891806334257126" lon="7.75151951238513">
        <ele>2314.0300000000002</ele>
        <time>2015-08-16T10:05:16Z</time>
      </trkpt>
      <trkpt lat="45.891878921538591" lon="7.751563433557749">
        <ele>2314.9899999999998</ele>
        <time>2015-08-16T10:05:24Z</time>
      </trkpt>
      <trkpt lat="45.891882693395019" lon="7.75156787596643">
        <ele>2314.9899999999998</ele>
        <time>2015-08-16T10:05:25Z</time>
      </trkpt>
      <trkpt lat="45.891977241262794" lon="7.751596877351403">
        <ele>2315.4699999999998</ele>
        <time>2015-08-16T10:05:35Z</time>
      </trkpt>
      <trkpt lat="45.8920494094491" lon="7.751664770767093">
        <ele>2315.4699999999998</ele>
        <time>2015-08-16T10:05:43Z</time>
      </trkpt>
      <trkpt lat="45.89208947494626" lon="7.751692682504654">
        <ele>2315.4699999999998</ele>
        <time>2015-08-16T10:05:47Z</time>
      </trkpt>
      <trkpt lat="45.892111184075475" lon="7.7516885753721">
        <ele>2315.4699999999998</ele>
        <time>2015-08-16T10:05:49Z</time>
      </trkpt>
      <trkpt lat="45.892209755256772" lon="7.751671727746725">
        <ele>2315.9499999999998</ele>
        <time>2015-08-16T10:06:00Z</time>
      </trkpt>
      <trkpt lat="45.89229759760201" lon="7.751682959496975">
        <ele>2317.4000000000001</ele>
        <time>2015-08-16T10:06:09Z</time>
      </trkpt>
      <trkpt lat="45.892387619242072" lon="7.751690587028861">
        <ele>2318.3600000000001</ele>
        <time>2015-08-16T10:06:19Z</time>
      </trkpt>
      <trkpt lat="45.892458781599998" lon="7.751687988638878">
        <ele>2319.3200000000002</ele>
        <time>2015-08-16T10:06:26Z</time>
      </trkpt>
      <trkpt lat="45.892534218728542" lon="7.751692682504654">
        <ele>2319.8000000000002</ele>
        <time>2015-08-16T10:06:35Z</time>
      </trkpt>
      <trkpt lat="45.892527848482132" lon="7.751695951446891">
        <ele>2319.8000000000002</ele>
        <time>2015-08-16T10:06:46Z</time>
      </trkpt>
      <trkpt lat="45.892508653923869" lon="7.751680361106992">
        <ele>2319.8000000000002</ele>
        <time>2015-08-16T10:07:07Z</time>
      </trkpt>
      <trkpt lat="45.892499936744571" lon="7.751651359722018">
        <ele>2319.3200000000002</ele>
        <time>2015-08-16T10:07:29Z</time>
      </trkpt>
      <trkpt lat="45.892516952008009" lon="7.751654963940382">
        <ele>2319.8000000000002</ele>
        <time>2015-08-16T10:07:46Z</time>
      </trkpt>
      <trkpt lat="45.892526926472783" lon="7.75166803970933">
        <ele>2319.8000000000002</ele>
        <time>2015-08-16T10:08:02Z</time>
      </trkpt>
      <trkpt lat="45.892566153779626" lon="7.751685893163085">
        <ele>2319.8000000000002</ele>
        <time>2015-08-16T10:08:17Z</time>
      </trkpt>
      <trkpt lat="45.892557855695486" lon="7.751674745231867">
        <ele>2319.8000000000002</ele>
        <time>2015-08-16T10:08:29Z</time>
      </trkpt>
      <trkpt lat="45.892550982534885" lon="7.751662256196141">
        <ele>2319.8000000000002</ele>
        <time>2015-08-16T10:08:51Z</time>
      </trkpt>
      <trkpt lat="45.892590628936887" lon="7.751687904819846">
        <ele>2320.2800000000002</ele>
        <time>2015-08-16T10:09:05Z</time>
      </trkpt>
      <trkpt lat="45.892672436311841" lon="7.751714391633868">
        <ele>2321.2399999999998</ele>
        <time>2015-08-16T10:09:15Z</time>
      </trkpt>
      <trkpt lat="45.892766313627362" lon="7.751732161268592">
        <ele>2322.1999999999998</ele>
        <time>2015-08-16T10:09:25Z</time>
      </trkpt>
      <trkpt lat="45.892857676371932" lon="7.751771053299308">
        <ele>2323.1599999999999</ele>
        <time>2015-08-16T10:09:37Z</time>
      </trkpt>
      <trkpt lat="45.892944512888789" lon="7.751780021935701">
        <ele>2324.6100000000001</ele>
        <time>2015-08-16T10:09:48Z</time>
      </trkpt>
      <trkpt lat="45.893029756844044" lon="7.751773903146386">
        <ele>2326.0500000000002</ele>
        <time>2015-08-16T10:09:59Z</time>
      </trkpt>
      <trkpt lat="45.893106115981936" lon="7.751806927844882">
        <ele>2327.0100000000002</ele>
        <time>2015-08-16T10:10:08Z</time>
      </trkpt>
      <trkpt lat="45.893197311088443" lon="7.751833749935031">
        <ele>2328.4499999999998</ele>
        <time>2015-08-16T10:10:21Z</time>
      </trkpt>
      <trkpt lat="45.893283057957888" lon="7.751878341659904">
        <ele>2328.9299999999998</ele>
        <time>2015-08-16T10:10:31Z</time>
      </trkpt>
      <trkpt lat="45.893344078212976" lon="7.751893009990454">
        <ele>2330.3699999999999</ele>
        <time>2015-08-16T10:10:40Z</time>
      </trkpt>
      <trkpt lat="45.893410043790936" lon="7.751898877322674">
        <ele>2331.3299999999999</ele>
        <time>2015-08-16T10:10:48Z</time>
      </trkpt>
      <trkpt lat="45.893501993268728" lon="7.751939194276929">
        <ele>2332.3000000000002</ele>
        <time>2015-08-16T10:10:58Z</time>
      </trkpt>
      <trkpt lat="45.893589835613966" lon="7.751984624192119">
        <ele>2333.7399999999998</ele>
        <time>2015-08-16T10:11:08Z</time>
      </trkpt>
      <trkpt lat="45.89360517449677" lon="7.751995185390115">
        <ele>2334.6999999999998</ele>
        <time>2015-08-16T10:11:10Z</time>
      </trkpt>
      <trkpt lat="45.893629565834999" lon="7.752014799043536">
        <ele>2334.2199999999998</ele>
        <time>2015-08-16T10:11:13Z</time>
      </trkpt>
      <trkpt lat="45.893664686009288" lon="7.752042040228844">
        <ele>2334.2199999999998</ele>
        <time>2015-08-16T10:11:17Z</time>
      </trkpt>
      <trkpt lat="45.893754959106445" lon="7.75209803134203">
        <ele>2335.6599999999999</ele>
        <time>2015-08-16T10:11:28Z</time>
      </trkpt>
      <trkpt lat="45.893837185576558" lon="7.752158883959055">
        <ele>2336.6199999999999</ele>
        <time>2015-08-16T10:11:37Z</time>
      </trkpt>
      <trkpt lat="45.893920753151178" lon="7.752225855365396">
        <ele>2337.5799999999999</ele>
        <time>2015-08-16T10:11:47Z</time>
      </trkpt>
      <trkpt lat="45.893999459221959" lon="7.752297185361385">
        <ele>2339.02</ele>
        <time>2015-08-16T10:11:57Z</time>
      </trkpt>
      <trkpt lat="45.894057881087065" lon="7.752348482608795">
        <ele>2339.9899999999998</ele>
        <time>2015-08-16T10:12:05Z</time>
      </trkpt>
      <trkpt lat="45.894086714833975" lon="7.752378573641181">
        <ele>2340.4699999999998</ele>
        <time>2015-08-16T10:12:09Z</time>
      </trkpt>
      <trkpt lat="45.894152596592903" lon="7.752486784011126">
        <ele>2341.4299999999998</ele>
        <time>2015-08-16T10:12:20Z</time>
      </trkpt>
      <trkpt lat="45.894176652655005" lon="7.752549648284912">
        <ele>2341.9099999999999</ele>
        <time>2015-08-16T10:12:26Z</time>
      </trkpt>
      <trkpt lat="45.89421303011477" lon="7.752594072371721">
        <ele>2342.3899999999999</ele>
        <time>2015-08-16T10:12:30Z</time>
      </trkpt>
      <trkpt lat="45.894260052591562" lon="7.752716112881899">
        <ele>2343.3499999999999</ele>
        <time>2015-08-16T10:12:42Z</time>
      </trkpt>
      <trkpt lat="45.894224429503083" lon="7.752747125923634">
        <ele>2342.8699999999999</ele>
        <time>2015-08-16T10:12:53Z</time>
      </trkpt>
      <trkpt lat="45.894254604354501" lon="7.75276891887188">
        <ele>2344.79</ele>
        <time>2015-08-16T10:13:07Z</time>
      </trkpt>
      <trkpt lat="45.894311433658004" lon="7.752735307440162">
        <ele>2346.7199999999998</ele>
        <time>2015-08-16T10:13:20Z</time>
      </trkpt>
      <trkpt lat="45.894349906593561" lon="7.752770427614451">
        <ele>2346.23</ele>
        <time>2015-08-16T10:13:27Z</time>
      </trkpt>
      <trkpt lat="45.894366167485714" lon="7.752785766497254">
        <ele>2348.6399999999999</ele>
        <time>2015-08-16T10:13:35Z</time>
      </trkpt>
      <trkpt lat="45.894397096708417" lon="7.752726338803768">
        <ele>2350.5599999999999</ele>
        <time>2015-08-16T10:13:46Z</time>
      </trkpt>
      <trkpt lat="45.894440766423941" lon="7.752739917486906">
        <ele>2352</ele>
        <time>2015-08-16T10:13:56Z</time>
      </trkpt>
      <trkpt lat="45.894462643191218" lon="7.752800518646836">
        <ele>2353.4400000000001</ele>
        <time>2015-08-16T10:14:05Z</time>
      </trkpt>
      <trkpt lat="45.894510839134455" lon="7.752819964662194">
        <ele>2354.4099999999999</ele>
        <time>2015-08-16T10:14:17Z</time>
      </trkpt>
      <trkpt lat="45.894495751708746" lon="7.752772020176053">
        <ele>2356.3299999999999</ele>
        <time>2015-08-16T10:14:27Z</time>
      </trkpt>
      <trkpt lat="45.89451109059155" lon="7.752718878909946">
        <ele>2357.77</ele>
        <time>2015-08-16T10:14:36Z</time>
      </trkpt>
      <trkpt lat="45.89451209641993" lon="7.752701863646507">
        <ele>2357.77</ele>
        <time>2015-08-16T10:14:45Z</time>
      </trkpt>
      <trkpt lat="45.894545624032617" lon="7.752681076526642">
        <ele>2359.6900000000001</ele>
        <time>2015-08-16T10:14:55Z</time>
      </trkpt>
      <trkpt lat="45.894597508013248" lon="7.752750394865871">
        <ele>2361.1399999999999</ele>
        <time>2015-08-16T10:15:05Z</time>
      </trkpt>
      <trkpt lat="45.894633634015918" lon="7.752781491726637">
        <ele>2363.54</ele>
        <time>2015-08-16T10:15:13Z</time>
      </trkpt>
      <trkpt lat="45.894664395600557" lon="7.752746706828475">
        <ele>2364.02</ele>
        <time>2015-08-16T10:15:22Z</time>
      </trkpt>
      <trkpt lat="45.894693145528436" lon="7.75272156111896">
        <ele>2365.46</ele>
        <time>2015-08-16T10:15:32Z</time>
      </trkpt>
      <trkpt lat="45.894715441390872" lon="7.75277185253799">
        <ele>2366.9000000000001</ele>
        <time>2015-08-16T10:15:42Z</time>
      </trkpt>
      <trkpt lat="45.894732624292374" lon="7.752741845324636">
        <ele>2367.8600000000001</ele>
        <time>2015-08-16T10:15:51Z</time>
      </trkpt>
      <trkpt lat="45.894777551293373" lon="7.752758441492915">
        <ele>2369.79</ele>
        <time>2015-08-16T10:16:02Z</time>
      </trkpt>
      <trkpt lat="45.894806552678347" lon="7.752762548625469">
        <ele>2370.75</ele>
        <time>2015-08-16T10:16:13Z</time>
      </trkpt>
      <trkpt lat="45.894839828833938" lon="7.752774534747005">
        <ele>2372.6700000000001</ele>
        <time>2015-08-16T10:16:23Z</time>
      </trkpt>
      <trkpt lat="45.894879642874002" lon="7.752765566110611">
        <ele>2373.6300000000001</ele>
        <time>2015-08-16T10:16:32Z</time>
      </trkpt>
      <trkpt lat="45.894897747784853" lon="7.752722231671214">
        <ele>2375.5500000000002</ele>
        <time>2015-08-16T10:16:44Z</time>
      </trkpt>
      <trkpt lat="45.8949264138937" lon="7.752728518098593">
        <ele>2376.52</ele>
        <time>2015-08-16T10:16:55Z</time>
      </trkpt>
      <trkpt lat="45.894951727241278" lon="7.752711167559028">
        <ele>2377.96</ele>
        <time>2015-08-16T10:17:06Z</time>
      </trkpt>
      <trkpt lat="45.894965305924416" lon="7.752654170617461">
        <ele>2380.8400000000001</ele>
        <time>2015-08-16T10:17:14Z</time>
      </trkpt>
      <trkpt lat="45.894953906536102" lon="7.752575380727649">
        <ele>2380.8400000000001</ele>
        <time>2015-08-16T10:17:26Z</time>
      </trkpt>
      <trkpt lat="45.894978549331427" lon="7.752525759860873">
        <ele>2382.2800000000002</ele>
        <time>2015-08-16T10:17:34Z</time>
      </trkpt>
      <trkpt lat="45.8950109872967" lon="7.752493154257536">
        <ele>2383.73</ele>
        <time>2015-08-16T10:17:44Z</time>
      </trkpt>
      <trkpt lat="45.895011657848954" lon="7.752431044355035">
        <ele>2384.6900000000001</ele>
        <time>2015-08-16T10:17:52Z</time>
      </trkpt>
      <trkpt lat="45.895052561536431" lon="7.752419896423817">
        <ele>2386.1300000000001</ele>
        <time>2015-08-16T10:18:02Z</time>
      </trkpt>
      <trkpt lat="45.895071336999536" lon="7.752373041585088">
        <ele>2388.0500000000002</ele>
        <time>2015-08-16T10:18:13Z</time>
      </trkpt>
      <trkpt lat="45.89508231729269" lon="7.752338424324989">
        <ele>2389.0100000000002</ele>
        <time>2015-08-16T10:18:19Z</time>
      </trkpt>
      <trkpt lat="45.895090196281672" lon="7.752289138734341">
        <ele>2390.46</ele>
        <time>2015-08-16T10:18:30Z</time>
      </trkpt>
      <trkpt lat="45.895133782178164" lon="7.752320067957044">
        <ele>2391.9000000000001</ele>
        <time>2015-08-16T10:18:40Z</time>
      </trkpt>
      <trkpt lat="45.89518248103559" lon="7.752338424324989">
        <ele>2393.3400000000001</ele>
        <time>2015-08-16T10:18:51Z</time>
      </trkpt>
      <trkpt lat="45.895194048061967" lon="7.752375137060881">
        <ele>2394.3000000000002</ele>
        <time>2015-08-16T10:19:02Z</time>
      </trkpt>
      <trkpt lat="45.895188013091683" lon="7.752381088212133">
        <ele>2394.7800000000002</ele>
        <time>2015-08-16T10:19:17Z</time>
      </trkpt>
      <trkpt lat="45.895169572904706" lon="7.752383435145021">
        <ele>2394.3000000000002</ele>
        <time>2015-08-16T10:19:30Z</time>
      </trkpt>
      <trkpt lat="45.895160771906376" lon="7.752372873947024">
        <ele>2394.3000000000002</ele>
        <time>2015-08-16T10:19:45Z</time>
      </trkpt>
      <trkpt lat="45.895161777734756" lon="7.752360971644521">
        <ele>2394.3000000000002</ele>
        <time>2015-08-16T10:19:57Z</time>
      </trkpt>
      <trkpt lat="45.895158005878329" lon="7.752370527014136">
        <ele>2394.3000000000002</ele>
        <time>2015-08-16T10:20:15Z</time>
      </trkpt>
      <trkpt lat="45.895150294527411" lon="7.752356361597776">
        <ele>2394.3000000000002</ele>
        <time>2015-08-16T10:20:36Z</time>
      </trkpt>
      <trkpt lat="45.895195137709379" lon="7.752405814826489">
        <ele>2395.2600000000002</ele>
        <time>2015-08-16T10:20:47Z</time>
      </trkpt>
      <trkpt lat="45.895233778283" lon="7.752414951100946">
        <ele>2397.6700000000001</ele>
        <time>2015-08-16T10:20:59Z</time>
      </trkpt>
      <trkpt lat="45.895254649221897" lon="7.75239366106689">
        <ele>2398.6300000000001</ele>
        <time>2015-08-16T10:21:08Z</time>
      </trkpt>
      <trkpt lat="45.895276693627238" lon="7.752397684380412">
        <ele>2400.0700000000002</ele>
        <time>2015-08-16T10:21:15Z</time>
      </trkpt>
      <trkpt lat="45.895295301452279" lon="7.752426601946354">
        <ele>2401.5100000000002</ele>
        <time>2015-08-16T10:21:24Z</time>
      </trkpt>
      <trkpt lat="45.895298151299357" lon="7.752411095425487">
        <ele>2401.9899999999998</ele>
        <time>2015-08-16T10:21:46Z</time>
      </trkpt>
      <trkpt lat="45.895325224846601" lon="7.752410257235169">
        <ele>2403.4299999999998</ele>
        <time>2015-08-16T10:21:56Z</time>
      </trkpt>
      <trkpt lat="45.895388256758451" lon="7.752460800111294">
        <ele>2405.3600000000001</ele>
        <time>2015-08-16T10:22:07Z</time>
      </trkpt>
      <trkpt lat="45.895423293113708" lon="7.752522910013795">
        <ele>2407.2800000000002</ele>
        <time>2015-08-16T10:22:19Z</time>
      </trkpt>
      <trkpt lat="45.895447432994843" lon="7.752564484253526">
        <ele>2407.7600000000002</ele>
        <time>2015-08-16T10:22:37Z</time>
      </trkpt>
      <trkpt lat="45.895487917587161" lon="7.752626007422805">
        <ele>2409.1999999999998</ele>
        <time>2015-08-16T10:22:46Z</time>
      </trkpt>
      <trkpt lat="45.895503591746092" lon="7.752672359347343">
        <ele>2409.6799999999998</ele>
        <time>2015-08-16T10:23:02Z</time>
      </trkpt>
      <trkpt lat="45.895546674728394" lon="7.752713346853852">
        <ele>2411.1199999999999</ele>
        <time>2015-08-16T10:23:11Z</time>
      </trkpt>
      <trkpt lat="45.89556553401053" lon="7.752742934972048">
        <ele>2413.0500000000002</ele>
        <time>2015-08-16T10:23:16Z</time>
      </trkpt>
      <trkpt lat="45.895569808781147" lon="7.752749137580395">
        <ele>2411.5999999999999</ele>
        <time>2015-08-16T10:23:17Z</time>
      </trkpt>
      <trkpt lat="45.895583303645253" lon="7.752821305766702">
        <ele>2413.0500000000002</ele>
        <time>2015-08-16T10:23:27Z</time>
      </trkpt>
      <trkpt lat="45.895616831257939" lon="7.752882242202759">
        <ele>2413.0500000000002</ele>
        <time>2015-08-16T10:23:37Z</time>
      </trkpt>
      <trkpt lat="45.895617417991161" lon="7.752880901098251">
        <ele>2414.4899999999998</ele>
        <time>2015-08-16T10:23:38Z</time>
      </trkpt>
      <trkpt lat="45.895650358870625" lon="7.752948710694909">
        <ele>2415.9299999999998</ele>
        <time>2015-08-16T10:23:48Z</time>
      </trkpt>
      <trkpt lat="45.895665781572461" lon="7.752939155325294">
        <ele>2415.4499999999998</ele>
        <time>2015-08-16T10:24:01Z</time>
      </trkpt>
      <trkpt lat="45.895665697753429" lon="7.752963965758681">
        <ele>2417.3699999999999</ele>
        <time>2015-08-16T10:24:12Z</time>
      </trkpt>
      <trkpt lat="45.895672738552094" lon="7.752995733171701">
        <ele>2418.8099999999999</ele>
        <time>2015-08-16T10:24:20Z</time>
      </trkpt>
      <trkpt lat="45.895713977515697" lon="7.753032613545656">
        <ele>2419.7800000000002</ele>
        <time>2015-08-16T10:24:31Z</time>
      </trkpt>
      <trkpt lat="45.895731160417199" lon="7.753120707347989">
        <ele>2421.2199999999998</ele>
        <time>2015-08-16T10:24:40Z</time>
      </trkpt>
      <trkpt lat="45.895764101296663" lon="7.753213997930288">
        <ele>2422.1799999999998</ele>
        <time>2015-08-16T10:24:50Z</time>
      </trkpt>
      <trkpt lat="45.895801987498999" lon="7.753304857760668">
        <ele>2422.6599999999999</ele>
        <time>2015-08-16T10:24:59Z</time>
      </trkpt>
      <trkpt lat="45.895855547860265" lon="7.753376858308911">
        <ele>2423.6199999999999</ele>
        <time>2015-08-16T10:25:09Z</time>
      </trkpt>
      <trkpt lat="45.895886728540063" lon="7.753435615450144">
        <ele>2423.1399999999999</ele>
        <time>2015-08-16T10:25:18Z</time>
      </trkpt>
      <trkpt lat="45.895884381607175" lon="7.753450702875853">
        <ele>2423.1399999999999</ele>
        <time>2015-08-16T10:25:20Z</time>
      </trkpt>
      <trkpt lat="45.895875245332718" lon="7.753584897145629">
        <ele>2423.6199999999999</ele>
        <time>2015-08-16T10:25:31Z</time>
      </trkpt>
      <trkpt lat="45.895903492346406" lon="7.753635188564658">
        <ele>2425.0599999999999</ele>
        <time>2015-08-16T10:25:43Z</time>
      </trkpt>
      <trkpt lat="45.895894356071949" lon="7.753711128607392">
        <ele>2426.02</ele>
        <time>2015-08-16T10:25:52Z</time>
      </trkpt>
      <trkpt lat="45.895862421020865" lon="7.753817494958639">
        <ele>2426.5</ele>
        <time>2015-08-16T10:26:03Z</time>
      </trkpt>
      <trkpt lat="45.895895948633552" lon="7.753870468586683">
        <ele>2427.9499999999998</ele>
        <time>2015-08-16T10:26:14Z</time>
      </trkpt>
      <trkpt lat="45.895912377163768" lon="7.753840126097202">
        <ele>2428.4299999999998</ele>
        <time>2015-08-16T10:26:24Z</time>
      </trkpt>
      <trkpt lat="45.89594716206193" lon="7.753834510222077">
        <ele>2429.8699999999999</ele>
        <time>2015-08-16T10:26:34Z</time>
      </trkpt>
      <trkpt lat="45.895969960838556" lon="7.75384440086782">
        <ele>2429.8699999999999</ele>
        <time>2015-08-16T10:26:43Z</time>
      </trkpt>
      <trkpt lat="45.896001812070608" lon="7.753844652324915">
        <ele>2432.75</ele>
        <time>2015-08-16T10:26:55Z</time>
      </trkpt>
      <trkpt lat="45.896034752950072" lon="7.753873569890857">
        <ele>2434.1999999999998</ele>
        <time>2015-08-16T10:27:03Z</time>
      </trkpt>
      <trkpt lat="45.896038524806499" lon="7.753850352019072">
        <ele>2435.6399999999999</ele>
        <time>2015-08-16T10:27:14Z</time>
      </trkpt>
      <trkpt lat="45.896084876731038" lon="7.753869462758303">
        <ele>2438.04</ele>
        <time>2015-08-16T10:27:27Z</time>
      </trkpt>
      <trkpt lat="45.896116895601153" lon="7.753838617354631">
        <ele>2439</ele>
        <time>2015-08-16T10:27:38Z</time>
      </trkpt>
      <trkpt lat="45.896133156493306" lon="7.753831576555967">
        <ele>2439.96</ele>
        <time>2015-08-16T10:27:47Z</time>
      </trkpt>
      <trkpt lat="45.896147908642888" lon="7.75378723628819">
        <ele>2441.4099999999999</ele>
        <time>2015-08-16T10:27:57Z</time>
      </trkpt>
      <trkpt lat="45.896178251132369" lon="7.753801736980677">
        <ele>2443.3299999999999</ele>
        <time>2015-08-16T10:28:08Z</time>
      </trkpt>
      <trkpt lat="45.896184202283621" lon="7.7537677064538">
        <ele>2444.29</ele>
        <time>2015-08-16T10:28:27Z</time>
      </trkpt>
      <trkpt lat="45.896221250295639" lon="7.75375940836966">
        <ele>2446.21</ele>
        <time>2015-08-16T10:28:39Z</time>
      </trkpt>
      <trkpt lat="45.8962681889534" lon="7.753803161904216">
        <ele>2447.6500000000001</ele>
        <time>2015-08-16T10:28:49Z</time>
      </trkpt>
      <trkpt lat="45.896272296085954" lon="7.753870552405715">
        <ele>2449.5799999999999</ele>
        <time>2015-08-16T10:29:00Z</time>
      </trkpt>
      <trkpt lat="45.89630682952702" lon="7.75387273170054">
        <ele>2450.54</ele>
        <time>2015-08-16T10:29:11Z</time>
      </trkpt>
      <trkpt lat="45.896310433745384" lon="7.753916904330254">
        <ele>2452.46</ele>
        <time>2015-08-16T10:29:21Z</time>
      </trkpt>
      <trkpt lat="45.896271038800478" lon="7.753996280953288">
        <ele>2454.3800000000001</ele>
        <time>2015-08-16T10:29:33Z</time>
      </trkpt>
      <trkpt lat="45.89625502936542" lon="7.754023438319564">
        <ele>2454.3800000000001</ele>
        <time>2015-08-16T10:29:42Z</time>
      </trkpt>
      <trkpt lat="45.896269362419844" lon="7.754035089164972">
        <ele>2454.8600000000001</ele>
        <time>2015-08-16T10:29:54Z</time>
      </trkpt>
      <trkpt lat="45.896298112347722" lon="7.754096360877156">
        <ele>2456.79</ele>
        <time>2015-08-16T10:30:05Z</time>
      </trkpt>
      <trkpt lat="45.896338177844882" lon="7.754072472453117">
        <ele>2458.71</ele>
        <time>2015-08-16T10:30:19Z</time>
      </trkpt>
      <trkpt lat="45.896345051005483" lon="7.754138270393014">
        <ele>2460.6300000000001</ele>
        <time>2015-08-16T10:30:29Z</time>
      </trkpt>
      <trkpt lat="45.896350918337703" lon="7.754170205444098">
        <ele>2462.0700000000002</ele>
        <time>2015-08-16T10:30:39Z</time>
      </trkpt>
      <trkpt lat="45.896336920559406" lon="7.754223179072142">
        <ele>2463.04</ele>
        <time>2015-08-16T10:30:48Z</time>
      </trkpt>
      <trkpt lat="45.896361311897635" lon="7.754228375852108">
        <ele>2463.52</ele>
        <time>2015-08-16T10:30:57Z</time>
      </trkpt>
      <trkpt lat="45.896393749862909" lon="7.754213036969304">
        <ele>2465.4400000000001</ele>
        <time>2015-08-16T10:31:06Z</time>
      </trkpt>
      <trkpt lat="45.896427445113659" lon="7.754230052232742">
        <ele>2466.4000000000001</ele>
        <time>2015-08-16T10:31:14Z</time>
      </trkpt>
      <trkpt lat="45.896433312445879" lon="7.754307836294174">
        <ele>2467.8400000000001</ele>
        <time>2015-08-16T10:31:24Z</time>
      </trkpt>
      <trkpt lat="45.896436246111989" lon="7.754357289522886">
        <ele>2469.2800000000002</ele>
        <time>2015-08-16T10:31:33Z</time>
      </trkpt>
      <trkpt lat="45.896473545581102" lon="7.754356283694506">
        <ele>2470.73</ele>
        <time>2015-08-16T10:31:42Z</time>
      </trkpt>
      <trkpt lat="45.896542947739363" lon="7.754376651719213">
        <ele>2470.73</ele>
        <time>2015-08-16T10:31:53Z</time>
      </trkpt>
      <trkpt lat="45.896559879183769" lon="7.754455944523215">
        <ele>2473.6100000000001</ele>
        <time>2015-08-16T10:32:06Z</time>
      </trkpt>
      <trkpt lat="45.896599525585771" lon="7.754509169608355">
        <ele>2475.0500000000002</ele>
        <time>2015-08-16T10:32:18Z</time>
      </trkpt>
      <trkpt lat="45.896605392917991" lon="7.75451185181737">
        <ele>2475.0500000000002</ele>
        <time>2015-08-16T10:32:19Z</time>
      </trkpt>
      <trkpt lat="45.896641854196787" lon="7.754524843767285">
        <ele>2476.4899999999998</ele>
        <time>2015-08-16T10:32:28Z</time>
      </trkpt>
      <trkpt lat="45.896696504205465" lon="7.754522496834397">
        <ele>2477.9400000000001</ele>
        <time>2015-08-16T10:32:38Z</time>
      </trkpt>
      <trkpt lat="45.89671335183084" lon="7.754580667242408">
        <ele>2478.9000000000001</ele>
        <time>2015-08-16T10:32:48Z</time>
      </trkpt>
      <trkpt lat="45.89675878174603" lon="7.754583265632391">
        <ele>2480.3400000000001</ele>
        <time>2015-08-16T10:32:57Z</time>
      </trkpt>
      <trkpt lat="45.896780323237181" lon="7.754583265632391">
        <ele>2480.8200000000002</ele>
        <time>2015-08-16T10:33:06Z</time>
      </trkpt>
      <trkpt lat="45.896804630756378" lon="7.754600951448083">
        <ele>2480.8200000000002</ele>
        <time>2015-08-16T10:33:19Z</time>
      </trkpt>
      <trkpt lat="45.89683991856873" lon="7.754635317251086">
        <ele>2482.2600000000002</ele>
        <time>2015-08-16T10:33:30Z</time>
      </trkpt>
      <trkpt lat="45.896880738437176" lon="7.754689799621701">
        <ele>2483.6999999999998</ele>
        <time>2015-08-16T10:33:41Z</time>
      </trkpt>
      <trkpt lat="45.896882330998778" lon="7.754707736894488">
        <ele>2484.1799999999998</ele>
        <time>2015-08-16T10:33:54Z</time>
      </trkpt>
      <trkpt lat="45.896857688203454" lon="7.754706731066108">
        <ele>2484.6599999999999</ele>
        <time>2015-08-16T10:34:11Z</time>
      </trkpt>
      <trkpt lat="45.896861292421818" lon="7.754747550934553">
        <ele>2484.6599999999999</ele>
        <time>2015-08-16T10:34:32Z</time>
      </trkpt>
      <trkpt lat="45.896862549707294" lon="7.754741683602333">
        <ele>2484.6599999999999</ele>
        <time>2015-08-16T10:34:59Z</time>
      </trkpt>
      <trkpt lat="45.896874619647861" lon="7.754759034141898">
        <ele>2484.6599999999999</ele>
        <time>2015-08-16T10:35:27Z</time>
      </trkpt>
      <trkpt lat="45.896877972409129" lon="7.754769427701831">
        <ele>2484.6599999999999</ele>
        <time>2015-08-16T10:35:53Z</time>
      </trkpt>
      <trkpt lat="45.896870763972402" lon="7.754772026091814">
        <ele>2485.1500000000001</ele>
        <time>2015-08-16T10:36:18Z</time>
      </trkpt>
      <trkpt lat="45.896882247179747" lon="7.754760039970279">
        <ele>2485.1500000000001</ele>
        <time>2015-08-16T10:36:43Z</time>
      </trkpt>
      <trkpt lat="45.896895574405789" lon="7.754766996949911">
        <ele>2485.6300000000001</ele>
        <time>2015-08-16T10:36:52Z</time>
      </trkpt>
      <trkpt lat="45.896898759528995" lon="7.754766410216689">
        <ele>2485.6300000000001</ele>
        <time>2015-08-16T10:37:06Z</time>
      </trkpt>
      <trkpt lat="45.89689171873033" lon="7.754766577854753">
        <ele>2486.5900000000001</ele>
        <time>2015-08-16T10:37:23Z</time>
      </trkpt>
      <trkpt lat="45.896887192502618" lon="7.75479088537395">
        <ele>2485.6300000000001</ele>
        <time>2015-08-16T10:37:49Z</time>
      </trkpt>
      <trkpt lat="45.896908901631832" lon="7.754762386903167">
        <ele>2485.6300000000001</ele>
        <time>2015-08-16T10:38:07Z</time>
      </trkpt>
      <trkpt lat="45.896897502243519" lon="7.754760961979628">
        <ele>2485.6300000000001</ele>
        <time>2015-08-16T10:38:26Z</time>
      </trkpt>
      <trkpt lat="45.896898759528995" lon="7.754766913130879">
        <ele>2485.6300000000001</ele>
        <time>2015-08-16T10:38:51Z</time>
      </trkpt>
      <trkpt lat="45.896894484758377" lon="7.754771439358592">
        <ele>2485.6300000000001</ele>
        <time>2015-08-16T10:39:22Z</time>
      </trkpt>
      <trkpt lat="45.896890545263886" lon="7.754767667502165">
        <ele>2486.5900000000001</ele>
        <time>2015-08-16T10:39:24Z</time>
      </trkpt>
      <trkpt lat="45.896880906075239" lon="7.754771858453751">
        <ele>2485.6300000000001</ele>
        <time>2015-08-16T10:39:40Z</time>
      </trkpt>
      <trkpt lat="45.896895993500948" lon="7.754764817655087">
        <ele>2485.6300000000001</ele>
        <time>2015-08-16T10:40:04Z</time>
      </trkpt>
      <trkpt lat="45.896903118118644" lon="7.754763225093484">
        <ele>2485.1500000000001</ele>
        <time>2015-08-16T10:40:15Z</time>
      </trkpt>
      <trkpt lat="45.896897502243519" lon="7.75477722287178">
        <ele>2484.6599999999999</ele>
        <time>2015-08-16T10:40:24Z</time>
      </trkpt>
      <trkpt lat="45.896887108683586" lon="7.754787281155586">
        <ele>2484.1799999999998</ele>
        <time>2015-08-16T10:40:44Z</time>
      </trkpt>
      <trkpt lat="45.896854922175407" lon="7.754779485985637">
        <ele>2484.1799999999998</ele>
        <time>2015-08-16T10:41:06Z</time>
      </trkpt>
      <trkpt lat="45.896855257451534" lon="7.754790633916855">
        <ele>2484.6599999999999</ele>
        <time>2015-08-16T10:41:29Z</time>
      </trkpt>
      <trkpt lat="45.896843271329999" lon="7.754777139052749">
        <ele>2484.6599999999999</ele>
        <time>2015-08-16T10:41:49Z</time>
      </trkpt>
      <trkpt lat="45.896887360140681" lon="7.754817958921194">
        <ele>2484.1799999999998</ele>
        <time>2015-08-16T10:42:20Z</time>
      </trkpt>
      <trkpt lat="45.896875457838178" lon="7.754838243126869">
        <ele>2484.6599999999999</ele>
        <time>2015-08-16T10:42:48Z</time>
      </trkpt>
      <trkpt lat="45.896845869719982" lon="7.754772612825036">
        <ele>2484.6599999999999</ele>
        <time>2015-08-16T10:43:16Z</time>
      </trkpt>
      <trkpt lat="45.896835895255208" lon="7.754780827090144">
        <ele>2484.6599999999999</ele>
        <time>2015-08-16T10:43:43Z</time>
      </trkpt>
      <trkpt lat="45.896886521950364" lon="7.754771104082465">
        <ele>2484.6599999999999</ele>
        <time>2015-08-16T10:44:02Z</time>
      </trkpt>
      <trkpt lat="45.896905297413468" lon="7.754789711907506">
        <ele>2484.1799999999998</ele>
        <time>2015-08-16T10:44:20Z</time>
      </trkpt>
      <trkpt lat="45.896903704851866" lon="7.754788957536221">
        <ele>2484.1799999999998</ele>
        <time>2015-08-16T10:44:52Z</time>
      </trkpt>
      <trkpt lat="45.896875960752368" lon="7.754812007769942">
        <ele>2484.1799999999998</ele>
        <time>2015-08-16T10:45:09Z</time>
      </trkpt>
      <trkpt lat="45.896856430917978" lon="7.754776887595654">
        <ele>2484.1799999999998</ele>
        <time>2015-08-16T10:45:28Z</time>
      </trkpt>
      <trkpt lat="45.896844109520316" lon="7.754786862060428">
        <ele>2483.6999999999998</ele>
        <time>2015-08-16T10:45:52Z</time>
      </trkpt>
      <trkpt lat="45.896876128390431" lon="7.754784766584635">
        <ele>2483.6999999999998</ele>
        <time>2015-08-16T10:46:15Z</time>
      </trkpt>
      <trkpt lat="45.896869674324989" lon="7.754758782684803">
        <ele>2483.6999999999998</ele>
        <time>2015-08-16T10:46:43Z</time>
      </trkpt>
      <trkpt lat="45.896870261058211" lon="7.754769595339894">
        <ele>2484.1799999999998</ele>
        <time>2015-08-16T10:46:55Z</time>
      </trkpt>
      <trkpt lat="45.896882498636842" lon="7.754766829311848">
        <ele>2483.6999999999998</ele>
        <time>2015-08-16T10:47:11Z</time>
      </trkpt>
      <trkpt lat="45.896876463666558" lon="7.754760626703501">
        <ele>2483.6999999999998</ele>
        <time>2015-08-16T10:47:41Z</time>
      </trkpt>
      <trkpt lat="45.89689071290195" lon="7.754785940051079">
        <ele>2483.6999999999998</ele>
        <time>2015-08-16T10:47:57Z</time>
      </trkpt>
      <trkpt lat="45.896871099248528" lon="7.754764817655087">
        <ele>2483.6999999999998</ele>
        <time>2015-08-16T10:48:18Z</time>
      </trkpt>
      <trkpt lat="45.896876715123653" lon="7.754774792119861">
        <ele>2483.6999999999998</ele>
        <time>2015-08-16T10:48:40Z</time>
      </trkpt>
      <trkpt lat="45.896910326555371" lon="7.754811672493815">
        <ele>2483.6999999999998</ele>
        <time>2015-08-16T10:49:04Z</time>
      </trkpt>
      <trkpt lat="45.896923989057541" lon="7.754815528169274">
        <ele>2484.6599999999999</ele>
        <time>2015-08-16T10:49:29Z</time>
      </trkpt>
      <trkpt lat="45.896879145875573" lon="7.754788035526872">
        <ele>2483.6999999999998</ele>
        <time>2015-08-16T10:49:45Z</time>
      </trkpt>
      <trkpt lat="45.896907476708293" lon="7.75481577962637">
        <ele>2483.2199999999998</ele>
        <time>2015-08-16T10:50:12Z</time>
      </trkpt>
      <trkpt lat="45.896905716508627" lon="7.754795160144568">
        <ele>2483.6999999999998</ele>
        <time>2015-08-16T10:50:29Z</time>
      </trkpt>
      <trkpt lat="45.89690831489861" lon="7.75481041520834">
        <ele>2483.2199999999998</ele>
        <time>2015-08-16T10:50:47Z</time>
      </trkpt>
      <trkpt lat="45.89687998406589" lon="7.754789544269443">
        <ele>2483.2199999999998</ele>
        <time>2015-08-16T10:51:11Z</time>
      </trkpt>
      <trkpt lat="45.896882247179747" lon="7.754798848181963">
        <ele>2483.6999999999998</ele>
        <time>2015-08-16T10:51:32Z</time>
      </trkpt>
      <trkpt lat="45.896883001551032" lon="7.754797507077456">
        <ele>2483.2199999999998</ele>
        <time>2015-08-16T10:51:42Z</time>
      </trkpt>
      <trkpt lat="45.896887527778745" lon="7.754794154316187">
        <ele>2483.2199999999998</ele>
        <time>2015-08-16T10:52:00Z</time>
      </trkpt>
      <trkpt lat="45.896891299635172" lon="7.754798261448741">
        <ele>2482.7399999999998</ele>
        <time>2015-08-16T10:52:19Z</time>
      </trkpt>
      <trkpt lat="45.896915188059211" lon="7.754782671108842">
        <ele>2484.1799999999998</ele>
        <time>2015-08-16T10:52:26Z</time>
      </trkpt>
      <trkpt lat="45.896907225251198" lon="7.75478158146143">
        <ele>2484.1799999999998</ele>
        <time>2015-08-16T10:52:45Z</time>
      </trkpt>
      <trkpt lat="45.896906722337008" lon="7.754765655845404">
        <ele>2484.1799999999998</ele>
        <time>2015-08-16T10:52:54Z</time>
      </trkpt>
      <trkpt lat="45.896905548870564" lon="7.75475274771452">
        <ele>2483.6999999999998</ele>
        <time>2015-08-16T10:53:12Z</time>
      </trkpt>
      <trkpt lat="45.896908063441515" lon="7.754758363589644">
        <ele>2484.1799999999998</ele>
        <time>2015-08-16T10:53:23Z</time>
      </trkpt>
      <trkpt lat="45.896962126716971" lon="7.754761213436723">
        <ele>2485.1500000000001</ele>
        <time>2015-08-16T10:53:33Z</time>
      </trkpt>
      <trkpt lat="45.897024823352695" lon="7.754723578691483">
        <ele>2487.0700000000002</ele>
        <time>2015-08-16T10:53:44Z</time>
      </trkpt>
      <trkpt lat="45.8970539085567" lon="7.754744701087475">
        <ele>2487.5500000000002</ele>
        <time>2015-08-16T10:53:53Z</time>
      </trkpt>
      <trkpt lat="45.897099087014794" lon="7.754695247858763">
        <ele>2488.9899999999998</ele>
        <time>2015-08-16T10:54:04Z</time>
      </trkpt>
      <trkpt lat="45.897155832499266" lon="7.754692900925875">
        <ele>2490.9099999999999</ele>
        <time>2015-08-16T10:54:15Z</time>
      </trkpt>
      <trkpt lat="45.897189108654857" lon="7.754739504307509">
        <ele>2491.8699999999999</ele>
        <time>2015-08-16T10:54:23Z</time>
      </trkpt>
      <trkpt lat="45.897222133353353" lon="7.754749478772283">
        <ele>2493.3200000000002</ele>
        <time>2015-08-16T10:54:34Z</time>
      </trkpt>
      <trkpt lat="45.897260019555688" lon="7.75480848737061">
        <ele>2495.2399999999998</ele>
        <time>2015-08-16T10:54:44Z</time>
      </trkpt>
      <trkpt lat="45.897295726463199" lon="7.75481678545475">
        <ele>2496.6799999999998</ele>
        <time>2015-08-16T10:54:56Z</time>
      </trkpt>
      <trkpt lat="45.897329756990075" lon="7.754855761304498">
        <ele>2497.6399999999999</ele>
        <time>2015-08-16T10:55:07Z</time>
      </trkpt>
      <trkpt lat="45.897357752546668" lon="7.754879062995315">
        <ele>2499.5700000000002</ele>
        <time>2015-08-16T10:55:16Z</time>
      </trkpt>
      <trkpt lat="45.897377366200089" lon="7.754920804873109">
        <ele>2500.0500000000002</ele>
        <time>2015-08-16T10:55:25Z</time>
      </trkpt>
      <trkpt lat="45.897387592121959" lon="7.754948046058416">
        <ele>2501.0100000000002</ele>
        <time>2015-08-16T10:55:30Z</time>
      </trkpt>
      <trkpt lat="45.897395135834813" lon="7.755024908110499">
        <ele>2502.9299999999998</ele>
        <time>2015-08-16T10:55:39Z</time>
      </trkpt>
      <trkpt lat="45.8974321000278" lon="7.755065727978945">
        <ele>2504.3699999999999</ele>
        <time>2015-08-16T10:55:49Z</time>
      </trkpt>
      <trkpt lat="45.897510135546327" lon="7.755086934193969">
        <ele>2505.3299999999999</ele>
        <time>2015-08-16T10:56:00Z</time>
      </trkpt>
      <trkpt lat="45.897568641230464" lon="7.755120461806655">
        <ele>2506.77</ele>
        <time>2015-08-16T10:56:11Z</time>
      </trkpt>
      <trkpt lat="45.89760216884315" lon="7.755187265574932">
        <ele>2508.2199999999998</ele>
        <time>2015-08-16T10:56:22Z</time>
      </trkpt>
      <trkpt lat="45.89764810167253" lon="7.755225570872426">
        <ele>2510.1399999999999</ele>
        <time>2015-08-16T10:56:33Z</time>
      </trkpt>
      <trkpt lat="45.897688083350658" lon="7.755239484831691">
        <ele>2511.5799999999999</ele>
        <time>2015-08-16T10:56:43Z</time>
      </trkpt>
      <trkpt lat="45.89775706641376" lon="7.755247950553894">
        <ele>2513.02</ele>
        <time>2015-08-16T10:56:53Z</time>
      </trkpt>
      <trkpt lat="45.897808698937297" lon="7.755322717130184">
        <ele>2513.98</ele>
        <time>2015-08-16T10:57:03Z</time>
      </trkpt>
      <trkpt lat="45.897876257076859" lon="7.755371835082769">
        <ele>2514.9499999999998</ele>
        <time>2015-08-16T10:57:13Z</time>
      </trkpt>
      <trkpt lat="45.897930236533284" lon="7.755466969683766">
        <ele>2516.3899999999999</ele>
        <time>2015-08-16T10:57:24Z</time>
      </trkpt>
      <trkpt lat="45.897972816601396" lon="7.755555231124163">
        <ele>2517.8299999999999</ele>
        <time>2015-08-16T10:57:34Z</time>
      </trkpt>
      <trkpt lat="45.89801799505949" lon="7.755592195317149">
        <ele>2518.3099999999999</ele>
        <time>2015-08-16T10:57:41Z</time>
      </trkpt>
      <trkpt lat="45.898064682260156" lon="7.755583478137851">
        <ele>2518.79</ele>
        <time>2015-08-16T10:57:46Z</time>
      </trkpt>
      <trkpt lat="45.89812645688653" lon="7.755603594705463">
        <ele>2519.75</ele>
        <time>2015-08-16T10:57:55Z</time>
      </trkpt>
      <trkpt lat="45.898209605365992" lon="7.75562304072082">
        <ele>2521.6799999999998</ele>
        <time>2015-08-16T10:58:06Z</time>
      </trkpt>
      <trkpt lat="45.898270709440112" lon="7.755654808133841">
        <ele>2522.6399999999999</ele>
        <time>2015-08-16T10:58:16Z</time>
      </trkpt>
      <trkpt lat="45.898336004465818" lon="7.755680875852704">
        <ele>2524.0799999999999</ele>
        <time>2015-08-16T10:58:26Z</time>
      </trkpt>
      <trkpt lat="45.898392498493195" lon="7.755693951621652">
        <ele>2526</ele>
        <time>2015-08-16T10:58:34Z</time>
      </trkpt>
      <trkpt lat="45.898462822660804" lon="7.755781458690763">
        <ele>2527.4400000000001</ele>
        <time>2015-08-16T10:58:46Z</time>
      </trkpt>
      <trkpt lat="45.898515796288848" lon="7.755820602178574">
        <ele>2528.8899999999999</ele>
        <time>2015-08-16T10:58:56Z</time>
      </trkpt>
      <trkpt lat="45.898565920069814" lon="7.755871647968888">
        <ele>2530.8099999999999</ele>
        <time>2015-08-16T10:59:06Z</time>
      </trkpt>
      <trkpt lat="45.898581929504871" lon="7.755909534171224">
        <ele>2531.29</ele>
        <time>2015-08-16T10:59:10Z</time>
      </trkpt>
      <trkpt lat="45.898669604212046" lon="7.755977930501103">
        <ele>2532.25</ele>
        <time>2015-08-16T10:59:22Z</time>
      </trkpt>
      <trkpt lat="45.898738168179989" lon="7.756050014868379">
        <ele>2533.6900000000001</ele>
        <time>2015-08-16T10:59:33Z</time>
      </trkpt>
      <trkpt lat="45.898784687742591" lon="7.756108352914453">
        <ele>2535.1300000000001</ele>
        <time>2015-08-16T10:59:42Z</time>
      </trkpt>
      <trkpt lat="45.898842941969633" lon="7.75615562684834">
        <ele>2536.0999999999999</ele>
        <time>2015-08-16T10:59:51Z</time>
      </trkpt>
      <trkpt lat="45.898906895890832" lon="7.756211953237653">
        <ele>2537.54</ele>
        <time>2015-08-16T11:00:02Z</time>
      </trkpt>
      <trkpt lat="45.898986859247088" lon="7.756256880238652">
        <ele>2539.46</ele>
        <time>2015-08-16T11:00:13Z</time>
      </trkpt>
      <trkpt lat="45.89902457781136" lon="7.756243720650673">
        <ele>2539.9400000000001</ele>
        <time>2015-08-16T11:00:18Z</time>
      </trkpt>
      <trkpt lat="45.899116192013025" lon="7.756203571334481">
        <ele>2541.3800000000001</ele>
        <time>2015-08-16T11:00:31Z</time>
      </trkpt>
      <trkpt lat="45.899166651070118" lon="7.756124529987574">
        <ele>2543.3099999999999</ele>
        <time>2015-08-16T11:00:43Z</time>
      </trkpt>
      <trkpt lat="45.899199927225709" lon="7.756056133657694">
        <ele>2545.23</ele>
        <time>2015-08-16T11:00:54Z</time>
      </trkpt>
      <trkpt lat="45.899247704073787" lon="7.756028054282069">
        <ele>2546.6700000000001</ele>
        <time>2015-08-16T11:01:04Z</time>
      </trkpt>
      <trkpt lat="45.899286177009344" lon="7.756021684035659">
        <ele>2548.1100000000001</ele>
        <time>2015-08-16T11:01:14Z</time>
      </trkpt>
      <trkpt lat="45.899306545034051" lon="7.755968123674393">
        <ele>2550.0300000000002</ele>
        <time>2015-08-16T11:01:25Z</time>
      </trkpt>
      <trkpt lat="45.899326661601663" lon="7.755925543606281">
        <ele>2551</ele>
        <time>2015-08-16T11:01:34Z</time>
      </trkpt>
      <trkpt lat="45.899354238063097" lon="7.755899811163545">
        <ele>2552.4400000000001</ele>
        <time>2015-08-16T11:01:44Z</time>
      </trkpt>
      <trkpt lat="45.899353232234716" lon="7.755871815606952">
        <ele>2553.8800000000001</ele>
        <time>2015-08-16T11:01:56Z</time>
      </trkpt>
      <trkpt lat="45.899395393207669" lon="7.755897296592593">
        <ele>2554.8400000000001</ele>
        <time>2015-08-16T11:02:06Z</time>
      </trkpt>
      <trkpt lat="45.899407546967268" lon="7.755884472280741">
        <ele>2555.8000000000002</ele>
        <time>2015-08-16T11:02:17Z</time>
      </trkpt>
      <trkpt lat="45.899445433169603" lon="7.755870642140508">
        <ele>2556.7600000000002</ele>
        <time>2015-08-16T11:02:27Z</time>
      </trkpt>
      <trkpt lat="45.899487845599651" lon="7.755894530564547">
        <ele>2558.21</ele>
        <time>2015-08-16T11:02:38Z</time>
      </trkpt>
      <trkpt lat="45.899493545293808" lon="7.755867121741176">
        <ele>2559.6500000000001</ele>
        <time>2015-08-16T11:02:47Z</time>
      </trkpt>
      <trkpt lat="45.899532604962587" lon="7.755904840305448">
        <ele>2561.0900000000001</ele>
        <time>2015-08-16T11:02:57Z</time>
      </trkpt>
      <trkpt lat="45.899556409567595" lon="7.755880281329155">
        <ele>2561.5700000000002</ele>
        <time>2015-08-16T11:03:08Z</time>
      </trkpt>
      <trkpt lat="45.89959186501801" lon="7.755880700424314">
        <ele>2563.4899999999998</ele>
        <time>2015-08-16T11:03:16Z</time>
      </trkpt>
      <trkpt lat="45.899619609117508" lon="7.755878353491426">
        <ele>2564.9299999999998</ele>
        <time>2015-08-16T11:03:25Z</time>
      </trkpt>
      <trkpt lat="45.899636456742883" lon="7.755879610776901">
        <ele>2566.3800000000001</ele>
        <time>2015-08-16T11:03:34Z</time>
      </trkpt>
      <trkpt lat="45.899669313803315" lon="7.755862176418304">
        <ele>2567.8200000000002</ele>
        <time>2015-08-16T11:03:45Z</time>
      </trkpt>
      <trkpt lat="45.89967442676425" lon="7.755837282165885">
        <ele>2568.7800000000002</ele>
        <time>2015-08-16T11:03:54Z</time>
      </trkpt>
      <trkpt lat="45.899648778140545" lon="7.755784308537841">
        <ele>2569.7399999999998</ele>
        <time>2015-08-16T11:04:03Z</time>
      </trkpt>
      <trkpt lat="45.899618603289127" lon="7.755698477849364">
        <ele>2571.1799999999998</ele>
        <time>2015-08-16T11:04:15Z</time>
      </trkpt>
      <trkpt lat="45.899604689329863" lon="7.755614910274744">
        <ele>2572.6300000000001</ele>
        <time>2015-08-16T11:04:27Z</time>
      </trkpt>
      <trkpt lat="45.899662943556905" lon="7.755646426230669">
        <ele>2574.0700000000002</ele>
        <time>2015-08-16T11:04:38Z</time>
      </trkpt>
      <trkpt lat="45.899712983518839" lon="7.755672996863723">
        <ele>2575.5100000000002</ele>
        <time>2015-08-16T11:04:48Z</time>
      </trkpt>
      <trkpt lat="45.899746092036366" lon="7.755723707377911">
        <ele>2576.9499999999998</ele>
        <time>2015-08-16T11:04:57Z</time>
      </trkpt>
      <trkpt lat="45.899777021259069" lon="7.755715828388929">
        <ele>2578.3899999999999</ele>
        <time>2015-08-16T11:05:06Z</time>
      </trkpt>
      <trkpt lat="45.89973452500999" lon="7.755622286349535">
        <ele>2579.8400000000001</ele>
        <time>2015-08-16T11:05:19Z</time>
      </trkpt>
      <trkpt lat="45.899729244410992" lon="7.755565708503127">
        <ele>2580.8000000000002</ele>
        <time>2015-08-16T11:05:28Z</time>
      </trkpt>
      <trkpt lat="45.899694375693798" lon="7.755471579730511">
        <ele>2582.7199999999998</ele>
        <time>2015-08-16T11:05:40Z</time>
      </trkpt>
      <trkpt lat="45.899655483663082" lon="7.755378792062402">
        <ele>2583.6799999999998</ele>
        <time>2015-08-16T11:05:52Z</time>
      </trkpt>
      <trkpt lat="45.899648107588291" lon="7.755323052406311">
        <ele>2585.1199999999999</ele>
        <time>2015-08-16T11:06:02Z</time>
      </trkpt>
      <trkpt lat="45.899641737341881" lon="7.755248118191958">
        <ele>2586.0799999999999</ele>
        <time>2015-08-16T11:06:14Z</time>
      </trkpt>
      <trkpt lat="45.899685909971595" lon="7.755305534228683">
        <ele>2588.0100000000002</ele>
        <time>2015-08-16T11:06:26Z</time>
      </trkpt>
      <trkpt lat="45.899731842800975" lon="7.755328249186277">
        <ele>2589.4499999999998</ele>
        <time>2015-08-16T11:06:38Z</time>
      </trkpt>
      <trkpt lat="45.89978146366775" lon="7.755347779020667">
        <ele>2589.9299999999998</ele>
        <time>2015-08-16T11:06:49Z</time>
      </trkpt>
      <trkpt lat="45.899803591892123" lon="7.755353646352887">
        <ele>2591.8499999999999</ele>
        <time>2015-08-16T11:06:57Z</time>
      </trkpt>
      <trkpt lat="45.899834521114826" lon="7.755398657172918">
        <ele>2593.77</ele>
        <time>2015-08-16T11:07:05Z</time>
      </trkpt>
      <trkpt lat="45.899839634075761" lon="7.755404524505138">
        <ele>2593.77</ele>
        <time>2015-08-16T11:07:06Z</time>
      </trkpt>
      <trkpt lat="45.899912221357226" lon="7.755455067381263">
        <ele>2595.2199999999998</ele>
        <time>2015-08-16T11:07:19Z</time>
      </trkpt>
      <trkpt lat="45.899956980720162" lon="7.755503514781594">
        <ele>2596.6599999999999</ele>
        <time>2015-08-16T11:07:30Z</time>
      </trkpt>
      <trkpt lat="45.900003248825669" lon="7.75551114231348">
        <ele>2598.0999999999999</ele>
        <time>2015-08-16T11:07:40Z</time>
      </trkpt>
      <trkpt lat="45.900049014016986" lon="7.755551459267736">
        <ele>2600.02</ele>
        <time>2015-08-16T11:07:53Z</time>
      </trkpt>
      <trkpt lat="45.90008488856256" lon="7.755575766786933">
        <ele>2601.46</ele>
        <time>2015-08-16T11:08:03Z</time>
      </trkpt>
      <trkpt lat="45.900112297385931" lon="7.755591608583927">
        <ele>2601.9499999999998</ele>
        <time>2015-08-16T11:08:12Z</time>
      </trkpt>
      <trkpt lat="45.900140879675746" lon="7.755614994093776">
        <ele>2603.8699999999999</ele>
        <time>2015-08-16T11:08:24Z</time>
      </trkpt>
      <trkpt lat="45.900179352611303" lon="7.755635194480419">
        <ele>2605.3099999999999</ele>
        <time>2015-08-16T11:08:33Z</time>
      </trkpt>
      <trkpt lat="45.900230817496777" lon="7.755682468414307">
        <ele>2607.23</ele>
        <time>2015-08-16T11:08:44Z</time>
      </trkpt>
      <trkpt lat="45.900282450020313" lon="7.755741309374571">
        <ele>2608.6700000000001</ele>
        <time>2015-08-16T11:08:57Z</time>
      </trkpt>
      <trkpt lat="45.900335507467389" lon="7.755773160606623">
        <ele>2610.1199999999999</ele>
        <time>2015-08-16T11:09:09Z</time>
      </trkpt>
      <trkpt lat="45.900380602106452" lon="7.755825128406286">
        <ele>2612.04</ele>
        <time>2015-08-16T11:09:21Z</time>
      </trkpt>
      <trkpt lat="45.900449166074395" lon="7.755891680717468">
        <ele>2613.48</ele>
        <time>2015-08-16T11:09:35Z</time>
      </trkpt>
      <trkpt lat="45.900500798597932" lon="7.755968794226646">
        <ele>2614.9200000000001</ele>
        <time>2015-08-16T11:09:45Z</time>
      </trkpt>
      <trkpt lat="45.900560226291418" lon="7.756017157807946">
        <ele>2615.8800000000001</ele>
        <time>2015-08-16T11:09:57Z</time>
      </trkpt>
      <trkpt lat="45.900581013411283" lon="7.756017241626978">
        <ele>2617.3299999999999</ele>
        <time>2015-08-16T11:10:02Z</time>
      </trkpt>
      <trkpt lat="45.900614205747843" lon="7.756049763411284">
        <ele>2617.3299999999999</ele>
        <time>2015-08-16T11:10:13Z</time>
      </trkpt>
      <trkpt lat="45.900628538802266" lon="7.756051020696759">
        <ele>2618.77</ele>
        <time>2015-08-16T11:10:15Z</time>
      </trkpt>
      <trkpt lat="45.900673968717456" lon="7.756069209426642">
        <ele>2621.1700000000001</ele>
        <time>2015-08-16T11:10:29Z</time>
      </trkpt>
      <trkpt lat="45.900730127468705" lon="7.756115728989244">
        <ele>2623.0900000000001</ele>
        <time>2015-08-16T11:10:41Z</time>
      </trkpt>
      <trkpt lat="45.900771366432309" lon="7.756110951304436">
        <ele>2624.54</ele>
        <time>2015-08-16T11:10:52Z</time>
      </trkpt>
      <trkpt lat="45.900816209614277" lon="7.756146155297756">
        <ele>2626.46</ele>
        <time>2015-08-16T11:11:03Z</time>
      </trkpt>
      <trkpt lat="45.900867842137814" lon="7.756150932982564">
        <ele>2628.3800000000001</ele>
        <time>2015-08-16T11:11:14Z</time>
      </trkpt>
      <trkpt lat="45.900928527116776" lon="7.756200134754181">
        <ele>2629.3400000000001</ele>
        <time>2015-08-16T11:11:25Z</time>
      </trkpt>
      <trkpt lat="45.900964569300413" lon="7.756211282685399">
        <ele>2630.79</ele>
        <time>2015-08-16T11:11:35Z</time>
      </trkpt>
      <trkpt lat="45.901000862941146" lon="7.7562215924263">
        <ele>2632.23</ele>
        <time>2015-08-16T11:11:45Z</time>
      </trkpt>
      <trkpt lat="45.90108317323029" lon="7.756250509992242">
        <ele>2634.1500000000001</ele>
        <time>2015-08-16T11:12:01Z</time>
      </trkpt>
      <trkpt lat="45.901112090796232" lon="7.7562509290874">
        <ele>2635.5900000000001</ele>
        <time>2015-08-16T11:12:10Z</time>
      </trkpt>
      <trkpt lat="45.901117874309421" lon="7.756283702328801">
        <ele>2636.0700000000002</ele>
        <time>2015-08-16T11:12:20Z</time>
      </trkpt>
      <trkpt lat="45.901118712499738" lon="7.756298035383225">
        <ele>2636.0700000000002</ele>
        <time>2015-08-16T11:12:32Z</time>
      </trkpt>
      <trkpt lat="45.90110907331109" lon="7.756295185536146">
        <ele>2636.0700000000002</ele>
        <time>2015-08-16T11:12:51Z</time>
      </trkpt>
      <trkpt lat="45.90112030506134" lon="7.75629099458456">
        <ele>2636.0700000000002</ele>
        <time>2015-08-16T11:13:11Z</time>
      </trkpt>
      <trkpt lat="45.901125501841307" lon="7.756269033998251">
        <ele>2636.0700000000002</ele>
        <time>2015-08-16T11:13:28Z</time>
      </trkpt>
      <trkpt lat="45.901121813803911" lon="7.756294431164861">
        <ele>2636.0700000000002</ele>
        <time>2015-08-16T11:13:50Z</time>
      </trkpt>
      <trkpt lat="45.901121310889721" lon="7.756295269355178">
        <ele>2636.5500000000002</ele>
        <time>2015-08-16T11:14:07Z</time>
      </trkpt>
      <trkpt lat="45.9011603705585" lon="7.756287809461355">
        <ele>2637.0300000000002</ele>
        <time>2015-08-16T11:14:16Z</time>
      </trkpt>
      <trkpt lat="45.901167159900069" lon="7.756288982927799">
        <ele>2638.48</ele>
        <time>2015-08-16T11:14:18Z</time>
      </trkpt>
      <trkpt lat="45.901217116042972" lon="7.756293760612607">
        <ele>2638.96</ele>
        <time>2015-08-16T11:14:30Z</time>
      </trkpt>
      <trkpt lat="45.901271598413587" lon="7.756316140294075">
        <ele>2640.4000000000001</ele>
        <time>2015-08-16T11:14:41Z</time>
      </trkpt>
      <trkpt lat="45.901357345283031" lon="7.756368862465024">
        <ele>2641.3600000000001</ele>
        <time>2015-08-16T11:14:54Z</time>
      </trkpt>
      <trkpt lat="45.901402188464999" lon="7.756379172205925">
        <ele>2642.8000000000002</ele>
        <time>2015-08-16T11:15:04Z</time>
      </trkpt>
      <trkpt lat="45.901471171528101" lon="7.756417980417609">
        <ele>2643.7600000000002</ele>
        <time>2015-08-16T11:15:17Z</time>
      </trkpt>
      <trkpt lat="45.901520289480686" lon="7.756429798901081">
        <ele>2645.6900000000001</ele>
        <time>2015-08-16T11:15:29Z</time>
      </trkpt>
      <trkpt lat="45.901572341099381" lon="7.756453603506088">
        <ele>2647.1300000000001</ele>
        <time>2015-08-16T11:15:39Z</time>
      </trkpt>
      <trkpt lat="45.901638558134437" lon="7.756505152210593">
        <ele>2648.5700000000002</ele>
        <time>2015-08-16T11:15:51Z</time>
      </trkpt>
      <trkpt lat="45.901718689128757" lon="7.756560808047652">
        <ele>2649.5300000000002</ele>
        <time>2015-08-16T11:16:02Z</time>
      </trkpt>
      <trkpt lat="45.901820445433259" lon="7.756622163578868">
        <ele>2649.5300000000002</ele>
        <time>2015-08-16T11:16:17Z</time>
      </trkpt>
      <trkpt lat="45.901911137625575" lon="7.756654685363174">
        <ele>2652.4200000000001</ele>
        <time>2015-08-16T11:16:28Z</time>
      </trkpt>
      <trkpt lat="45.901918513700366" lon="7.756663151085377">
        <ele>2652.9000000000001</ele>
        <time>2015-08-16T11:16:29Z</time>
      </trkpt>
      <trkpt lat="45.901934858411551" lon="7.756674299016595">
        <ele>2652.4200000000001</ele>
        <time>2015-08-16T11:16:31Z</time>
      </trkpt>
      <trkpt lat="45.902055557817221" lon="7.756708329543471">
        <ele>2654.3400000000001</ele>
        <time>2015-08-16T11:16:44Z</time>
      </trkpt>
      <trkpt lat="45.902132922783494" lon="7.756692320108414">
        <ele>2655.7800000000002</ele>
        <time>2015-08-16T11:16:55Z</time>
      </trkpt>
      <trkpt lat="45.90219721198082" lon="7.756688464432955">
        <ele>2657.2199999999998</ele>
        <time>2015-08-16T11:17:07Z</time>
      </trkpt>
      <trkpt lat="45.902237361297011" lon="7.756723081693053">
        <ele>2659.1399999999999</ele>
        <time>2015-08-16T11:17:17Z</time>
      </trkpt>
      <trkpt lat="45.902276001870632" lon="7.756747305393219">
        <ele>2660.1100000000001</ele>
        <time>2015-08-16T11:17:27Z</time>
      </trkpt>
      <trkpt lat="45.902279606088996" lon="7.756713610142469">
        <ele>2661.5500000000002</ele>
        <time>2015-08-16T11:17:37Z</time>
      </trkpt>
      <trkpt lat="45.902266949415207" lon="7.756657702848315">
        <ele>2663.4699999999998</ele>
        <time>2015-08-16T11:17:48Z</time>
      </trkpt>
      <trkpt lat="45.902319587767124" lon="7.756696343421936">
        <ele>2664.9099999999999</ele>
        <time>2015-08-16T11:17:58Z</time>
      </trkpt>
      <trkpt lat="45.902345906943083" lon="7.756742695346475">
        <ele>2665.8699999999999</ele>
        <time>2015-08-16T11:18:08Z</time>
      </trkpt>
      <trkpt lat="45.902360239997506" lon="7.756794830784202">
        <ele>2667.3099999999999</ele>
        <time>2015-08-16T11:18:16Z</time>
      </trkpt>
      <trkpt lat="45.902383793145418" lon="7.756804721429944">
        <ele>2668.7600000000002</ele>
        <time>2015-08-16T11:18:26Z</time>
      </trkpt>
      <trkpt lat="45.902452021837234" lon="7.756841098889709">
        <ele>2669.7199999999998</ele>
        <time>2015-08-16T11:18:38Z</time>
      </trkpt>
      <trkpt lat="45.902479514479637" lon="7.756859622895718">
        <ele>2670.6799999999998</ele>
        <time>2015-08-16T11:18:47Z</time>
      </trkpt>
      <trkpt lat="45.902519579976797" lon="7.75685777887702">
        <ele>2671.1599999999999</ele>
        <time>2015-08-16T11:18:57Z</time>
      </trkpt>
      <trkpt lat="45.902583114802837" lon="7.756870435550809">
        <ele>2672.5999999999999</ele>
        <time>2015-08-16T11:19:09Z</time>
      </trkpt>
      <trkpt lat="45.902630891650915" lon="7.756917709484696">
        <ele>2673.5599999999999</ele>
        <time>2015-08-16T11:19:19Z</time>
      </trkpt>
      <trkpt lat="45.902667939662933" lon="7.756953164935112">
        <ele>2675.0100000000002</ele>
        <time>2015-08-16T11:19:29Z</time>
      </trkpt>
      <trkpt lat="45.902729127556086" lon="7.756995242089033">
        <ele>2674.52</ele>
        <time>2015-08-16T11:19:38Z</time>
      </trkpt>
      <trkpt lat="45.902799535542727" lon="7.757047461345792">
        <ele>2675.9699999999998</ele>
        <time>2015-08-16T11:19:49Z</time>
      </trkpt>
      <trkpt lat="45.902862651273608" lon="7.757093645632267">
        <ele>2675.9699999999998</ele>
        <time>2015-08-16T11:20:00Z</time>
      </trkpt>
      <trkpt lat="45.90291503816843" lon="7.757102278992534">
        <ele>2677.8899999999999</ele>
        <time>2015-08-16T11:20:12Z</time>
      </trkpt>
      <trkpt lat="45.902941189706326" lon="7.757101859897375">
        <ele>2680.29</ele>
        <time>2015-08-16T11:20:20Z</time>
      </trkpt>
      <trkpt lat="45.90293456800282" lon="7.757092388346791">
        <ele>2678.8499999999999</ele>
        <time>2015-08-16T11:20:37Z</time>
      </trkpt>
      <trkpt lat="45.902937585487962" lon="7.757106721401215">
        <ele>2679.3299999999999</ele>
        <time>2015-08-16T11:20:51Z</time>
      </trkpt>
      <trkpt lat="45.902946889400482" lon="7.757097585126758">
        <ele>2679.3299999999999</ele>
        <time>2015-08-16T11:21:09Z</time>
      </trkpt>
      <trkpt lat="45.902940183877945" lon="7.757102781906724">
        <ele>2679.3299999999999</ele>
        <time>2015-08-16T11:21:33Z</time>
      </trkpt>
      <trkpt lat="45.902959294617176" lon="7.757080905139446">
        <ele>2679.3299999999999</ele>
        <time>2015-08-16T11:21:54Z</time>
      </trkpt>
      <trkpt lat="45.903004556894302" lon="7.757114851847291">
        <ele>2679.8099999999999</ele>
        <time>2015-08-16T11:22:05Z</time>
      </trkpt>
      <trkpt lat="45.903065158054233" lon="7.757136980071664">
        <ele>2680.77</ele>
        <time>2015-08-16T11:22:16Z</time>
      </trkpt>
      <trkpt lat="45.90312022715807" lon="7.757185846567154">
        <ele>2682.2199999999998</ele>
        <time>2015-08-16T11:22:26Z</time>
      </trkpt>
      <trkpt lat="45.90316716581583" lon="7.757229097187519">
        <ele>2683.1799999999998</ele>
        <time>2015-08-16T11:22:35Z</time>
      </trkpt>
      <trkpt lat="45.903226090595126" lon="7.757280310615897">
        <ele>2684.6199999999999</ele>
        <time>2015-08-16T11:22:45Z</time>
      </trkpt>
      <trkpt lat="45.903280489146709" lon="7.757361698895693">
        <ele>2685.5799999999999</ele>
        <time>2015-08-16T11:22:57Z</time>
      </trkpt>
      <trkpt lat="45.903287027031183" lon="7.757375026121736">
        <ele>2685.5799999999999</ele>
        <time>2015-08-16T11:22:59Z</time>
      </trkpt>
      <trkpt lat="45.903339916840196" lon="7.757436549291015">
        <ele>2686.0599999999999</ele>
        <time>2015-08-16T11:23:08Z</time>
      </trkpt>
      <trkpt lat="45.90339976362884" lon="7.757460689172149">
        <ele>2687.5</ele>
        <time>2015-08-16T11:23:19Z</time>
      </trkpt>
      <trkpt lat="45.90342222712934" lon="7.757483990862966">
        <ele>2687.5</ele>
        <time>2015-08-16T11:23:23Z</time>
      </trkpt>
      <trkpt lat="45.903482744470239" lon="7.757558422163129">
        <ele>2688.46</ele>
        <time>2015-08-16T11:23:34Z</time>
      </trkpt>
      <trkpt lat="45.903542172163725" lon="7.757580298930407">
        <ele>2689.4299999999998</ele>
        <time>2015-08-16T11:23:44Z</time>
      </trkpt>
      <trkpt lat="45.903589865192771" lon="7.757633272558451">
        <ele>2690.8699999999999</ele>
        <time>2015-08-16T11:23:53Z</time>
      </trkpt>
      <trkpt lat="45.903627835214138" lon="7.757636206224561">
        <ele>2692.79</ele>
        <time>2015-08-16T11:24:05Z</time>
      </trkpt>
      <trkpt lat="45.903665469959378" lon="7.757636709138751">
        <ele>2694.23</ele>
        <time>2015-08-16T11:24:17Z</time>
      </trkpt>
      <trkpt lat="45.903637977316976" lon="7.75757510215044">
        <ele>2696.1500000000001</ele>
        <time>2015-08-16T11:24:29Z</time>
      </trkpt>
      <trkpt lat="45.90362842194736" lon="7.75749396532774">
        <ele>2697.5999999999999</ele>
        <time>2015-08-16T11:24:41Z</time>
      </trkpt>
      <trkpt lat="45.90368265286088" lon="7.757530761882663">
        <ele>2699.04</ele>
        <time>2015-08-16T11:24:51Z</time>
      </trkpt>
      <trkpt lat="45.903735207393765" lon="7.757549704983831">
        <ele>2700.48</ele>
        <time>2015-08-16T11:25:02Z</time>
      </trkpt>
      <trkpt lat="45.903760185465217" lon="7.757547944784164">
        <ele>2701.4400000000001</ele>
        <time>2015-08-16T11:25:12Z</time>
      </trkpt>
      <trkpt lat="45.903811482712626" lon="7.757557583972812">
        <ele>2703.3600000000001</ele>
        <time>2015-08-16T11:25:22Z</time>
      </trkpt>
      <trkpt lat="45.903860768303275" lon="7.757574850693345">
        <ele>2705.29</ele>
        <time>2015-08-16T11:25:37Z</time>
      </trkpt>
      <trkpt lat="45.903891194611788" lon="7.757577951997519">
        <ele>2706.25</ele>
        <time>2015-08-16T11:25:45Z</time>
      </trkpt>
      <trkpt lat="45.903956321999431" lon="7.75762103497982">
        <ele>2708.1700000000001</ele>
        <time>2015-08-16T11:25:58Z</time>
      </trkpt>
      <trkpt lat="45.904013905674219" lon="7.757669566199184">
        <ele>2709.6100000000001</ele>
        <time>2015-08-16T11:26:10Z</time>
      </trkpt>
      <trkpt lat="45.904065873473883" lon="7.757656993344426">
        <ele>2710.5700000000002</ele>
        <time>2015-08-16T11:26:22Z</time>
      </trkpt>
      <trkpt lat="45.904097808524966" lon="7.757667470723391">
        <ele>2712.5</ele>
        <time>2015-08-16T11:26:33Z</time>
      </trkpt>
      <trkpt lat="45.904132928699255" lon="7.757677529007196">
        <ele>2713.46</ele>
        <time>2015-08-16T11:26:42Z</time>
      </trkpt>
      <trkpt lat="45.904119936749339" lon="7.757613742724061">
        <ele>2715.3800000000001</ele>
        <time>2015-08-16T11:26:55Z</time>
      </trkpt>
      <trkpt lat="45.904080457985401" lon="7.757568815723062">
        <ele>2717.3000000000002</ele>
        <time>2015-08-16T11:27:07Z</time>
      </trkpt>
      <trkpt lat="45.904129492118955" lon="7.757557416334748">
        <ele>2718.75</ele>
        <time>2015-08-16T11:27:18Z</time>
      </trkpt>
      <trkpt lat="45.904167294502258" lon="7.757561104372144">
        <ele>2719.23</ele>
        <time>2015-08-16T11:27:27Z</time>
      </trkpt>
      <trkpt lat="45.904213897883892" lon="7.757564540952444">
        <ele>2721.1500000000001</ele>
        <time>2015-08-16T11:27:38Z</time>
      </trkpt>
      <trkpt lat="45.904259998351336" lon="7.757578874006867">
        <ele>2721.6300000000001</ele>
        <time>2015-08-16T11:27:50Z</time>
      </trkpt>
      <trkpt lat="45.904284222051501" lon="7.757594548165798">
        <ele>2723.0700000000002</ele>
        <time>2015-08-16T11:27:56Z</time>
      </trkpt>
      <trkpt lat="45.904300063848495" lon="7.757578622549772">
        <ele>2724.5100000000002</ele>
        <time>2015-08-16T11:28:02Z</time>
      </trkpt>
      <trkpt lat="45.904330741614103" lon="7.757576191797853">
        <ele>2725.48</ele>
        <time>2015-08-16T11:28:10Z</time>
      </trkpt>
      <trkpt lat="45.904381703585386" lon="7.757584238424897">
        <ele>2726.9200000000001</ele>
        <time>2015-08-16T11:28:21Z</time>
      </trkpt>
      <trkpt lat="45.904436353594065" lon="7.75758289732039">
        <ele>2728.3600000000001</ele>
        <time>2015-08-16T11:28:32Z</time>
      </trkpt>
      <trkpt lat="45.90447960421443" lon="7.757581388577819">
        <ele>2730.2800000000002</ele>
        <time>2015-08-16T11:28:44Z</time>
      </trkpt>
      <trkpt lat="45.904550263658166" lon="7.757600834593177">
        <ele>2731.2399999999998</ele>
        <time>2015-08-16T11:28:57Z</time>
      </trkpt>
      <trkpt lat="45.904618073254824" lon="7.757644588127732">
        <ele>2732.6799999999998</ele>
        <time>2015-08-16T11:29:10Z</time>
      </trkpt>
      <trkpt lat="45.904684541746974" lon="7.75767426006496">
        <ele>2734.6100000000001</ele>
        <time>2015-08-16T11:29:22Z</time>
      </trkpt>
      <trkpt lat="45.904733156785369" lon="7.757669063284993">
        <ele>2736.0500000000002</ele>
        <time>2015-08-16T11:29:33Z</time>
      </trkpt>
      <trkpt lat="45.904775904491544" lon="7.757682390511036">
        <ele>2737.9699999999998</ele>
        <time>2015-08-16T11:29:45Z</time>
      </trkpt>
      <trkpt lat="45.904826279729605" lon="7.757672918960452">
        <ele>2739.4099999999999</ele>
        <time>2015-08-16T11:29:56Z</time>
      </trkpt>
      <trkpt lat="45.904885455965996" lon="7.757663195952773">
        <ele>2741.3400000000001</ele>
        <time>2015-08-16T11:30:09Z</time>
      </trkpt>
      <trkpt lat="45.90489786118269" lon="7.757649449631572">
        <ele>2742.3000000000002</ele>
        <time>2015-08-16T11:30:21Z</time>
      </trkpt>
      <trkpt lat="45.904946560040116" lon="7.757651461288333">
        <ele>2743.7399999999998</ele>
        <time>2015-08-16T11:30:32Z</time>
      </trkpt>
      <trkpt lat="45.904997270554304" lon="7.757667722180486">
        <ele>2743.7399999999998</ele>
        <time>2015-08-16T11:30:43Z</time>
      </trkpt>
      <trkpt lat="45.90505669824779" lon="7.757680797949433">
        <ele>2743.7399999999998</ele>
        <time>2015-08-16T11:30:57Z</time>
      </trkpt>
      <trkpt lat="45.905086286365986" lon="7.757679875940085">
        <ele>2749.5100000000002</ele>
        <time>2015-08-16T11:31:06Z</time>
      </trkpt>
      <trkpt lat="45.905112354084849" lon="7.757675936445594">
        <ele>2750.9499999999998</ele>
        <time>2015-08-16T11:31:17Z</time>
      </trkpt>
      <trkpt lat="45.905131632462144" lon="7.757655652239919">
        <ele>2752.8699999999999</ele>
        <time>2015-08-16T11:31:30Z</time>
      </trkpt>
      <trkpt lat="45.905170105397701" lon="7.75765816681087">
        <ele>2754.3099999999999</ele>
        <time>2015-08-16T11:31:43Z</time>
      </trkpt>
      <trkpt lat="45.905198687687516" lon="7.757659507915378">
        <ele>2755.2800000000002</ele>
        <time>2015-08-16T11:31:52Z</time>
      </trkpt>
      <trkpt lat="45.905224336311221" lon="7.757652215659618">
        <ele>2756.7199999999998</ele>
        <time>2015-08-16T11:32:01Z</time>
      </trkpt>
      <trkpt lat="45.905225090682507" lon="7.757655065506697">
        <ele>2756.7199999999998</ele>
        <time>2015-08-16T11:32:19Z</time>
      </trkpt>
      <trkpt lat="45.905272196978331" lon="7.757652886211872">
        <ele>2757.6799999999998</ele>
        <time>2015-08-16T11:32:28Z</time>
      </trkpt>
      <trkpt lat="45.90527119114995" lon="7.757646683603525">
        <ele>2757.6799999999998</ele>
        <time>2015-08-16T11:32:46Z</time>
      </trkpt>
      <trkpt lat="45.905329529196024" lon="7.757648946717382">
        <ele>2758.1599999999999</ele>
        <time>2015-08-16T11:32:57Z</time>
      </trkpt>
      <trkpt lat="45.905426004901528" lon="7.757667638361454">
        <ele>2759.1199999999999</ele>
        <time>2015-08-16T11:33:09Z</time>
      </trkpt>
      <trkpt lat="45.905488952994347" lon="7.757680797949433">
        <ele>2760.5599999999999</ele>
        <time>2015-08-16T11:33:20Z</time>
      </trkpt>
      <trkpt lat="45.905544105917215" lon="7.757681636139751">
        <ele>2762</ele>
        <time>2015-08-16T11:33:30Z</time>
      </trkpt>
      <trkpt lat="45.905614849179983" lon="7.757633356377482">
        <ele>2762.4899999999998</ele>
        <time>2015-08-16T11:33:39Z</time>
      </trkpt>
      <trkpt lat="45.905618956312537" lon="7.757624220103025">
        <ele>2762.4899999999998</ele>
        <time>2015-08-16T11:33:40Z</time>
      </trkpt>
      <trkpt lat="45.905689699575305" lon="7.757601505145431">
        <ele>2761.52</ele>
        <time>2015-08-16T11:33:52Z</time>
      </trkpt>
      <trkpt lat="45.905745020136237" lon="7.757613826543093">
        <ele>2760.0799999999999</ele>
        <time>2015-08-16T11:34:00Z</time>
      </trkpt>
      <trkpt lat="45.90579598210752" lon="7.757636457681656">
        <ele>2759.1199999999999</ele>
        <time>2015-08-16T11:34:05Z</time>
      </trkpt>
      <trkpt lat="45.905906455591321" lon="7.75770896114409">
        <ele>2758.6399999999999</ele>
        <time>2015-08-16T11:34:16Z</time>
      </trkpt>
      <trkpt lat="45.905947107821703" lon="7.757733184844255">
        <ele>2758.1599999999999</ele>
        <time>2015-08-16T11:34:20Z</time>
      </trkpt>
      <trkpt lat="45.90602170675993" lon="7.75776076130569">
        <ele>2760.0799999999999</ele>
        <time>2015-08-16T11:34:32Z</time>
      </trkpt>
      <trkpt lat="45.906077697873116" lon="7.757785655558109">
        <ele>2762</ele>
        <time>2015-08-16T11:34:42Z</time>
      </trkpt>
      <trkpt lat="45.906118601560593" lon="7.75773880071938">
        <ele>2763.4499999999998</ele>
        <time>2015-08-16T11:34:52Z</time>
      </trkpt>
      <trkpt lat="45.906196469441056" lon="7.757731173187494">
        <ele>2764.8899999999999</ele>
        <time>2015-08-16T11:35:04Z</time>
      </trkpt>
      <trkpt lat="45.906272912397981" lon="7.757719019427896">
        <ele>2766.8099999999999</ele>
        <time>2015-08-16T11:35:15Z</time>
      </trkpt>
      <trkpt lat="45.906311804428697" lon="7.757713822647929">
        <ele>2766.8099999999999</ele>
        <time>2015-08-16T11:35:20Z</time>
      </trkpt>
      <trkpt lat="45.906388582661748" lon="7.757661603391171">
        <ele>2767.77</ele>
        <time>2015-08-16T11:35:32Z</time>
      </trkpt>
      <trkpt lat="45.906421020627022" lon="7.757642911747098">
        <ele>2768.73</ele>
        <time>2015-08-16T11:35:40Z</time>
      </trkpt>
      <trkpt lat="45.906415656208992" lon="7.75768700055778">
        <ele>2769.6999999999998</ele>
        <time>2015-08-16T11:35:48Z</time>
      </trkpt>
      <trkpt lat="45.906421188265085" lon="7.757639810442925">
        <ele>2769.6999999999998</ele>
        <time>2015-08-16T11:36:02Z</time>
      </trkpt>
      <trkpt lat="45.90647273696959" lon="7.757644169032574">
        <ele>2768.25</ele>
        <time>2015-08-16T11:36:11Z</time>
      </trkpt>
      <trkpt lat="45.906508779153228" lon="7.757660010829568">
        <ele>2767.29</ele>
        <time>2015-08-16T11:36:19Z</time>
      </trkpt>
      <trkpt lat="45.906538786366582" lon="7.757675517350435">
        <ele>2766.3299999999999</ele>
        <time>2015-08-16T11:36:24Z</time>
      </trkpt>
      <trkpt lat="45.906561836600304" lon="7.757708290591836">
        <ele>2765.8499999999999</ele>
        <time>2015-08-16T11:36:35Z</time>
      </trkpt>
      <trkpt lat="45.906566698104143" lon="7.757708793506026">
        <ele>2765.8499999999999</ele>
        <time>2015-08-16T11:36:49Z</time>
      </trkpt>
      <trkpt lat="45.906619923189282" lon="7.757702339440584">
        <ele>2764.4099999999999</ele>
        <time>2015-08-16T11:37:01Z</time>
      </trkpt>
      <trkpt lat="45.906639620661736" lon="7.757656825706363">
        <ele>2763.9299999999998</ele>
        <time>2015-08-16T11:37:06Z</time>
      </trkpt>
      <trkpt lat="45.906717907637358" lon="7.7575374674052">
        <ele>2762</ele>
        <time>2015-08-16T11:37:18Z</time>
      </trkpt>
      <trkpt lat="45.906817652285099" lon="7.757522966712713">
        <ele>2761.52</ele>
        <time>2015-08-16T11:37:30Z</time>
      </trkpt>
      <trkpt lat="45.906841959804296" lon="7.757531683892012">
        <ele>2762</ele>
        <time>2015-08-16T11:37:33Z</time>
      </trkpt>
      <trkpt lat="45.906937010586262" lon="7.757516345009208">
        <ele>2762</ele>
        <time>2015-08-16T11:37:43Z</time>
      </trkpt>
      <trkpt lat="45.906953439116478" lon="7.757512992247939">
        <ele>2761.52</ele>
        <time>2015-08-16T11:37:45Z</time>
      </trkpt>
      <trkpt lat="45.907044466584921" lon="7.757475692778826">
        <ele>2762.4899999999998</ele>
        <time>2015-08-16T11:37:58Z</time>
      </trkpt>
      <trkpt lat="45.907110515981913" lon="7.757415762171149">
        <ele>2763.4499999999998</ele>
        <time>2015-08-16T11:38:09Z</time>
      </trkpt>
      <trkpt lat="45.907155694440007" lon="7.757384246215224">
        <ele>2766.3299999999999</ele>
        <time>2015-08-16T11:38:21Z</time>
      </trkpt>
      <trkpt lat="45.907203052192926" lon="7.757370751351118">
        <ele>2766.8099999999999</ele>
        <time>2015-08-16T11:38:34Z</time>
      </trkpt>
      <trkpt lat="45.907264491543174" lon="7.757361447438598">
        <ele>2767.77</ele>
        <time>2015-08-16T11:38:54Z</time>
      </trkpt>
      <trkpt lat="45.907300030812621" lon="7.757360357791185">
        <ele>2768.73</ele>
        <time>2015-08-16T11:39:06Z</time>
      </trkpt>
      <trkpt lat="45.907316207885742" lon="7.757343677803874">
        <ele>2768.73</ele>
        <time>2015-08-16T11:39:18Z</time>
      </trkpt>
      <trkpt lat="45.907359709963202" lon="7.757353484630585">
        <ele>2768.73</ele>
        <time>2015-08-16T11:39:22Z</time>
      </trkpt>
      <trkpt lat="45.907433722168207" lon="7.757298499345779">
        <ele>2769.6999999999998</ele>
        <time>2015-08-16T11:39:33Z</time>
      </trkpt>
      <trkpt lat="45.907494490966201" lon="7.757262624800205">
        <ele>2770.6599999999999</ele>
        <time>2015-08-16T11:39:43Z</time>
      </trkpt>
      <trkpt lat="45.907539166510105" lon="7.757303779944778">
        <ele>2772.0999999999999</ele>
        <time>2015-08-16T11:39:52Z</time>
      </trkpt>
      <trkpt lat="45.907589877024293" lon="7.757247621193528">
        <ele>2773.0599999999999</ele>
        <time>2015-08-16T11:40:03Z</time>
      </trkpt>
      <trkpt lat="45.907641006633639" lon="7.757213674485683">
        <ele>2774.02</ele>
        <time>2015-08-16T11:40:14Z</time>
      </trkpt>
      <trkpt lat="45.907697333022952" lon="7.757244855165482">
        <ele>2775.46</ele>
        <time>2015-08-16T11:40:25Z</time>
      </trkpt>
      <trkpt lat="45.907682413235307" lon="7.757214764133096">
        <ele>2774.98</ele>
        <time>2015-08-16T11:40:51Z</time>
      </trkpt>
      <trkpt lat="45.907700015231967" lon="7.757177045568824">
        <ele>2776.4200000000001</ele>
        <time>2015-08-16T11:40:59Z</time>
      </trkpt>
      <trkpt lat="45.907724909484386" lon="7.757152235135436">
        <ele>2777.8699999999999</ele>
        <time>2015-08-16T11:41:08Z</time>
      </trkpt>
      <trkpt lat="45.907738236710429" lon="7.757125496864319">
        <ele>2778.8299999999999</ele>
        <time>2015-08-16T11:41:18Z</time>
      </trkpt>
      <trkpt lat="45.907773356884718" lon="7.757116109132767">
        <ele>2779.79</ele>
        <time>2015-08-16T11:41:27Z</time>
      </trkpt>
      <trkpt lat="45.907796826213598" lon="7.757074031978846">
        <ele>2781.23</ele>
        <time>2015-08-16T11:41:38Z</time>
      </trkpt>
      <trkpt lat="45.907835802063346" lon="7.757104709744453">
        <ele>2782.6700000000001</ele>
        <time>2015-08-16T11:41:48Z</time>
      </trkpt>
      <trkpt lat="45.907881651073694" lon="7.757094064727426">
        <ele>2783.6300000000001</ele>
        <time>2015-08-16T11:41:58Z</time>
      </trkpt>
      <trkpt lat="45.907931691035628" lon="7.757104374468327">
        <ele>2785.0799999999999</ele>
        <time>2015-08-16T11:42:09Z</time>
      </trkpt>
      <trkpt lat="45.907948454841971" lon="7.75707084685564">
        <ele>2786.52</ele>
        <time>2015-08-16T11:42:20Z</time>
      </trkpt>
      <trkpt lat="45.907974690198898" lon="7.757050646468997">
        <ele>2787.48</ele>
        <time>2015-08-16T11:42:27Z</time>
      </trkpt>
      <trkpt lat="45.908026238903403" lon="7.757062129676342">
        <ele>2788.9200000000001</ele>
        <time>2015-08-16T11:42:37Z</time>
      </trkpt>
      <trkpt lat="45.908091785386205" lon="7.757085515186191">
        <ele>2790.8400000000001</ele>
        <time>2015-08-16T11:42:50Z</time>
      </trkpt>
      <trkpt lat="45.908126402646303" lon="7.757062129676342">
        <ele>2791.8099999999999</ele>
        <time>2015-08-16T11:43:03Z</time>
      </trkpt>
      <trkpt lat="45.908175269141793" lon="7.757066320627928">
        <ele>2793.73</ele>
        <time>2015-08-16T11:43:15Z</time>
      </trkpt>
      <trkpt lat="45.908190188929439" lon="7.757048550993204">
        <ele>2794.6900000000001</ele>
        <time>2015-08-16T11:43:24Z</time>
      </trkpt>
      <trkpt lat="45.90821910649538" lon="7.757022986188531">
        <ele>2796.6100000000001</ele>
        <time>2015-08-16T11:43:33Z</time>
      </trkpt>
      <trkpt lat="45.908280042931437" lon="7.75702340528369">
        <ele>2798.54</ele>
        <time>2015-08-16T11:43:47Z</time>
      </trkpt>
      <trkpt lat="45.908320359885693" lon="7.757043270394206">
        <ele>2799.5</ele>
        <time>2015-08-16T11:43:57Z</time>
      </trkpt>
      <trkpt lat="45.908366544172168" lon="7.757079983130097">
        <ele>2800.46</ele>
        <time>2015-08-16T11:44:15Z</time>
      </trkpt>
      <trkpt lat="45.908389929682016" lon="7.757113594561815">
        <ele>2801.4200000000001</ele>
        <time>2015-08-16T11:44:31Z</time>
      </trkpt>
      <trkpt lat="45.908388923853636" lon="7.75710797868669">
        <ele>2800.9400000000001</ele>
        <time>2015-08-16T11:44:32Z</time>
      </trkpt>
      <trkpt lat="45.908408453688025" lon="7.75710646994412">
        <ele>2800.9400000000001</ele>
        <time>2015-08-16T11:44:35Z</time>
      </trkpt>
      <trkpt lat="45.908495290204883" lon="7.757107811048627">
        <ele>2801.9000000000001</ele>
        <time>2015-08-16T11:44:47Z</time>
      </trkpt>
      <trkpt lat="45.908555053174496" lon="7.757085599005222">
        <ele>2802.8600000000001</ele>
        <time>2015-08-16T11:44:59Z</time>
      </trkpt>
      <trkpt lat="45.90859335847199" lon="7.75705324485898">
        <ele>2804.3000000000002</ele>
        <time>2015-08-16T11:45:09Z</time>
      </trkpt>
      <trkpt lat="45.908680446445942" lon="7.757109068334103">
        <ele>2806.23</ele>
        <time>2015-08-16T11:45:22Z</time>
      </trkpt>
      <trkpt lat="45.908730737864971" lon="7.757067158818245">
        <ele>2807.6700000000001</ele>
        <time>2015-08-16T11:45:34Z</time>
      </trkpt>
      <trkpt lat="45.908778430894017" lon="7.757065230980516">
        <ele>2808.6300000000001</ele>
        <time>2015-08-16T11:45:46Z</time>
      </trkpt>
      <trkpt lat="45.908818999305367" lon="7.757074451074004">
        <ele>2809.5900000000001</ele>
        <time>2015-08-16T11:46:01Z</time>
      </trkpt>
      <trkpt lat="45.908879432827234" lon="7.757073445245624">
        <ele>2811.0300000000002</ele>
        <time>2015-08-16T11:46:13Z</time>
      </trkpt>
      <trkpt lat="45.908917570486665" lon="7.75710797868669">
        <ele>2812.96</ele>
        <time>2015-08-16T11:46:31Z</time>
      </trkpt>
      <trkpt lat="45.908951014280319" lon="7.7570591121912">
        <ele>2814.4000000000001</ele>
        <time>2015-08-16T11:46:44Z</time>
      </trkpt>
      <trkpt lat="45.908964676782489" lon="7.757028434425592">
        <ele>2815.3600000000001</ele>
        <time>2015-08-16T11:46:53Z</time>
      </trkpt>
      <trkpt lat="45.908997366204858" lon="7.756996750831604">
        <ele>2817.2800000000002</ele>
        <time>2015-08-16T11:47:06Z</time>
      </trkpt>
      <trkpt lat="45.909018069505692" lon="7.756988788023591">
        <ele>2818.2399999999998</ele>
        <time>2015-08-16T11:47:14Z</time>
      </trkpt>
      <trkpt lat="45.909040784463286" lon="7.756968336179853">
        <ele>2819.6799999999998</ele>
        <time>2015-08-16T11:47:23Z</time>
      </trkpt>
      <trkpt lat="45.909084705635905" lon="7.75695601478219">
        <ele>2821.6100000000001</ele>
        <time>2015-08-16T11:47:35Z</time>
      </trkpt>
      <trkpt lat="45.909116975963116" lon="7.757024327293038">
        <ele>2822.0900000000001</ele>
        <time>2015-08-16T11:47:46Z</time>
      </trkpt>
      <trkpt lat="45.909127118065953" lon="7.757038408890367">
        <ele>2822.0900000000001</ele>
        <time>2015-08-16T11:47:59Z</time>
      </trkpt>
      <trkpt lat="45.909115551039577" lon="7.757044276222587">
        <ele>2822.0900000000001</ele>
        <time>2015-08-16T11:48:21Z</time>
      </trkpt>
      <trkpt lat="45.909115970134735" lon="7.75704201310873">
        <ele>2822.0900000000001</ele>
        <time>2015-08-16T11:48:38Z</time>
      </trkpt>
      <trkpt lat="45.909199202433228" lon="7.757044611498714">
        <ele>2822.0900000000001</ele>
        <time>2015-08-16T11:48:49Z</time>
      </trkpt>
      <trkpt lat="45.909230299293995" lon="7.757043270394206">
        <ele>2822.5700000000002</ele>
        <time>2015-08-16T11:48:54Z</time>
      </trkpt>
      <trkpt lat="45.909300036728382" lon="7.757093142718077">
        <ele>2823.5300000000002</ele>
        <time>2015-08-16T11:49:04Z</time>
      </trkpt>
      <trkpt lat="45.909346975386143" lon="7.757113678380847">
        <ele>2823.5300000000002</ele>
        <time>2015-08-16T11:49:10Z</time>
      </trkpt>
      <trkpt lat="45.909378491342068" lon="7.757118456065655">
        <ele>2824.0100000000002</ele>
        <time>2015-08-16T11:49:14Z</time>
      </trkpt>
      <trkpt lat="45.909397099167109" lon="7.757106553763151">
        <ele>2823.5300000000002</ele>
        <time>2015-08-16T11:49:16Z</time>
      </trkpt>
      <trkpt lat="45.909491730853915" lon="7.757134800776839">
        <ele>2823.5300000000002</ele>
        <time>2015-08-16T11:49:26Z</time>
      </trkpt>
      <trkpt lat="45.909558786079288" lon="7.757088784128428">
        <ele>2823.5300000000002</ele>
        <time>2015-08-16T11:49:37Z</time>
      </trkpt>
      <trkpt lat="45.909630199894309" lon="7.757119964808226">
        <ele>2824.4899999999998</ele>
        <time>2015-08-16T11:49:46Z</time>
      </trkpt>
      <trkpt lat="45.909691471606493" lon="7.757119713351131">
        <ele>2824.4899999999998</ele>
        <time>2015-08-16T11:49:55Z</time>
      </trkpt>
      <trkpt lat="45.909798257052898" lon="7.757151648402214">
        <ele>2824.0100000000002</ele>
        <time>2015-08-16T11:50:08Z</time>
      </trkpt>
      <trkpt lat="45.909803789108992" lon="7.757151983678341">
        <ele>2824.0100000000002</ele>
        <time>2015-08-16T11:50:09Z</time>
      </trkpt>
      <trkpt lat="45.909843854606152" lon="7.757121473550797">
        <ele>2823.0500000000002</ele>
        <time>2015-08-16T11:50:14Z</time>
      </trkpt>
      <trkpt lat="45.909925242885947" lon="7.757050478830934">
        <ele>2824.0100000000002</ele>
        <time>2015-08-16T11:50:25Z</time>
      </trkpt>
      <trkpt lat="45.90999229811132" lon="7.757019381970167">
        <ele>2824.9699999999998</ele>
        <time>2015-08-16T11:50:36Z</time>
      </trkpt>
      <trkpt lat="45.910058934241533" lon="7.756999516859651">
        <ele>2826.4099999999999</ele>
        <time>2015-08-16T11:50:49Z</time>
      </trkpt>
      <trkpt lat="45.910089109092951" lon="7.75693497620523">
        <ele>2827.3699999999999</ele>
        <time>2015-08-16T11:50:59Z</time>
      </trkpt>
      <trkpt lat="45.910109393298626" lon="7.756879655644298">
        <ele>2828.8200000000002</ele>
        <time>2015-08-16T11:51:11Z</time>
      </trkpt>
      <trkpt lat="45.910117942839861" lon="7.75685291737318">
        <ele>2829.7800000000002</ele>
        <time>2015-08-16T11:51:23Z</time>
      </trkpt>
      <trkpt lat="45.91014132834971" lon="7.756770690903068">
        <ele>2831.2199999999998</ele>
        <time>2015-08-16T11:51:34Z</time>
      </trkpt>
      <trkpt lat="45.91017016209662" lon="7.756743784993887">
        <ele>2833.1399999999999</ele>
        <time>2015-08-16T11:51:44Z</time>
      </trkpt>
      <trkpt lat="45.910175107419491" lon="7.75669751688838">
        <ele>2834.0999999999999</ele>
        <time>2015-08-16T11:51:56Z</time>
      </trkpt>
      <trkpt lat="45.910228751599789" lon="7.756772032007575">
        <ele>2836.0300000000002</ele>
        <time>2015-08-16T11:52:07Z</time>
      </trkpt>
      <trkpt lat="45.910233277827501" lon="7.756781168282032">
        <ele>2836.5100000000002</ele>
        <time>2015-08-16T11:52:08Z</time>
      </trkpt>
      <trkpt lat="45.910272253677249" lon="7.756808325648308">
        <ele>2838.4299999999998</ele>
        <time>2015-08-16T11:52:18Z</time>
      </trkpt>
      <trkpt lat="45.910305110737681" lon="7.756787203252316">
        <ele>2839.3899999999999</ele>
        <time>2015-08-16T11:52:31Z</time>
      </trkpt>
      <trkpt lat="45.910325227305293" lon="7.756787706166506">
        <ele>2840.3499999999999</ele>
        <time>2015-08-16T11:52:41Z</time>
      </trkpt>
      <trkpt lat="45.910356324166059" lon="7.756843026727438">
        <ele>2841.79</ele>
        <time>2015-08-16T11:52:51Z</time>
      </trkpt>
      <trkpt lat="45.910382391884923" lon="7.756851995363832">
        <ele>2843.2399999999998</ele>
        <time>2015-08-16T11:53:01Z</time>
      </trkpt>
      <trkpt lat="45.91040032915771" lon="7.756816288456321">
        <ele>2844.6799999999998</ele>
        <time>2015-08-16T11:53:11Z</time>
      </trkpt>
      <trkpt lat="45.910424049943686" lon="7.756860544905067">
        <ele>2845.6399999999999</ele>
        <time>2015-08-16T11:53:19Z</time>
      </trkpt>
      <trkpt lat="45.910449782386422" lon="7.756864232942462">
        <ele>2847.0799999999999</ele>
        <time>2015-08-16T11:53:29Z</time>
      </trkpt>
      <trkpt lat="45.910478113219142" lon="7.756859287619591">
        <ele>2848.52</ele>
        <time>2015-08-16T11:53:38Z</time>
      </trkpt>
      <trkpt lat="45.910516167059541" lon="7.756912931799889">
        <ele>2849.9699999999998</ele>
        <time>2015-08-16T11:53:50Z</time>
      </trkpt>
      <trkpt lat="45.910529159009457" lon="7.756866747513413">
        <ele>2850.9299999999998</ele>
        <time>2015-08-16T11:54:01Z</time>
      </trkpt>
      <trkpt lat="45.910548437386751" lon="7.756845708936453">
        <ele>2852.8499999999999</ele>
        <time>2015-08-16T11:54:11Z</time>
      </trkpt>
      <trkpt lat="45.910597806796432" lon="7.756886864081025">
        <ele>2854.77</ele>
        <time>2015-08-16T11:54:24Z</time>
      </trkpt>
      <trkpt lat="45.910638961941004" lon="7.756906226277351">
        <ele>2855.73</ele>
        <time>2015-08-16T11:54:33Z</time>
      </trkpt>
      <trkpt lat="45.910667208954692" lon="7.756925756111741">
        <ele>2857.1799999999998</ele>
        <time>2015-08-16T11:54:42Z</time>
      </trkpt>
      <trkpt lat="45.910695539787412" lon="7.756942687556148">
        <ele>2858.6199999999999</ele>
        <time>2015-08-16T11:54:51Z</time>
      </trkpt>
      <trkpt lat="45.910711633041501" lon="7.756997840479016">
        <ele>2859.5799999999999</ele>
        <time>2015-08-16T11:55:00Z</time>
      </trkpt>
      <trkpt lat="45.910741137340665" lon="7.756989458575845">
        <ele>2861.5</ele>
        <time>2015-08-16T11:55:12Z</time>
      </trkpt>
      <trkpt lat="45.91080685146153" lon="7.757040169090033">
        <ele>2863.4200000000001</ele>
        <time>2015-08-16T11:55:25Z</time>
      </trkpt>
      <trkpt lat="45.910856556147337" lon="7.757078222930431">
        <ele>2865.3499999999999</ele>
        <time>2015-08-16T11:55:38Z</time>
      </trkpt>
      <trkpt lat="45.910888155922294" lon="7.757085599005222">
        <ele>2866.79</ele>
        <time>2015-08-16T11:55:51Z</time>
      </trkpt>
      <trkpt lat="45.910916067659855" lon="7.757066739723086">
        <ele>2868.23</ele>
        <time>2015-08-16T11:56:00Z</time>
      </trkpt>
      <trkpt lat="45.910965017974377" lon="7.757112672552466">
        <ele>2870.1500000000001</ele>
        <time>2015-08-16T11:56:13Z</time>
      </trkpt>
      <trkpt lat="45.91101455502212" lon="7.757178051397204">
        <ele>2872.0799999999999</ele>
        <time>2015-08-16T11:56:24Z</time>
      </trkpt>
      <trkpt lat="45.911039616912603" lon="7.757151648402214">
        <ele>2874</ele>
        <time>2015-08-16T11:56:36Z</time>
      </trkpt>
      <trkpt lat="45.911080269142985" lon="7.757182661443949">
        <ele>2874.96</ele>
        <time>2015-08-16T11:56:46Z</time>
      </trkpt>
      <trkpt lat="45.911125699058175" lon="7.757218452170491">
        <ele>2877.3600000000001</ele>
        <time>2015-08-16T11:57:00Z</time>
      </trkpt>
      <trkpt lat="45.911136344075203" lon="7.757271006703377">
        <ele>2878.8099999999999</ele>
        <time>2015-08-16T11:57:09Z</time>
      </trkpt>
      <trkpt lat="45.91117481701076" lon="7.757307551801205">
        <ele>2880.73</ele>
        <time>2015-08-16T11:57:20Z</time>
      </trkpt>
      <trkpt lat="45.911227455362678" lon="7.757350467145443">
        <ele>2882.1700000000001</ele>
        <time>2015-08-16T11:57:32Z</time>
      </trkpt>
      <trkpt lat="45.911241956055164" lon="7.757368991151452">
        <ele>2883.6100000000001</ele>
        <time>2015-08-16T11:57:40Z</time>
      </trkpt>
      <trkpt lat="45.911272298544645" lon="7.757384078577161">
        <ele>2885.0500000000002</ele>
        <time>2015-08-16T11:57:52Z</time>
      </trkpt>
      <trkpt lat="45.911283949390054" lon="7.75738500058651">
        <ele>2885.0500000000002</ele>
        <time>2015-08-16T11:58:05Z</time>
      </trkpt>
      <trkpt lat="45.911295264959335" lon="7.757395394146442">
        <ele>2886.02</ele>
        <time>2015-08-16T11:58:24Z</time>
      </trkpt>
      <trkpt lat="45.911317560821772" lon="7.757449373602867">
        <ele>2887.46</ele>
        <time>2015-08-16T11:58:33Z</time>
      </trkpt>
      <trkpt lat="45.911347568035126" lon="7.757483655586839">
        <ele>2889.3800000000001</ele>
        <time>2015-08-16T11:58:43Z</time>
      </trkpt>
      <trkpt lat="45.911389561370015" lon="7.757501760497689">
        <ele>2891.7800000000002</ele>
        <time>2015-08-16T11:58:54Z</time>
      </trkpt>
      <trkpt lat="45.911435578018427" lon="7.757546687498689">
        <ele>2893.23</ele>
        <time>2015-08-16T11:59:04Z</time>
      </trkpt>
      <trkpt lat="45.91144454665482" lon="7.757520452141762">
        <ele>2893.71</ele>
        <time>2015-08-16T11:59:17Z</time>
      </trkpt>
      <trkpt lat="45.911467596888542" lon="7.757503017783165">
        <ele>2894.6700000000001</ele>
        <time>2015-08-16T11:59:27Z</time>
      </trkpt>
      <trkpt lat="45.911507746204734" lon="7.757544759660959">
        <ele>2895.1500000000001</ele>
        <time>2015-08-16T11:59:38Z</time>
      </trkpt>
      <trkpt lat="45.911521660163999" lon="7.757587842643261">
        <ele>2897.0700000000002</ele>
        <time>2015-08-16T11:59:49Z</time>
      </trkpt>
      <trkpt lat="45.911547727882862" lon="7.757634948939085">
        <ele>2899.4699999999998</ele>
        <time>2015-08-16T12:00:01Z</time>
      </trkpt>
      <trkpt lat="45.911596175283194" lon="7.757658502086997">
        <ele>2901.8800000000001</ele>
        <time>2015-08-16T12:00:16Z</time>
      </trkpt>
      <trkpt lat="45.911627355962992" lon="7.757669650018215">
        <ele>2903.8000000000002</ele>
        <time>2015-08-16T12:00:27Z</time>
      </trkpt>
      <trkpt lat="45.911643030121922" lon="7.757725892588496">
        <ele>2904.7600000000002</ele>
        <time>2015-08-16T12:00:36Z</time>
      </trkpt>
      <trkpt lat="45.911671109497547" lon="7.757753804326057">
        <ele>2906.6799999999998</ele>
        <time>2015-08-16T12:00:47Z</time>
      </trkpt>
      <trkpt lat="45.91169667430222" lon="7.757765371352434">
        <ele>2907.6500000000001</ele>
        <time>2015-08-16T12:01:00Z</time>
      </trkpt>
      <trkpt lat="45.911743026226759" lon="7.757785907015204">
        <ele>2910.0500000000002</ele>
        <time>2015-08-16T12:01:13Z</time>
      </trkpt>
      <trkpt lat="45.911771943792701" lon="7.757831756025553">
        <ele>2911.9699999999998</ele>
        <time>2015-08-16T12:01:26Z</time>
      </trkpt>
      <trkpt lat="45.911814942955971" lon="7.757844161242247">
        <ele>2913.8899999999999</ele>
        <time>2015-08-16T12:01:37Z</time>
      </trkpt>
      <trkpt lat="45.911840759217739" lon="7.757864110171795">
        <ele>2915.8200000000002</ele>
        <time>2015-08-16T12:01:49Z</time>
      </trkpt>
      <trkpt lat="45.911864982917905" lon="7.757817590609193">
        <ele>2918.2199999999998</ele>
        <time>2015-08-16T12:02:00Z</time>
      </trkpt>
      <trkpt lat="45.911888452246785" lon="7.75787265971303">
        <ele>2919.6599999999999</ele>
        <time>2015-08-16T12:02:10Z</time>
      </trkpt>
      <trkpt lat="45.911890715360641" lon="7.757844915613532">
        <ele>2921.5799999999999</ele>
        <time>2015-08-16T12:02:22Z</time>
      </trkpt>
      <trkpt lat="45.911902701482177" lon="7.757806945592165">
        <ele>2922.0599999999999</ele>
        <time>2015-08-16T12:02:35Z</time>
      </trkpt>
      <trkpt lat="45.911956094205379" lon="7.757749110460281">
        <ele>2923.5100000000002</ele>
        <time>2015-08-16T12:02:49Z</time>
      </trkpt>
      <trkpt lat="45.911991968750954" lon="7.757775261998177">
        <ele>2925.4299999999998</ele>
        <time>2015-08-16T12:02:59Z</time>
      </trkpt>
      <trkpt lat="45.912039242684841" lon="7.757772747427225">
        <ele>2926.3899999999999</ele>
        <time>2015-08-16T12:03:08Z</time>
      </trkpt>
      <trkpt lat="45.912091126665473" lon="7.757795546203852">
        <ele>2928.79</ele>
        <time>2015-08-16T12:03:20Z</time>
      </trkpt>
      <trkpt lat="45.912107471376657" lon="7.757856985554099">
        <ele>2930.7199999999998</ele>
        <time>2015-08-16T12:03:33Z</time>
      </trkpt>
      <trkpt lat="45.912097413092852" lon="7.75791272521019">
        <ele>2932.1599999999999</ele>
        <time>2015-08-16T12:03:42Z</time>
      </trkpt>
      <trkpt lat="45.912125743925571" lon="7.757938206195831">
        <ele>2933.5999999999999</ele>
        <time>2015-08-16T12:03:51Z</time>
      </trkpt>
      <trkpt lat="45.912160109728575" lon="7.757946001365781">
        <ele>2935.04</ele>
        <time>2015-08-16T12:04:00Z</time>
      </trkpt>
      <trkpt lat="45.912176873534918" lon="7.758002411574125">
        <ele>2936.9699999999998</ele>
        <time>2015-08-16T12:04:12Z</time>
      </trkpt>
      <trkpt lat="45.9122175257653" lon="7.757981205359101">
        <ele>2938.4099999999999</ele>
        <time>2015-08-16T12:04:21Z</time>
      </trkpt>
      <trkpt lat="45.912235546857119" lon="7.758014565333724">
        <ele>2939.8499999999999</ele>
        <time>2015-08-16T12:04:32Z</time>
      </trkpt>
      <trkpt lat="45.912283910438418" lon="7.758028563112021">
        <ele>2942.25</ele>
        <time>2015-08-16T12:04:45Z</time>
      </trkpt>
      <trkpt lat="45.91231475584209" lon="7.758087068796158">
        <ele>2944.6599999999999</ele>
        <time>2015-08-16T12:04:57Z</time>
      </trkpt>
      <trkpt lat="45.912325736135244" lon="7.758099641650915">
        <ele>2945.1399999999999</ele>
        <time>2015-08-16T12:05:08Z</time>
      </trkpt>
      <trkpt lat="45.91237242333591" lon="7.758091343566775">
        <ele>2947.0599999999999</ele>
        <time>2015-08-16T12:05:22Z</time>
      </trkpt>
      <trkpt lat="45.91242665424943" lon="7.758103581145406">
        <ele>2948.5</ele>
        <time>2015-08-16T12:05:31Z</time>
      </trkpt>
      <trkpt lat="45.912474431097507" lon="7.758103748783469">
        <ele>2950.4200000000001</ele>
        <time>2015-08-16T12:05:41Z</time>
      </trkpt>
      <trkpt lat="45.912468060851097" lon="7.75814582593739">
        <ele>2952.3499999999999</ele>
        <time>2015-08-16T12:05:51Z</time>
      </trkpt>
      <trkpt lat="45.912470407783985" lon="7.758134007453919">
        <ele>2952.3499999999999</ele>
        <time>2015-08-16T12:06:07Z</time>
      </trkpt>
      <trkpt lat="45.912539642304182" lon="7.758164014667273">
        <ele>2954.27</ele>
        <time>2015-08-16T12:06:19Z</time>
      </trkpt>
      <trkpt lat="45.912561267614365" lon="7.758197290822864">
        <ele>2956.1900000000001</ele>
        <time>2015-08-16T12:06:30Z</time>
      </trkpt>
      <trkpt lat="45.912586245685816" lon="7.758232243359089">
        <ele>2957.6300000000001</ele>
        <time>2015-08-16T12:06:42Z</time>
      </trkpt>
      <trkpt lat="45.912639554589987" lon="7.75821765884757">
        <ele>2959.5599999999999</ele>
        <time>2015-08-16T12:06:53Z</time>
      </trkpt>
      <trkpt lat="45.912676686421037" lon="7.758249677717686">
        <ele>2961.48</ele>
        <time>2015-08-16T12:07:02Z</time>
      </trkpt>
      <trkpt lat="45.912703592330217" lon="7.758222436532378">
        <ele>2962.4400000000001</ele>
        <time>2015-08-16T12:07:11Z</time>
      </trkpt>
      <trkpt lat="45.912726894021034" lon="7.758313799276948">
        <ele>2964.8400000000001</ele>
        <time>2015-08-16T12:07:24Z</time>
      </trkpt>
      <trkpt lat="45.912767630070448" lon="7.758330898359418">
        <ele>2966.77</ele>
        <time>2015-08-16T12:07:34Z</time>
      </trkpt>
      <trkpt lat="45.912798643112183" lon="7.758303405717015">
        <ele>2967.73</ele>
        <time>2015-08-16T12:07:44Z</time>
      </trkpt>
      <trkpt lat="45.912843318656087" lon="7.758308351039887">
        <ele>2968.6900000000001</ele>
        <time>2015-08-16T12:07:53Z</time>
      </trkpt>
      <trkpt lat="45.912847509607673" lon="7.758350931107998">
        <ele>2970.6100000000001</ele>
        <time>2015-08-16T12:08:03Z</time>
      </trkpt>
      <trkpt lat="45.912860333919525" lon="7.758369958028197">
        <ele>2972.0500000000002</ele>
        <time>2015-08-16T12:08:13Z</time>
      </trkpt>
      <trkpt lat="45.912881121039391" lon="7.758382698521018">
        <ele>2973.0100000000002</ele>
        <time>2015-08-16T12:08:20Z</time>
      </trkpt>
      <trkpt lat="45.912896879017353" lon="7.758432235568762">
        <ele>2974.46</ele>
        <time>2015-08-16T12:08:30Z</time>
      </trkpt>
      <trkpt lat="45.912928562611341" lon="7.758479844778776">
        <ele>2976.3800000000001</ele>
        <time>2015-08-16T12:08:41Z</time>
      </trkpt>
      <trkpt lat="45.912979105487466" lon="7.75850985199213">
        <ele>2977.8200000000002</ele>
        <time>2015-08-16T12:08:52Z</time>
      </trkpt>
      <trkpt lat="45.912985475733876" lon="7.758576739579439">
        <ele>2979.7399999999998</ele>
        <time>2015-08-16T12:09:05Z</time>
      </trkpt>
      <trkpt lat="45.913022859022021" lon="7.758620325475931">
        <ele>2981.1900000000001</ele>
        <time>2015-08-16T12:09:16Z</time>
      </trkpt>
      <trkpt lat="45.913044065237045" lon="7.758651673793793">
        <ele>2983.1100000000001</ele>
        <time>2015-08-16T12:09:25Z</time>
      </trkpt>
      <trkpt lat="45.913001736626029" lon="7.758727530017495">
        <ele>2985.5100000000002</ele>
        <time>2015-08-16T12:09:41Z</time>
      </trkpt>
      <trkpt lat="45.913024535402656" lon="7.758775558322668">
        <ele>2986.9499999999998</ele>
        <time>2015-08-16T12:09:49Z</time>
      </trkpt>
      <trkpt lat="45.913087986409664" lon="7.758757537230849">
        <ele>2988.4000000000001</ele>
        <time>2015-08-16T12:10:01Z</time>
      </trkpt>
      <trkpt lat="45.913117825984955" lon="7.758779162541032">
        <ele>2989.8400000000001</ele>
        <time>2015-08-16T12:10:09Z</time>
      </trkpt>
      <trkpt lat="45.913146575912833" lon="7.758833477273583">
        <ele>2991.2800000000002</ele>
        <time>2015-08-16T12:10:18Z</time>
      </trkpt>
      <trkpt lat="45.913185803219676" lon="7.758858455345035">
        <ele>2993.1999999999998</ele>
        <time>2015-08-16T12:10:29Z</time>
      </trkpt>
      <trkpt lat="45.913229640573263" lon="7.758882762864232">
        <ele>2994.6399999999999</ele>
        <time>2015-08-16T12:10:41Z</time>
      </trkpt>
      <trkpt lat="45.913257133215666" lon="7.758929952979088">
        <ele>2996.0900000000001</ele>
        <time>2015-08-16T12:10:54Z</time>
      </trkpt>
      <trkpt lat="45.913233077153563" lon="7.758906651288271">
        <ele>2996.0900000000001</ele>
        <time>2015-08-16T12:11:07Z</time>
      </trkpt>
      <trkpt lat="45.913256546482444" lon="7.758932886645198">
        <ele>2996.5700000000002</ele>
        <time>2015-08-16T12:11:20Z</time>
      </trkpt>
      <trkpt lat="45.913319913670421" lon="7.758977394551039">
        <ele>2998.0100000000002</ele>
        <time>2015-08-16T12:11:32Z</time>
      </trkpt>
      <trkpt lat="45.913375234231353" lon="7.759046545252204">
        <ele>2999.4499999999998</ele>
        <time>2015-08-16T12:11:42Z</time>
      </trkpt>
      <trkpt lat="45.913437008857727" lon="7.759092729538679">
        <ele>3001.8499999999999</ele>
        <time>2015-08-16T12:11:54Z</time>
      </trkpt>
      <trkpt lat="45.913487384095788" lon="7.759164227172732">
        <ele>3003.7800000000002</ele>
        <time>2015-08-16T12:12:07Z</time>
      </trkpt>
      <trkpt lat="45.913531053811312" lon="7.759233126416802">
        <ele>3005.2199999999998</ele>
        <time>2015-08-16T12:12:19Z</time>
      </trkpt>
      <trkpt lat="45.91359157115221" lon="7.759317783638835">
        <ele>3006.6599999999999</ele>
        <time>2015-08-16T12:12:34Z</time>
      </trkpt>
      <trkpt lat="45.913603138178587" lon="7.759413840249181">
        <ele>3007.6199999999999</ele>
        <time>2015-08-16T12:12:45Z</time>
      </trkpt>
      <trkpt lat="45.913566257804632" lon="7.75939523242414">
        <ele>3007.6199999999999</ele>
        <time>2015-08-16T12:12:58Z</time>
      </trkpt>
      <trkpt lat="45.913574388250709" lon="7.75939573533833">
        <ele>3007.1399999999999</ele>
        <time>2015-08-16T12:13:11Z</time>
      </trkpt>
      <trkpt lat="45.913585955277085" lon="7.759446445852518">
        <ele>3007.6199999999999</ele>
        <time>2015-08-16T12:13:22Z</time>
      </trkpt>
      <trkpt lat="45.913585117086768" lon="7.759481063112617">
        <ele>3008.5799999999999</ele>
        <time>2015-08-16T12:13:35Z</time>
      </trkpt>
      <trkpt lat="45.913576232269406" lon="7.759473603218794">
        <ele>3008.5799999999999</ele>
        <time>2015-08-16T12:13:48Z</time>
      </trkpt>
      <trkpt lat="45.91358570381999" lon="7.759442338719964">
        <ele>3008.5799999999999</ele>
        <time>2015-08-16T12:14:07Z</time>
      </trkpt>
      <trkpt lat="45.913613280281425" lon="7.759390622377396">
        <ele>3007.6199999999999</ele>
        <time>2015-08-16T12:14:18Z</time>
      </trkpt>
      <trkpt lat="45.913608251139522" lon="7.759377211332321">
        <ele>3008.0999999999999</ele>
        <time>2015-08-16T12:14:40Z</time>
      </trkpt>
      <trkpt lat="45.913614956662059" lon="7.759434292092919">
        <ele>3007.6199999999999</ele>
        <time>2015-08-16T12:15:07Z</time>
      </trkpt>
      <trkpt lat="45.913596851751208" lon="7.759462455287576">
        <ele>3008.0999999999999</ele>
        <time>2015-08-16T12:15:29Z</time>
      </trkpt>
      <trkpt lat="45.91347673907876" lon="7.759523894637823">
        <ele>3008.0999999999999</ele>
        <time>2015-08-16T12:15:48Z</time>
      </trkpt>
      <trkpt lat="45.913364589214325" lon="7.759563541039825">
        <ele>3008.0999999999999</ele>
        <time>2015-08-16T12:16:10Z</time>
      </trkpt>
      <trkpt lat="45.913362829014659" lon="7.759531103074551">
        <ele>3008.0999999999999</ele>
        <time>2015-08-16T12:16:26Z</time>
      </trkpt>
      <trkpt lat="45.913332067430019" lon="7.759498581290245">
        <ele>3008.0999999999999</ele>
        <time>2015-08-16T12:16:50Z</time>
      </trkpt>
      <trkpt lat="45.913242967799306" lon="7.759489109739661">
        <ele>3008.0999999999999</ele>
        <time>2015-08-16T12:17:13Z</time>
      </trkpt>
      <trkpt lat="45.913231484591961" lon="7.759441584348679">
        <ele>3008.0999999999999</ele>
        <time>2015-08-16T12:17:33Z</time>
      </trkpt>
      <trkpt lat="45.91325294226408" lon="7.759478380903602">
        <ele>3008.0999999999999</ele>
        <time>2015-08-16T12:17:52Z</time>
      </trkpt>
      <trkpt lat="45.913251684978604" lon="7.759530516341329">
        <ele>3008.5799999999999</ele>
        <time>2015-08-16T12:18:10Z</time>
      </trkpt>
      <trkpt lat="45.913287559524179" lon="7.759497491642833">
        <ele>3008.5799999999999</ele>
        <time>2015-08-16T12:18:31Z</time>
      </trkpt>
      <trkpt lat="45.913336593657732" lon="7.759472345933318">
        <ele>3008.5799999999999</ele>
        <time>2015-08-16T12:18:41Z</time>
      </trkpt>
      <trkpt lat="45.913502890616655" lon="7.759418450295925">
        <ele>3008.5799999999999</ele>
        <time>2015-08-16T12:19:33Z</time>
      </trkpt>
      <trkpt lat="45.913558881729841" lon="7.759422641247511">
        <ele>3009.54</ele>
        <time>2015-08-16T12:19:52Z</time>
      </trkpt>
      <trkpt lat="45.913729034364223" lon="7.759332535788417">
        <ele>3011.4699999999998</ele>
        <time>2015-08-16T12:20:33Z</time>
      </trkpt>
      <trkpt lat="45.913725262507796" lon="7.759419707581401">
        <ele>3010.5100000000002</ele>
        <time>2015-08-16T12:20:58Z</time>
      </trkpt>
    </trkseg>
  </trk>

</gpx>